[[{"header":{"parameterUnit":"m.s-1","parameterCategory":1,"la1":30.6,"la2":29.2853,"lo1":-89.7004,"lo2":-87.6739,"dy":0.0162,"dx":0.0183,"nx":112,"ny":82,"refTime":"2023-05-16T00:00:00:Z","depth":0,"parameterNumber":2,"parameterNumberName":"U-component_of_WINDS"},"data":[0.0,0.0,0.0,0.0,0.0,0.0,0.0,0.0,0.0,0.0,0.0,0.0,0.0,0.0,0.0,0.0,0.0,0.0,0.0,0.0,0.0,0.0,0.0,0.0,0.0,0.0,0.0,0.0,0.0,0.0,0.0,0.0,0.0,0.0,0.0,0.0,0.0,0.0,0.0,0.0,0.0,0.0,0.0,0.0,0.0,0.0,0.0,0.0,0.0,0.0,0.0,0.0,0.0,0.0,0.0,0.0,0.0,0.0,0.0,0.0,0.0,0.0,0.0,0.0,0.0,0.0,0.0,0.0,0.0,0.0,0.0,0.0,0.0,0.0,0.0,0.0,0.0,0.0,0.0,0.0,0.0,0.0,0.0,0.0,0.0,0.0,0.0,0.0,0.0,0.0,-3.3403,-3.3657,-3.4949,-3.5845,-3.5901,-3.591,-3.5162,-3.341,0.0,0.0,0.0,0.0,0.0,0.0,0.0,0.0,0.0,0.0,0.0,0.0,0.0,0.0,0.0,0.0,0.0,0.0,0.0,0.0,0.0,0.0,0.0,0.0,0.0,0.0,0.0,0.0,0.0,0.0,0.0,0.0,0.0,0.0,0.0,0.0,0.0,0.0,0.0,0.0,0.0,0.0,0.0,0.0,0.0,0.0,0.0,0.0,0.0,0.0,0.0,0.0,0.0,0.0,0.0,0.0,0.0,0.0,0.0,0.0,0.0,0.0,0.0,0.0,0.0,0.0,0.0,0.0,0.0,0.0,0.0,0.0,0.0,0.0,0.0,0.0,0.0,0.0,0.0,0.0,0.0,0.0,0.0,0.0,0.0,0.0,0.0,0.0,0.0,0.0,0.0,0.0,0.0,0.0,0.0,0.0,0.0,0.0,0.0,0.0,0.0,0.0,0.0,0.0,-3.3838,-3.5274,-3.5696,-3.5898,-3.5891,-3.5908,-3.5158,-3.3418,0.0,0.0,0.0,0.0,0.0,0.0,0.0,0.0,0.0,0.0,0.0,0.0,0.0,0.0,0.0,0.0,0.0,0.0,0.0,0.0,0.0,0.0,0.0,0.0,0.0,0.0,0.0,0.0,0.0,0.0,0.0,0.0,0.0,0.0,0.0,0.0,0.0,0.0,0.0,0.0,0.0,0.0,0.0,0.0,0.0,0.0,0.0,0.0,0.0,0.0,0.0,0.0,0.0,0.0,0.0,0.0,0.0,0.0,0.0,0.0,0.0,0.0,0.0,0.0,0.0,0.0,0.0,0.0,0.0,0.0,0.0,0.0,0.0,0.0,0.0,0.0,0.0,0.0,0.0,0.0,0.0,0.0,0.0,0.0,0.0,0.0,0.0,0.0,0.0,0.0,0.0,0.0,0.0,0.0,0.0,0.0,0.0,0.0,0.0,0.0,0.0,0.0,0.0,-3.3489,-3.4475,-3.5671,-3.5834,-3.585,-3.585,-3.5845,-3.5115,-3.3414,-3.3261,0.0,0.0,0.0,0.0,0.0,0.0,0.0,0.0,0.0,0.0,0.0,0.0,0.0,0.0,0.0,0.0,0.0,0.0,0.0,0.0,0.0,0.0,0.0,0.0,0.0,0.0,0.0,0.0,0.0,0.0,0.0,0.0,0.0,0.0,0.0,0.0,0.0,0.0,0.0,0.0,0.0,0.0,0.0,0.0,0.0,0.0,0.0,0.0,0.0,0.0,0.0,0.0,0.0,0.0,0.0,0.0,0.0,0.0,0.0,0.0,0.0,0.0,0.0,0.0,0.0,0.0,0.0,0.0,0.0,0.0,0.0,0.0,0.0,0.0,0.0,0.0,0.0,0.0,0.0,0.0,0.0,0.0,0.0,0.0,0.0,0.0,0.0,0.0,0.0,0.0,0.0,0.0,0.0,0.0,0.0,0.0,0.0,0.0,0.0,0.0,0.0,0.0,-3.4224,-3.512,-3.5721,-3.5799,-3.5799,-3.5799,-3.5799,-3.5172,-3.3699,-3.341,0.0,0.0,0.0,0.0,0.0,0.0,0.0,0.0,0.0,0.0,0.0,0.0,0.0,0.0,0.0,0.0,0.0,0.0,0.0,0.0,0.0,0.0,0.0,0.0,0.0,0.0,0.0,0.0,0.0,0.0,0.0,0.0,0.0,0.0,0.0,0.0,0.0,0.0,0.0,0.0,0.0,0.0,0.0,0.0,0.0,0.0,0.0,0.0,0.0,0.0,0.0,0.0,0.0,0.0,0.0,0.0,0.0,0.0,0.0,0.0,0.0,0.0,0.0,0.0,0.0,0.0,0.0,0.0,0.0,0.0,0.0,0.0,0.0,0.0,0.0,0.0,0.0,0.0,0.0,0.0,0.0,0.0,0.0,0.0,0.0,0.0,0.0,0.0,0.0,0.0,0.0,0.0,0.0,0.0,0.0,0.0,0.0,0.0,0.0,0.0,0.0,0.0,-3.4717,-3.5741,-3.5799,-3.5799,-3.5799,-3.5799,-3.5799,-3.5425,-3.456,-3.3745,0.0,0.0,0.0,0.0,0.0,0.0,0.0,0.0,0.0,0.0,0.0,0.0,0.0,0.0,0.0,0.0,0.0,0.0,0.0,0.0,0.0,0.0,0.0,0.0,0.0,0.0,0.0,0.0,0.0,0.0,0.0,0.0,0.0,0.0,0.0,0.0,0.0,0.0,0.0,0.0,0.0,0.0,0.0,0.0,0.0,0.0,0.0,0.0,0.0,0.0,0.0,0.0,0.0,0.0,0.0,0.0,0.0,0.0,0.0,0.0,0.0,0.0,0.0,0.0,0.0,0.0,0.0,0.0,0.0,0.0,0.0,0.0,0.0,0.0,0.0,0.0,0.0,0.0,0.0,0.0,0.0,0.0,0.0,0.0,0.0,0.0,0.0,0.0,0.0,0.0,0.0,0.0,0.0,0.0,0.0,0.0,0.0,0.0,0.0,0.0,0.0,0.0,-3.5146,-3.585,0.0,-3.5799,-3.5799,-3.5799,-3.5799,-3.5457,-3.4647,0.0,0.0,0.0,0.0,0.0,0.0,0.0,0.0,0.0,0.0,0.0,0.0,0.0,0.0,0.0,0.0,0.0,0.0,0.0,0.0,0.0,0.0,0.0,0.0,0.0,0.0,0.0,0.0,0.0,0.0,0.0,0.0,0.0,0.0,0.0,0.0,0.0,0.0,0.0,0.0,0.0,0.0,0.0,0.0,0.0,0.0,0.0,0.0,0.0,0.0,0.0,0.0,0.0,0.0,0.0,0.0,0.0,0.0,0.0,0.0,0.0,0.0,0.0,0.0,0.0,0.0,0.0,0.0,0.0,0.0,0.0,0.0,0.0,0.0,0.0,0.0,0.0,0.0,0.0,0.0,0.0,0.0,0.0,0.0,0.0,0.0,0.0,0.0,0.0,0.0,0.0,0.0,0.0,0.0,0.0,0.0,0.0,0.0,0.0,0.0,0.0,0.0,-3.4481,-3.534,-3.585,0.0,-3.5799,-3.5799,-3.5799,-3.5799,-3.5567,-3.5051,0.0,0.0,0.0,0.0,0.0,0.0,0.0,0.0,0.0,0.0,0.0,0.0,0.0,0.0,0.0,0.0,0.0,0.0,0.0,0.0,0.0,0.0,0.0,0.0,0.0,0.0,0.0,0.0,0.0,0.0,0.0,0.0,0.0,0.0,0.0,0.0,0.0,0.0,0.0,0.0,0.0,0.0,0.0,0.0,0.0,0.0,0.0,0.0,0.0,0.0,0.0,0.0,0.0,0.0,0.0,0.0,0.0,0.0,0.0,0.0,0.0,0.0,0.0,0.0,0.0,0.0,0.0,0.0,0.0,0.0,0.0,0.0,0.0,0.0,0.0,0.0,0.0,0.0,0.0,0.0,0.0,0.0,0.0,0.0,0.0,0.0,0.0,0.0,0.0,0.0,0.0,0.0,0.0,0.0,0.0,0.0,0.0,0.0,0.0,0.0,0.0,0.0,-3.452,-3.532,-3.5818,-3.5838,-3.5818,-3.5818,-3.5818,-3.5818,-3.5827,0.0,0.0,0.0,0.0,0.0,0.0,0.0,0.0,0.0,0.0,0.0,0.0,0.0,0.0,0.0,0.0,0.0,0.0,0.0,0.0,0.0,0.0,0.0,0.0,0.0,0.0,0.0,0.0,0.0,0.0,0.0,0.0,0.0,0.0,0.0,0.0,0.0,0.0,0.0,0.0,0.0,0.0,0.0,0.0,0.0,0.0,0.0,0.0,0.0,0.0,0.0,0.0,0.0,0.0,0.0,0.0,0.0,0.0,0.0,0.0,0.0,0.0,0.0,0.0,0.0,0.0,0.0,0.0,0.0,0.0,0.0,0.0,0.0,0.0,0.0,0.0,0.0,0.0,0.0,0.0,0.0,0.0,0.0,0.0,0.0,0.0,0.0,0.0,0.0,0.0,0.0,0.0,0.0,0.0,0.0,0.0,0.0,0.0,0.0,0.0,0.0,0.0,0.0,-3.6158,-3.6596,-3.6945,-3.7566,-3.7081,-3.6712,-3.6712,-3.6148,-3.5826,-3.5899,0.0,0.0,0.0,0.0,0.0,0.0,0.0,0.0,0.0,0.0,0.0,0.0,0.0,0.0,0.0,0.0,0.0,0.0,0.0,0.0,0.0,0.0,0.0,0.0,0.0,0.0,0.0,0.0,0.0,0.0,0.0,0.0,0.0,0.0,0.0,0.0,0.0,0.0,0.0,0.0,0.0,0.0,0.0,0.0,0.0,0.0,0.0,0.0,0.0,0.0,0.0,0.0,0.0,0.0,0.0,0.0,0.0,0.0,0.0,0.0,0.0,0.0,0.0,0.0,0.0,0.0,0.0,0.0,0.0,0.0,0.0,0.0,0.0,0.0,0.0,0.0,0.0,0.0,0.0,0.0,0.0,0.0,0.0,0.0,0.0,0.0,0.0,0.0,0.0,0.0,0.0,0.0,0.0,0.0,0.0,0.0,0.0,0.0,0.0,0.0,0.0,0.0,-3.695,-3.7424,-3.7791,-3.8343,-3.7935,-3.7625,-3.7625,-3.6828,-3.6336,-3.6376,0.0,0.0,0.0,0.0,0.0,0.0,0.0,0.0,0.0,0.0,0.0,0.0,0.0,0.0,0.0,0.0,0.0,0.0,0.0,0.0,0.0,0.0,0.0,0.0,0.0,0.0,0.0,0.0,0.0,0.0,0.0,0.0,0.0,0.0,0.0,0.0,0.0,0.0,0.0,0.0,0.0,0.0,0.0,0.0,0.0,0.0,0.0,0.0,0.0,0.0,0.0,0.0,0.0,0.0,0.0,0.0,0.0,0.0,0.0,0.0,0.0,0.0,0.0,0.0,0.0,0.0,0.0,0.0,0.0,0.0,0.0,0.0,0.0,0.0,0.0,0.0,0.0,0.0,0.0,0.0,0.0,0.0,0.0,0.0,0.0,0.0,0.0,0.0,0.0,0.0,0.0,0.0,0.0,0.0,0.0,0.0,0.0,0.0,0.0,0.0,0.0,0.0,-3.7176,-3.7972,-3.8471,-3.8615,-3.8557,-3.8518,-3.8518,-3.7722,-3.7222,-3.7215,0.0,0.0,0.0,0.0,0.0,0.0,0.0,0.0,0.0,0.0,0.0,0.0,0.0,0.0,0.0,0.0,0.0,0.0,0.0,0.0,0.0,0.0,0.0,0.0,0.0,0.0,0.0,0.0,0.0,0.0,0.0,0.0,0.0,0.0,0.0,0.0,0.0,0.0,0.0,0.0,0.0,0.0,0.0,0.0,0.0,0.0,0.0,0.0,0.0,0.0,0.0,0.0,0.0,0.0,0.0,0.0,0.0,0.0,0.0,0.0,-3.4429,0.0,0.0,0.0,0.0,0.0,0.0,0.0,0.0,0.0,0.0,0.0,0.0,0.0,0.0,0.0,0.0,0.0,0.0,0.0,0.0,0.0,0.0,0.0,0.0,0.0,0.0,0.0,0.0,0.0,0.0,0.0,0.0,0.0,0.0,0.0,0.0,0.0,0.0,0.0,0.0,0.0,-3.7938,-3.8829,-3.9597,-4.0286,-3.98,-3.9412,-3.9412,-3.8615,-3.8116,-3.8116,-3.7325,0.0,0.0,0.0,0.0,0.0,0.0,0.0,0.0,0.0,0.0,0.0,0.0,0.0,0.0,0.0,0.0,0.0,0.0,0.0,0.0,0.0,0.0,0.0,0.0,0.0,0.0,0.0,0.0,0.0,0.0,0.0,0.0,0.0,0.0,0.0,0.0,0.0,0.0,0.0,0.0,0.0,0.0,0.0,0.0,0.0,0.0,0.0,0.0,0.0,0.0,0.0,0.0,0.0,0.0,0.0,0.0,0.0,0.0,0.0,0.0,-3.4597,0.0,0.0,0.0,0.0,0.0,0.0,0.0,0.0,0.0,0.0,0.0,0.0,0.0,0.0,0.0,0.0,0.0,0.0,0.0,0.0,0.0,0.0,0.0,0.0,0.0,0.0,0.0,0.0,0.0,0.0,0.0,0.0,0.0,0.0,0.0,0.0,0.0,0.0,0.0,0.0,-3.8283,-3.9432,-4.0363,-4.084,-4.0539,-4.0286,-4.0286,-3.9509,-3.9013,-3.9019,-3.8221,0.0,0.0,0.0,0.0,0.0,0.0,0.0,0.0,0.0,0.0,0.0,0.0,0.0,0.0,0.0,0.0,0.0,0.0,0.0,0.0,0.0,0.0,0.0,0.0,0.0,0.0,0.0,0.0,0.0,0.0,0.0,0.0,0.0,0.0,0.0,0.0,0.0,0.0,0.0,0.0,0.0,0.0,0.0,0.0,0.0,0.0,0.0,0.0,0.0,0.0,0.0,0.0,0.0,0.0,0.0,-3.6907,-3.7519,-3.7851,-3.7924,-3.7205,-3.7049,-3.7184,0.0,0.0,0.0,0.0,0.0,0.0,0.0,0.0,0.0,0.0,0.0,0.0,0.0,0.0,0.0,0.0,0.0,0.0,0.0,0.0,0.0,0.0,0.0,0.0,0.0,-3.7041,-3.7459,0.0,0.0,0.0,0.0,0.0,0.0,0.0,0.0,0.0,0.0,0.0,0.0,-3.8578,-3.9896,-4.0823,-4.0867,-4.0877,-4.0898,-4.0898,-4.0286,-3.9917,-3.9917,-3.9096,-3.7946,0.0,0.0,0.0,0.0,0.0,0.0,0.0,0.0,0.0,0.0,0.0,0.0,0.0,0.0,0.0,0.0,0.0,0.0,0.0,0.0,0.0,0.0,0.0,0.0,0.0,0.0,0.0,0.0,0.0,0.0,0.0,0.0,-3.332,-3.4075,0.0,0.0,0.0,0.0,0.0,0.0,0.0,0.0,0.0,0.0,0.0,0.0,0.0,0.0,-3.7283,-3.794,-3.8639,-3.9381,-4.0098,-4.043,-4.0435,-4.0533,-4.0574,-4.0599,-4.0479,0.0,-3.7279,-3.7044,0.0,0.0,0.0,0.0,0.0,0.0,0.0,0.0,0.0,0.0,0.0,0.0,0.0,0.0,0.0,0.0,0.0,0.0,0.0,0.0,0.0,0.0,-3.8992,-3.8992,-3.9661,-4.028,0.0,-3.7799,-3.5843,-3.6311,0.0,0.0,0.0,0.0,0.0,0.0,0.0,0.0,-3.9344,-4.0242,-4.0792,-4.0807,-4.0867,-4.0907,-4.0907,-4.0791,-4.0733,-4.0733,-3.9975,-3.9088,-3.8109,-3.6676,0.0,0.0,0.0,0.0,0.0,0.0,0.0,0.0,0.0,0.0,0.0,0.0,0.0,0.0,0.0,0.0,0.0,0.0,0.0,0.0,0.0,0.0,0.0,0.0,0.0,0.0,0.0,0.0,0.0,-3.3037,-3.3587,-3.4447,-3.3912,-3.3583,0.0,0.0,0.0,0.0,0.0,0.0,0.0,0.0,0.0,-3.7436,-3.7942,-3.8584,-3.9422,-3.9808,-4.0196,-4.0586,-4.0935,-4.1091,-4.1094,-4.1091,-4.1094,-4.1099,-4.1094,-4.0469,-3.9398,-3.8912,-3.8478,-3.8082,0.0,0.0,0.0,0.0,0.0,-3.7468,-3.7917,0.0,0.0,0.0,0.0,0.0,0.0,0.0,0.0,0.0,0.0,0.0,0.0,0.0,0.0,-4.0069,-4.0488,-4.079,-4.079,-3.9615,-3.8512,0.0,-3.788,-3.7397,-3.6945,0.0,0.0,0.0,0.0,0.0,-3.9486,-4.0277,-4.0792,-4.0807,-4.0867,-4.0907,-4.0908,-4.0898,-4.0907,-4.0907,-4.0577,-3.979,-3.8447,-3.7218,-3.5795,0.0,0.0,0.0,0.0,0.0,0.0,0.0,0.0,0.0,0.0,0.0,0.0,0.0,0.0,0.0,0.0,0.0,0.0,0.0,0.0,0.0,0.0,0.0,0.0,0.0,0.0,0.0,0.0,-3.3853,-3.4589,-3.5446,-3.5388,-3.5194,0.0,0.0,0.0,0.0,0.0,0.0,-3.7003,-3.7788,-3.8549,-3.922,-3.9864,-4.0606,-4.142,-4.142,-4.1537,-4.1771,-4.1771,-4.1771,-4.1771,-4.1771,-4.1771,-4.1752,-4.1537,-4.142,-4.1361,-4.0486,-4.0132,-4.0067,-3.9415,-3.9162,0.0,-3.9162,-3.9178,-3.9256,-3.9858,-4.0051,-4.0039,-4.0045,0.0,-3.9461,-3.8763,0.0,0.0,0.0,0.0,-3.8546,-3.948,0.0,-3.9868,-4.0532,-4.0746,-4.0778,-4.079,-4.0616,-4.0326,0.0,-3.9232,-3.8537,-3.7711,0.0,0.0,0.0,0.0,-3.958,-3.9801,-4.0401,-4.08,-4.0804,-4.0837,-4.0868,-4.0869,-4.0878,-4.0907,-4.0907,-4.0907,-4.015,-3.846,-3.7786,-3.6552,-3.4633,0.0,0.0,0.0,0.0,0.0,0.0,0.0,0.0,0.0,0.0,0.0,0.0,0.0,0.0,0.0,0.0,0.0,0.0,0.0,0.0,0.0,0.0,0.0,0.0,0.0,0.0,0.0,0.0,0.0,-3.8022,-3.7506,0.0,0.0,0.0,0.0,-3.8334,-3.914,-3.9648,-3.9693,-4.041,-4.0859,-4.0974,-4.1013,-4.1459,-4.2337,-4.2337,-4.2747,-4.3567,-4.3567,-4.3567,-4.3567,-4.3567,-4.3567,-4.3528,-4.2689,-4.2337,-4.2279,-4.1381,-4.1035,-4.1038,-4.0999,-4.0965,-4.0969,-4.0962,-4.096,-4.098,-4.101,-4.0983,-4.0941,-4.1016,-4.0382,-3.9558,-3.9315,-3.8657,0.0,0.0,-3.923,-3.9451,-4.0318,-4.054,-4.0563,-4.0668,-4.07,-4.0713,-4.079,-4.0152,-3.9728,0.0,-4.0408,-4.0119,-3.9238,0.0,-3.9204,-3.9359,-3.9453,-3.9801,-4.0629,-4.0784,-4.0803,-4.0803,-4.0792,-4.0807,-4.0807,-4.0859,-4.0907,-4.0907,-4.0907,-4.015,-3.846,-3.8372,-3.7156,-3.4644,-3.4549,0.0,0.0,0.0,0.0,0.0,0.0,0.0,0.0,0.0,0.0,0.0,0.0,0.0,0.0,0.0,0.0,0.0,0.0,0.0,0.0,0.0,0.0,0.0,0.0,0.0,0.0,0.0,0.0,-3.8385,-3.8651,0.0,0.0,-3.8982,-3.9071,-3.9344,-4.0168,-4.0656,-4.0665,-4.1453,-4.1902,-4.1947,-4.2474,-4.2923,-4.3235,-4.3235,-4.3391,-4.3704,-4.3704,-4.3704,-4.3704,-4.3704,-4.3704,-4.3684,-4.3372,-4.3235,-4.3216,-4.2903,-4.2106,-4.1094,-4.1094,-4.1094,-4.1097,-4.1094,-4.1094,-4.1091,-4.1091,-4.1081,-4.1042,-4.0948,-4.0649,-4.0325,-4.013,-3.9854,-3.9662,-3.9969,-4.0062,-4.0154,-4.0462,-4.0569,-4.0617,-4.0631,-4.066,-4.07,-4.0733,-4.0526,-4.041,-4.0648,-4.0243,-3.976,-3.9445,-3.985,-4.0056,-3.9576,-3.9983,-4.0455,-4.0752,-4.0796,-4.0808,-4.0808,-4.0834,-4.0848,-4.0848,-4.0888,-4.0907,-4.0907,-4.0907,-4.015,-3.846,-3.8402,-3.7458,-3.5418,-3.5376,-3.4957,0.0,0.0,0.0,0.0,0.0,0.0,0.0,0.0,0.0,0.0,0.0,0.0,0.0,0.0,0.0,0.0,0.0,0.0,0.0,0.0,0.0,0.0,0.0,0.0,0.0,0.0,-3.8877,-3.8908,-3.9654,-3.9974,-3.9452,-3.9951,-4.0411,-4.0665,-4.1208,-4.1674,-4.1967,-4.2513,-4.2845,-4.2845,-4.3391,-4.384,-4.4133,-4.4133,-4.4289,-4.4582,-4.4582,-4.4582,-4.4582,-4.4582,-4.4582,-4.4563,-4.427,-4.4133,-4.4114,-4.3821,-4.3021,-4.1947,-4.1654,-4.1361,-4.1108,-4.1108,-4.1108,-4.1108,-4.1108,-4.1108,-4.1078,-4.0871,-4.081,-4.0752,-4.0554,-4.0489,-4.0489,-4.0489,-4.0489,-4.0489,-4.0489,-4.0539,-4.0573,-4.0588,-4.0631,-4.0668,-4.07,-4.0746,-4.079,-4.079,-4.0326,-3.9932,-3.9925,-4.0416,-4.0493,-3.9627,-4.0242,-4.0694,-4.0404,-4.0622,-4.0808,-4.0808,-4.0834,-4.0867,-4.0867,-4.0636,-4.0616,-4.0888,-4.0655,-3.9878,-3.846,-3.8402,-3.7586,-3.5838,-3.5799,-3.5395,-3.4594,0.0,0.0,0.0,0.0,0.0,0.0,0.0,0.0,0.0,0.0,0.0,0.0,0.0,0.0,0.0,0.0,0.0,0.0,0.0,0.0,0.0,0.0,0.0,-3.7354,-3.8729,-3.9822,-3.979,-4.0583,-4.1132,-4.1093,-4.1146,-4.1537,-4.2376,-4.2435,-4.2806,-4.3645,-4.3723,-4.3743,-4.3743,-4.3762,-4.4192,-4.5031,-4.5051,-4.546,-4.63,-4.63,-4.63,-4.63,-4.63,-4.63,-4.6241,-4.5402,-4.5051,-4.4972,-4.4133,-4.3762,-4.3645,-4.2786,-4.1908,-4.1147,-4.1147,-4.1127,-4.1108,-4.1108,-4.1108,-4.1078,-4.0871,-4.081,-4.0752,-4.0554,-4.0489,-4.0489,-4.0489,-4.0489,-4.0489,-4.0489,-4.0489,-4.0523,-4.0573,-4.0598,-4.0621,-4.0687,-4.0746,-4.079,-4.079,-4.079,-4.079,-4.079,-4.079,-4.05,-3.9681,-4.0249,0.0,-3.9661,-4.028,-4.079,-4.079,-4.0792,-4.0807,-4.0807,-4.016,-4.0072,-4.0849,-4.015,-3.9315,-3.8441,-3.8363,-3.7547,-3.5838,-3.5799,-3.5414,-3.4633,0.0,0.0,0.0,0.0,0.0,0.0,0.0,0.0,0.0,0.0,0.0,0.0,0.0,0.0,0.0,0.0,0.0,0.0,0.0,0.0,0.0,0.0,-3.9142,-3.8266,-3.9647,-4.0977,-4.1581,-4.1894,-4.2281,-4.29,-4.2968,-4.3079,-4.3313,-4.3333,-4.345,-4.3684,-4.4309,-4.4641,-4.4641,-4.5265,-4.5695,-4.5948,-4.5948,-4.6066,-4.63,-4.63,-4.63,-4.63,-4.63,-4.63,-4.628,-4.6046,-4.5948,-4.5929,-4.5675,-4.5207,-4.4563,-4.3684,-4.2806,-4.2045,-4.2045,-4.1635,-4.1108,-4.1108,-4.1108,-4.1078,-4.0871,-4.081,-4.0752,-4.0554,-4.0489,-4.0489,-4.0489,-4.0489,-4.0489,-4.0489,-4.0489,-4.0523,-4.0573,-4.0598,-4.0621,-4.0687,-4.0746,-4.079,-4.079,-4.079,-4.079,-4.079,-4.079,-4.0713,-4.0481,0.0,0.0,-4.0462,-4.066,-4.0796,-4.0803,-4.0854,-4.0848,-4.0807,-4.0665,-4.0655,0.0,-4.015,-3.9315,-3.8441,-3.778,-3.6925,-3.5818,-3.5788,-3.5721,0.0,0.0,0.0,0.0,0.0,0.0,0.0,0.0,0.0,0.0,0.0,0.0,0.0,0.0,0.0,0.0,0.0,0.0,0.0,0.0,0.0,0.0,-3.9741,-4.0717,-4.0212,-4.1006,-4.1826,-4.2343,-4.2729,-4.3132,-4.3648,-4.3704,-4.384,-4.4211,-4.4231,-4.4406,-4.4777,-4.5265,-4.5539,-4.5539,-4.6046,-4.63,-4.63,-4.63,-4.63,-4.63,-4.63,-4.63,-4.63,-4.63,-4.63,0.0,-4.63,-4.63,-4.63,-4.63,-4.6007,0.0,0.0,0.0,0.0,0.0,-4.2084,-4.1596,-4.1225,-4.1108,-4.1081,-4.0928,-4.0837,-4.0781,-4.0623,-4.0549,-4.0489,-4.0489,-4.0489,-4.0489,-4.0489,-4.0489,-4.0504,-4.0539,-4.0583,-4.0612,-4.0654,-4.0713,-4.0778,-4.079,0.0,0.0,-4.079,-4.079,-4.0674,-4.0307,-4.0558,-4.0674,0.0,-4.0583,-4.0796,-4.0796,-4.0834,-4.0848,-4.0848,-4.0568,0.0,0.0,0.0,-3.8751,-3.7897,-3.7023,0.0,0.0,0.0,-3.5823,0.0,0.0,0.0,0.0,-3.4241,-3.4081,0.0,0.0,0.0,0.0,0.0,0.0,0.0,0.0,0.0,0.0,0.0,0.0,0.0,0.0,0.0,0.0,-4.1328,-4.2424,-4.2539,-4.2636,-4.2694,-4.2693,-4.3383,-4.3879,-4.3977,-4.3997,-4.4309,-4.509,-4.5246,-4.5636,-4.6417,0.0,0.0,0.0,0.0,-4.6573,-4.6573,-4.6573,-4.6573,-4.6573,-4.6573,-4.6573,-4.6573,-4.6573,-4.6573,-4.6573,-4.6495,-4.6456,-4.6436,-4.6339,-4.63,-4.6202,-4.5343,-4.4524,-4.3743,-4.2864,-4.2552,0.0,0.0,0.0,0.0,-4.105,-4.0926,-4.0801,-4.0723,-4.0615,-4.0519,-4.0504,-4.0489,-4.0489,-4.0489,-4.0489,-4.0504,-4.0504,-4.0573,-4.0603,-4.0607,-4.0668,-4.0733,-4.079,-4.079,-4.079,-4.079,-4.079,-4.0539,-3.9758,-4.0288,0.0,-3.9758,-4.0319,-4.0796,-4.08,0.0,0.0,-4.0877,-4.0248,-4.0111,-4.0733,-3.9179,-3.7858,-3.6984,-3.6207,-3.5799,-3.5799,-3.5799,-3.5799,-3.5799,-3.5799,-3.5838,-3.585,-3.4369,-3.4105,0.0,0.0,0.0,0.0,0.0,0.0,0.0,0.0,0.0,0.0,0.0,0.0,0.0,0.0,0.0,-4.0578,-4.1719,-4.2659,-4.3359,-4.4042,-4.4508,-4.4494,-4.4644,-4.5012,-4.5734,-4.5792,-4.587,-4.6046,-4.671,-4.7178,-4.7334,-4.7959,0.0,-4.831,-4.831,-4.831,-4.831,-4.831,-4.831,-4.831,0.0,0.0,-4.831,-4.831,-4.831,-4.8271,-4.7627,-4.7354,-4.7295,-4.6593,-4.63,-4.6202,-4.5343,-4.4894,-4.4641,-4.3762,-4.345,-4.3313,-4.2454,-4.2142,-4.2018,-4.1245,-4.0981,-4.0926,-4.0746,-4.0681,0.0,-4.0534,-4.0489,-4.0489,-4.0489,-4.0489,-4.0504,-4.0573,-4.0583,-4.0607,-4.0668,-4.0733,-4.079,-4.079,-4.079,-4.079,-4.079,-4.079,-4.0732,-4.0558,-4.0694,-4.0732,-4.0558,-4.0703,-4.0804,-4.08,-4.0848,-4.0888,-4.0907,-4.0752,-4.0461,-3.9956,-3.8305,-3.6964,-3.609,-3.5896,-3.5799,-3.5799,-3.5799,-3.5799,-3.5799,-3.5799,-3.5838,-3.5889,-3.5563,-3.5533,0.0,0.0,0.0,0.0,0.0,0.0,0.0,0.0,0.0,0.0,0.0,-3.6855,0.0,0.0,-4.0238,-4.1537,-4.2846,-4.3847,-4.4288,-4.5475,-4.598,-4.5109,-4.5773,-4.6475,-4.6905,-4.7315,-4.7549,-4.7549,-4.7959,-4.8193,-4.8193,-4.8584,-4.8798,-4.8798,-4.8798,-4.8798,-4.8798,-4.8798,-4.8798,-4.8798,-4.8798,-4.8798,-4.8798,-4.8798,-4.8798,-4.8779,-4.8388,-4.8193,-4.8135,-4.7295,-4.6944,-4.6866,-4.5987,-4.5656,-4.5539,-4.468,-4.4348,-4.4231,-4.3352,-4.2767,-4.2315,-4.1846,-4.1387,-4.0974,-4.0801,-4.0723,-4.0668,-4.0534,-4.0489,-4.0489,-4.0489,-4.0489,-4.0523,-4.0573,-4.0603,-4.0612,-4.0687,-4.0733,-4.0759,-4.079,-4.079,-4.079,-4.079,-4.079,-4.079,-4.079,-4.079,-4.079,-4.079,-4.0808,-4.0812,-4.0804,-4.0828,-4.0859,-4.0908,-4.0529,-3.9936,-3.9101,-3.7819,-3.6712,-3.5838,-3.5799,-3.5799,-3.5799,-3.5799,-3.5799,-3.5799,-3.5799,-3.583,-3.5905,-3.5903,-3.5938,0.0,0.0,0.0,0.0,0.0,0.0,0.0,0.0,-3.7542,-3.7015,-3.7477,-3.8224,-3.9091,-4.0413,-4.1694,-4.2732,-4.4082,-4.511,-4.5464,-4.671,-4.7139,-4.589,-4.6983,-4.7822,-4.7822,-4.8427,-4.8798,-4.8798,-4.8954,-4.9052,-4.9052,-4.9208,-4.9306,-4.9306,-4.9306,-4.9306,-4.9306,-4.9306,-4.9306,-4.9306,-4.9306,-4.9306,-4.9306,-4.9306,-4.9306,-4.9306,-4.913,-4.8954,-4.8759,-4.8096,-4.7744,-4.753,-4.6827,-4.6456,-4.6202,-4.5519,-4.5246,-4.5129,-4.425,-4.3489,-4.2845,-4.2513,-4.1885,-4.1208,-4.0904,-4.077,-4.0687,-4.0549,-4.0489,-4.0489,-4.0489,-4.0489,-4.0523,-4.0573,-4.0588,-4.0617,-4.0687,-4.07,-4.0733,-4.079,-4.079,-4.079,-4.079,-4.079,-4.079,-4.079,-4.079,-4.079,-4.079,-4.0803,-4.0808,-4.0807,-4.0818,-4.0839,-4.0907,-4.0169,-3.9334,-3.846,-3.7586,-3.6712,-3.5838,-3.5799,-3.5799,-3.5799,-3.5799,-3.5799,-3.5799,-3.5799,-3.5842,-3.5905,-3.5885,-3.5924,-3.6093,-3.6625,-3.7522,-3.8128,-3.8377,-3.8844,0.0,0.0,-3.9702,-4.0382,-4.0608,-4.0922,-4.18,-4.2114,-4.279,-4.4433,-4.4861,-4.554,-4.7084,-4.749,-4.7783,-4.831,-4.8545,-4.8662,-4.8662,-4.8759,-4.8798,-4.8798,-4.952,-4.995,-4.995,-5.0692,-5.1102,-5.1102,-5.1102,-5.1102,-5.1102,-5.1102,-5.1102,-5.1102,-5.1102,-5.1102,-5.1102,-5.1102,-5.1102,-5.1063,-5.0282,-4.952,-4.8798,-4.8701,-4.8232,-4.7588,-4.749,-4.6983,-4.628,-4.6183,-4.6144,-4.6027,-4.5168,-4.4797,-4.4445,-4.2903,-4.2334,-4.2061,-4.1096,-4.0781,-4.0751,-4.054,-4.0489,-4.0489,-4.0489,-4.0489,-4.0523,-4.0573,-4.0598,-4.0621,-4.0687,-4.0746,-4.079,-4.079,-4.079,-4.079,-4.079,-4.079,-4.079,-4.079,-4.079,-4.079,-4.079,-4.0796,-4.0812,-4.0807,-4.0848,-4.0888,-4.0907,-4.0169,-3.9334,-3.846,-3.7586,-3.6712,-3.5838,-3.5799,-3.5799,-3.5799,-3.5799,-3.5799,-3.5799,-3.5799,-3.5842,-3.5898,-3.585,-3.5853,-3.7762,-3.7942,-3.8263,0.0,-3.9807,-4.0117,-4.0722,-4.0649,-4.0611,-4.1026,-4.1501,-4.1976,-4.2331,-4.3236,-4.414,0.0,-4.5421,-4.6192,-4.7432,-4.7998,-4.8603,-4.9462,-5.0008,-5.0106,-4.9618,-5.0028,-5.0301,-5.0301,-5.0653,-5.0867,-5.0867,-5.1199,-5.1394,-5.1394,-5.1394,-5.1394,-5.1394,-5.1394,-5.1394,-5.1394,-5.1394,-5.1394,-5.1394,-5.1394,-5.1394,-5.1375,-5.1004,-5.0653,-5.0262,-4.9774,-4.9052,-4.8252,-4.7783,-4.7061,-4.63,-4.63,-4.63,-4.6241,-4.587,-4.5421,-4.4875,-4.4153,-4.3235,-4.2307,-4.1818,-4.1263,-4.0762,-4.0642,-4.0593,-4.0558,-4.0558,-4.0558,-4.0573,-4.0588,-4.0598,-4.0621,-4.0687,-4.0746,-4.079,-4.079,-4.079,-4.079,-4.079,-4.079,-4.079,-4.079,-4.079,-4.079,-4.079,-4.0803,-4.0788,-4.0807,-4.0868,-4.0898,-4.0907,-4.0169,-3.9334,-3.846,-3.7586,-3.6712,-3.5838,-3.5799,-3.5799,-3.5799,-3.5799,-3.5799,-3.5799,-3.5799,-3.5807,-3.5842,-3.585,-3.5859,-3.8509,-3.8782,0.0,-4.0121,-4.0713,-4.1003,-4.0896,-4.096,-4.1038,-4.1085,-4.1783,-4.2477,-4.2711,-4.3984,-4.5071,-4.5325,-4.588,-4.6671,-4.7783,-4.8427,-4.9208,-5.034,-5.1023,-5.116,-5.0516,-5.1023,-5.1394,-5.1394,-5.1394,-5.1394,-5.1394,-5.1394,-5.1394,-5.1394,-5.1394,-5.1394,-5.1394,-5.1394,-5.1394,-5.1394,-5.1394,-5.1394,-5.1394,-5.1394,-5.1394,-5.1394,-5.1394,-5.1394,-5.1355,-5.0711,-4.9794,-4.874,-4.8154,-4.7256,-4.63,-4.63,-4.63,-4.63,-4.63,-4.589,-4.5324,-4.509,-4.3977,-4.2701,-4.2382,-4.1607,-4.0791,-4.0726,-4.0642,-4.0607,-4.0603,-4.0603,-4.0603,-4.0617,-4.0626,-4.0654,-4.0713,-4.0778,-4.079,-4.079,-4.079,-4.079,-4.079,-4.079,-4.079,-4.079,-4.079,-4.079,-4.079,-4.0796,-4.08,-4.0807,-4.0859,-4.0907,-4.0907,-4.0364,-3.9664,-3.881,-3.7935,-3.7061,-3.6187,-3.5935,-3.5799,-3.5799,-3.5799,-3.5799,-3.5799,-3.5799,-3.5799,-3.5799,-3.585,-3.5872,-3.7331,-3.8497,-3.9689,-3.9792,-4.0474,-4.1104,-4.1085,-4.1085,-4.111,-4.111,-4.18,-4.265,-4.3491,-4.4391,-4.5285,-4.6124,-4.628,-4.6885,-4.8525,-4.8779,-4.9442,-5.116,-5.1375,-5.1394,0.0,-5.1375,-5.1394,-5.1394,-5.1394,-5.1394,-5.1394,-5.1394,-5.1394,-5.1394,-5.1394,-5.1394,-5.1394,-5.1394,-5.1394,-5.1394,-5.1394,-5.1394,-5.1394,-5.1394,-5.1394,-5.1394,-5.1394,-5.1394,-5.1394,-5.1375,-5.034,-4.8798,-4.8779,-4.7744,-4.63,-4.63,-4.63,-4.63,-4.63,-4.628,-4.6124,-4.5265,-4.4387,-4.3482,-4.2577,-4.1607,-4.0791,-4.0726,-4.0642,-4.0603,-4.0593,-4.0588,-4.0621,-4.0687,-4.07,-4.0733,-4.079,-4.079,-4.079,-4.079,-4.079,-4.079,-4.079,-4.079,-4.079,-4.079,-4.079,-4.079,-4.079,-4.0812,-4.0807,-4.0807,-4.0859,-4.0907,-4.0907,-4.0888,-4.0519,-3.9703,-3.8829,-3.7974,-3.71,-3.6246,-3.5799,-3.5799,-3.5799,-3.5799,-3.5799,-3.5799,-3.5799,-3.5799,-3.5799,-3.5842,-3.8589,-3.9318,-3.9908,-4.0513,-4.0877,-4.111,-4.111,-4.111,-4.111,-4.111,-4.1335,-4.1794,-4.2674,-4.3548,-4.4419,-4.5297,-4.5925,-4.6885,-4.8564,-4.8798,-4.9442,-5.1199,-5.1394,0.0,0.0,0.0,0.0,-5.1394,-5.1394,-5.1394,-5.1394,-5.1394,-5.1394,-5.1394,-5.1394,-5.1394,-5.1394,-5.1394,-5.1394,-5.1394,-5.1394,-5.1394,-5.1394,-5.1394,-5.1394,-5.1394,-5.1394,-5.1394,-5.1355,-5.0789,-4.9852,-4.8759,-4.8213,-4.7315,-4.63,-4.63,-4.63,-4.63,-4.63,-4.63,-4.6241,-4.5968,-4.4875,-4.3645,-4.3318,-4.2142,-4.0926,-4.0857,-4.0779,-4.0713,-4.0681,-4.0668,-4.0654,-4.0635,-4.0668,-4.07,-4.0733,-4.0778,-4.079,-4.079,-4.079,-4.079,-4.079,-4.079,-4.079,-4.079,-4.079,-4.079,-4.079,-4.0792,-4.0807,-4.0807,-4.0859,-4.0907,-4.0907,-4.0907,-4.0558,-3.9761,-3.9431,-3.8615,-3.7159,-3.6828,-3.6401,-3.5818,-3.5799,-3.5799,-3.5799,-3.5799,-3.5799,-3.5799,-3.5799,-3.5807,-3.9429,-3.9974,-4.0364,-4.0955,-4.111,-4.111,-4.111,-4.111,-4.111,-4.111,-4.1101,-4.1267,-4.1834,-4.2904,-4.3876,-4.4449,-4.5528,-4.6898,-4.8557,-4.8792,-4.9453,-5.118,-5.1394,-5.1394,0.0,0.0,0.0,-5.1394,-5.1394,-5.1394,-5.1394,-5.1394,-5.1394,-5.1394,-5.1394,-5.1394,-5.1394,-5.1394,-5.1394,-5.1394,-5.1394,-5.1394,-5.1394,-5.1394,-5.1394,-5.1394,-5.1394,-5.1219,-5.0887,-5.034,-4.9423,-4.833,-4.7803,-4.7061,-4.63,-4.63,-4.63,-4.63,-4.63,-4.63,-4.63,-4.63,-4.5129,-4.3704,-4.3704,-4.2446,-4.0987,-4.0926,-4.0849,-4.0784,-4.0739,-4.0733,-4.0713,-4.0681,-4.07,-4.0733,-4.0733,-4.0778,-4.079,-4.079,-4.079,-4.079,-4.079,-4.079,-4.079,-4.079,-4.079,-4.079,-4.079,-4.08,-4.0796,-4.0807,-4.0868,-4.0898,-4.0907,-4.0907,-4.0674,-4.0169,-3.9858,-3.9062,-3.7625,-3.7275,-3.6692,-3.5818,-3.5799,-3.5799,-3.5799,-3.5799,-3.5799,-3.5799,-3.5799,-3.5799,-3.9825,-4.0448,-4.1062,-4.1078,-4.113,-4.1149,-4.111,-4.111,-4.111,-4.111,-4.1039,-4.0991,0.0,0.0,-4.3534,-4.3686,-4.5134,-4.6833,-4.8552,-4.8806,-4.9445,0.0,0.0,0.0,0.0,0.0,0.0,-5.1394,0.0,-5.1394,-5.1394,-5.1394,-5.1394,-5.1394,-5.1394,-5.1394,-5.1394,-5.1394,-5.1394,-5.1394,-5.1394,-5.1394,-5.1394,-5.1394,-5.1394,-5.1394,-5.1394,-5.0906,-5.0106,-5.0048,-4.9072,-4.7608,-4.7549,-4.7022,-4.63,-4.63,-4.63,-4.63,-4.63,-4.63,-4.63,-4.63,-4.5129,-4.3704,-4.3704,-4.2446,-4.0987,-4.0926,-4.0858,-4.0807,-4.0796,-4.079,-4.079,-4.079,-4.079,-4.079,-4.079,-4.079,-4.079,-4.079,-4.079,-4.079,-4.079,-4.079,-4.079,-4.079,-4.079,-4.079,-4.079,-4.0796,-4.0812,-4.0807,-4.0867,-4.0898,-4.0907,-4.0907,-4.0907,-4.0907,-4.0189,-3.9373,-3.8499,-3.7625,-3.677,-3.5877,-3.5818,-3.5799,-3.5799,-3.5799,-3.5799,-3.5799,-3.5799,-3.5799,-4.0519,-4.1317,-4.1838,-4.124,-4.1559,-4.1851,-4.1247,-4.111,-4.111,-4.111,-4.0063,-3.9564,0.0,0.0,0.0,-4.337,-4.4616,0.0,-4.8476,-4.8808,0.0,-5.118,0.0,-5.1394,-5.1394,-5.1394,0.0,0.0,-5.1394,-5.1394,-5.1394,-5.1394,-5.1394,-5.1394,-5.1394,-5.1394,-5.1394,-5.1394,-5.1394,-5.1394,-5.1394,-5.1394,-5.1394,-5.1394,-5.1394,-5.1394,-5.1394,-5.0906,-5.0048,-4.9403,-4.8525,-4.7549,-4.6885,-4.6495,-4.63,-4.63,-4.63,-4.63,-4.63,-4.63,-4.63,-4.63,-4.5129,-4.3704,-4.3704,-4.2467,-4.1042,-4.0928,-4.0882,-4.0858,-4.082,-4.079,-4.079,-4.079,-4.079,-4.079,-4.079,-4.079,-4.079,-4.079,-4.079,-4.079,-4.079,-4.079,-4.079,-4.079,-4.079,-4.079,-4.079,-4.0796,-4.08,-4.0812,-4.0856,-4.0907,-4.0898,-4.0898,-4.0907,-4.0907,-4.0713,-4.0228,-3.9392,-3.8538,-3.7664,-3.6789,-3.6129,-3.5799,-3.5799,-3.5799,-3.5799,-3.5799,-3.5799,-3.5799,-4.1337,-4.1928,-4.2202,-4.1734,-4.1968,-4.1994,-4.0808,-4.0521,-4.0428,-4.0032,-3.8875,-3.8358,-3.9717,-3.9861,0.0,0.0,0.0,0.0,-4.7916,-4.856,-4.9299,0.0,-5.118,0.0,-5.1394,-5.1394,-5.1394,0.0,-5.1394,-5.1394,-5.1394,-5.1394,-5.1394,-5.1394,-5.1406,-5.1391,-5.1361,-5.1361,-5.1361,-5.1361,-5.1361,-5.1361,-5.1361,-5.1391,-5.1396,-5.1381,0.0,-5.034,-4.9462,-4.8623,-4.7783,-4.6983,-4.6495,-4.63,-4.63,-4.63,-4.63,-4.63,-4.63,-4.63,-4.6241,-4.5851,-4.4816,-4.3626,-4.3255,-4.2181,-4.1078,-4.0928,-4.0898,-4.0885,-4.082,-4.079,-4.079,-4.079,-4.079,-4.079,-4.079,-4.079,-4.079,-4.079,-4.079,-4.079,-4.079,-4.079,-4.079,-4.079,-4.079,-4.079,-4.079,-4.0803,-4.0808,-4.08,-4.0823,-4.0876,-4.0897,-4.0898,-4.0898,-4.0907,-4.0907,-4.0538,-3.9742,-3.8868,-3.7994,-3.712,-3.6246,-3.5799,-3.5799,-3.5799,-3.5799,-3.5799,-3.5799,-3.5799,-4.2071,-4.2299,-4.2299,-4.2299,-4.2299,-4.1863,-4.0176,-3.9797,-3.9549,-3.8685,-3.7812,-3.7499,-3.8493,-3.9197,-4.0244,-4.2108,0.0,-4.5428,-4.7106,-4.8179,-4.9112,-5.0005,-5.0863,-5.1394,-5.141,-5.1394,-5.1394,-5.1394,-5.1394,-5.1394,-5.1394,-5.139,-5.141,-5.1386,-5.138,-5.1356,-5.13,-5.13,-5.13,-5.13,-5.13,-5.13,-5.13,-5.1356,-5.133,-5.1174,0.0,0.0,-4.8556,-4.7873,-4.7077,-4.6296,-4.6296,-4.63,-4.63,-4.63,-4.63,-4.63,-4.63,-4.63,-4.6163,-4.5285,-4.4406,-4.3548,-4.2669,-4.1791,-4.1078,-4.0948,-4.0898,-4.0885,-4.082,-4.079,-4.079,-4.079,-4.079,-4.079,-4.079,-4.079,-4.079,-4.079,-4.079,-4.079,-4.079,-4.079,-4.079,-4.079,-4.079,-4.079,-4.079,-4.079,-4.0803,-4.0808,-4.08,-4.0823,-4.0877,-4.0888,-4.0898,-4.0907,-4.0907,-4.0597,-3.9897,-3.9023,-3.8149,-3.7294,-3.642,-3.5915,-3.5799,-3.5799,-3.5799,-3.5799,-3.5799,-3.5799,-4.2078,-4.2299,-4.2299,-4.2299,-4.2299,-4.1863,-4.0188,-3.979,0.0,-3.8685,-3.7812,-3.7695,-3.9281,-3.912,-3.953,-4.2008,-4.3262,-4.4526,-4.6251,-4.7829,-4.913,0.0,-5.0874,-5.1406,-5.1405,-5.1401,0.0,0.0,0.0,0.0,-5.1394,-5.1396,-5.1369,-5.1323,-5.1316,-5.1308,-5.13,-5.13,-5.13,-5.13,-5.13,-5.13,-5.13,-5.1308,-5.0918,-5.0244,0.0,0.0,-4.7639,-4.7546,-4.6991,-4.6216,-4.6216,-4.6245,-4.63,-4.63,-4.63,-4.63,-4.63,-4.63,-4.6163,-4.5285,-4.4406,-4.3548,-4.2669,-4.1791,-4.1078,-4.0933,-4.0902,-4.0866,-4.0745,-4.0746,-4.079,-4.079,-4.079,-4.079,-4.079,-4.079,-4.079,-4.079,-4.079,-4.079,-4.079,-4.079,-4.079,-4.079,-4.079,-4.079,-4.079,-4.079,-4.0803,-4.0803,-4.0812,-4.0807,-4.0818,-4.0878,-4.0898,-4.0907,-4.0907,-4.0849,-4.0694,-3.9917,-3.9062,-3.8188,-3.7314,-3.6518,-3.5799,-3.5799,-3.5799,-3.5799,-3.5799,-3.5799,-4.2085,-4.2299,-4.2299,-4.2299,-4.2299,-4.1733,-3.9608,0.0,0.0,-3.7416,-3.6819,-3.6921,-3.8202,-3.8123,0.0,-4.1308,-4.2068,-4.3112,-4.5304,-4.6683,-4.7938,-4.9268,-5.0196,-5.0903,0.0,0.0,0.0,0.0,0.0,0.0,-5.1396,-5.1369,-5.1308,-5.1248,-5.1248,-5.1249,-5.1249,-5.1249,-5.1249,-5.1249,-5.1249,-5.1249,-5.123,-5.0791,-5.0333,-4.9904,0.0,0.0,-4.7365,-4.6976,-4.6585,-4.6206,-4.6206,-4.624,-4.63,-4.63,-4.63,-4.63,-4.63,-4.63,-4.6085,-4.4758,-4.4036,-4.345,-4.2123,-4.142,-4.1081,-4.0986,-4.0921,-4.0894,-4.0818,-4.0788,-4.079,-4.079,-4.079,-4.079,-4.079,-4.079,-4.079,-4.079,-4.079,-4.079,-4.079,-4.079,-4.079,-4.079,-4.079,-4.079,-4.079,-4.079,-4.079,-4.079,-4.0808,-4.0792,-4.0807,-4.0828,-4.0859,-4.0907,-4.0907,-4.0907,-4.0907,-4.013,-3.9295,-3.8421,-3.7547,-3.6673,-3.5799,-3.5799,-3.5799,-3.5799,-3.5799,-3.5799,-4.2026,-4.2182,-4.2085,-4.226,-4.2182,-4.1426,-3.9037,-3.8495,-3.8007,-3.6259,-3.5909,-3.6161,-3.7042,-3.7233,-3.8068,0.0,-4.0812,-4.1738,-4.4348,-4.5401,-4.6552,0.0,-4.9457,0.0,-5.1005,0.0,0.0,0.0,0.0,0.0,0.0,-5.13,-5.1248,-5.119,-5.119,-5.1208,-5.1202,-5.1202,-5.1202,-5.1202,-5.1202,-5.1105,-5.0891,-5.0208,-4.9703,-4.9275,0.0,0.0,0.0,-4.6434,-4.6183,-4.6189,-4.6195,-4.6236,-4.6277,-4.63,-4.63,-4.63,-4.63,-4.63,-4.6007,-4.427,-4.3704,-4.3372,-4.1635,-4.1108,-4.1085,-4.1008,-4.0942,-4.0882,-4.0869,-4.0823,-4.079,-4.079,-4.079,-4.079,-4.079,-4.079,-4.079,-4.079,-4.079,-4.079,-4.079,-4.079,-4.079,-4.079,-4.079,-4.079,-4.079,-4.079,-4.079,-4.079,-4.0803,-4.0808,-4.0796,-4.0807,-4.0839,-4.0898,-4.0907,-4.0907,-4.0907,-4.0286,-3.9548,-3.8693,-3.7819,-3.6945,-3.609,-3.5896,-3.5799,-3.5799,-3.5799,-3.5799,-4.1844,-4.1773,-4.1383,-4.2124,-4.1753,-4.0725,-3.8916,0.0,-3.8007,-3.6259,-3.5909,-3.6181,-3.7036,-3.7219,-3.7808,-3.9627,-3.992,-4.0835,-4.3453,-4.4504,-4.5649,-4.7333,0.0,0.0,-5.0032,0.0,0.0,0.0,0.0,0.0,0.0,-5.122,-5.121,-5.1194,-5.1214,-5.1202,-5.1202,-5.1202,-5.1202,-5.1202,-5.1202,-5.0794,-5.0017,-4.9932,-4.9038,-4.7522,0.0,0.0,0.0,-4.6104,-4.6102,-4.6111,-4.6189,-4.6203,-4.6216,-4.6273,-4.63,-4.63,-4.63,-4.63,-4.6007,-4.427,-4.3704,-4.3372,-4.1635,-4.1108,-4.1078,-4.094,-4.091,-4.0866,-4.0757,-4.0759,-4.079,-4.079,-4.079,-4.079,-4.079,-4.079,-4.079,-4.079,-4.079,-4.079,-4.079,-4.079,-4.079,-4.079,-4.079,-4.079,-4.079,-4.079,-4.079,-4.079,-4.0796,-4.08,-4.08,-4.0846,-4.0877,-4.0907,-4.0888,-4.0907,-4.0907,-4.083,-4.0402,-3.9606,-3.8712,-3.7838,-3.6984,-3.6187,-3.5799,-3.5799,-3.5799,-3.5834,-4.1245,-4.1344,-4.1188,-4.15,-4.1344,-4.0647,-3.89,0.0,-3.8006,-3.625,-3.5899,-3.6026,-3.6411,-3.6476,-3.705,-3.8797,-3.8641,-3.9385,-4.2472,-4.3163,-4.4157,-4.6351,-4.8176,0.0,0.0,0.0,0.0,0.0,0.0,0.0,0.0,-5.1197,-5.1206,-5.1202,-5.1202,-5.1202,-5.1202,-5.1202,-5.1202,-5.1183,-5.0678,-5.0231,-4.9862,-4.8813,-4.7958,-4.7279,0.0,0.0,0.0,-4.6027,-4.6047,-4.6102,-4.6138,-4.6164,-4.6206,-4.622,-4.6279,-4.63,-4.6245,-4.6269,-4.6007,-4.427,-4.3704,-4.3372,-4.1635,-4.1108,-4.1081,-4.098,-4.0921,-4.0874,-4.0779,-4.0769,-4.079,-4.079,-4.079,-4.079,-4.079,-4.079,-4.079,-4.079,-4.079,-4.079,-4.079,-4.079,-4.079,-4.079,-4.079,-4.079,-4.079,-4.079,-4.079,-4.079,-4.0803,-4.0796,-4.08,-4.0823,-4.0846,-4.0837,-4.0888,-4.0898,-4.0898,-4.0898,-4.0519,-3.9723,-3.8829,-3.7974,-3.71,-3.6226,-3.5799,-3.5799,-3.5799,-3.5842,-4.0764,-4.111,-4.111,-4.111,-4.1089,-4.0617,0.0,0.0,-3.8,-3.626,-3.5908,-3.5919,-3.5981,-3.6196,-3.6848,-3.8355,-3.8068,-3.8776,-4.1947,-4.2138,-4.2786,0.0,0.0,0.0,0.0,0.0,0.0,0.0,0.0,0.0,0.0,0.0,-5.1202,-5.1202,-5.1202,-5.1202,-5.1202,-5.095,-5.0814,-5.0814,-4.992,-4.9376,-4.9085,-4.7861,-4.7162,0.0,0.0,0.0,0.0,-4.5997,-4.6027,-4.6075,-4.6093,-4.6135,-4.6177,-4.6183,-4.6234,-4.6249,-4.6216,-4.6245,-4.6007,-4.427,-4.3704,-4.3372,-4.1635,-4.1108,-4.1081,-4.0992,-4.0918,-4.083,-4.0809,-4.0812,-4.079,-4.079,-4.079,-4.079,-4.079,-4.079,-4.079,-4.079,-4.079,-4.079,-4.079,-4.079,-4.079,-4.079,-4.079,-4.079,-4.079,-4.079,-4.079,-4.079,-4.079,-4.0803,-4.0808,-4.0788,-4.0812,-4.0796,-4.0867,-4.0907,-4.0907,-4.0888,-4.0635,-4.0072,-3.9217,-3.8363,-3.7469,-3.6615,-3.6051,-3.5799,-3.5799,-3.585,-4.0618,-4.111,-4.111,-4.111,-4.1046,-4.0555,0.0,0.0,-3.8007,-3.625,-3.5908,-3.5919,-3.5981,-3.666,-3.7503,-3.845,-3.8543,-3.9406,-4.2028,-4.1657,0.0,0.0,0.0,0.0,0.0,0.0,0.0,0.0,0.0,0.0,0.0,0.0,-5.1202,-5.1202,-5.1202,-5.1202,-5.1202,-5.0328,-4.9901,-4.9901,-4.9027,-4.8153,-4.7337,-4.7317,0.0,0.0,0.0,0.0,0.0,-4.5997,-4.5997,-4.6007,-4.6075,-4.6093,-4.6102,-4.6181,-4.6203,-4.6206,-4.6206,-4.6245,-4.6007,-4.427,-4.3704,-4.3372,-4.1635,-4.1108,-4.1078,-4.0933,-4.0798,-4.0713,-4.079,-4.079,-4.079,-4.079,-4.079,-4.079,-4.079,-4.079,-4.079,-4.079,-4.079,-4.079,-4.079,-4.079,-4.079,-4.079,-4.079,-4.079,-4.079,-4.079,-4.079,-4.079,-4.079,-4.079,-4.079,-4.0796,-4.08,-4.08,-4.0856,-4.0907,-4.0907,-4.0888,-4.0907,-4.0888,-4.0111,-3.9256,-3.8382,-3.7508,-3.6634,-3.5799,-3.5799,-3.5838,-3.8945,-3.9252,-3.9252,-3.9252,-3.9687,-3.9667,-3.7999,0.0,-3.8007,-3.625,-3.5908,-3.5914,-3.5934,-3.6143,-3.6805,-3.8288,-3.8002,-3.8513,0.0,0.0,0.0,0.0,0.0,0.0,0.0,0.0,0.0,0.0,0.0,0.0,0.0,0.0,-5.1202,-5.1202,-5.1202,-5.0911,-5.0309,-5.0037,-4.959,-4.9007,-4.8133,-4.757,-4.7279,-4.6676,0.0,0.0,0.0,0.0,0.0,-4.5997,-4.5997,-4.6007,-4.6017,-4.6066,-4.6093,-4.6075,-4.6115,-4.6206,-4.6203,-4.625,-4.6007,-4.427,-4.3704,-4.3368,-4.1559,-4.1066,-4.1078,-4.0948,-4.0779,-4.0668,-4.0759,-4.079,-4.079,-4.079,-4.079,-4.079,-4.079,-4.0759,-4.0733,-4.0733,-4.0733,-4.0733,-4.0733,-4.0778,-4.079,-4.079,-4.079,-4.079,-4.079,-4.079,-4.079,-4.079,-4.079,-4.079,-4.079,-4.0803,-4.0803,-4.0803,-4.0823,-4.0837,-4.0837,-4.0888,-4.0907,-4.0907,-4.0111,-3.9276,-3.8402,-3.7528,-3.6653,-3.5799,-3.5852,-3.5872,-3.8075,-3.8396,-3.8396,-3.8396,-3.8801,0.0,0.0,-3.7613,-3.761,-3.6187,-3.5908,-3.5894,-3.5904,-3.6177,-3.6757,-3.7831,-3.8118,-3.8747,0.0,0.0,0.0,0.0,0.0,0.0,0.0,0.0,0.0,0.0,0.0,0.0,0.0,0.0,-5.1047,-5.0717,-5.0717,-5.0445,-4.9901,-4.924,-4.8658,-4.8094,-4.724,-4.6812,-4.6793,0.0,0.0,0.0,0.0,0.0,0.0,-4.5997,-4.5997,-4.5997,-4.5997,-4.6017,-4.6066,-4.6017,-4.6074,-4.617,-4.6183,-4.602,-4.5547,-4.4153,-4.3255,-4.2506,-4.1343,-4.0987,-4.0928,-4.0857,-4.0723,-4.0626,-4.07,-4.0746,-4.0759,-4.0759,-4.079,-4.079,-4.0778,-4.0733,-4.07,-4.0668,-4.0654,-4.0668,-4.07,-4.0733,-4.0778,-4.079,-4.079,-4.079,-4.079,-4.079,-4.079,-4.079,-4.079,-4.079,-4.079,-4.079,-4.079,-4.079,-4.0792,-4.0807,-4.0807,-4.0859,-4.0907,-4.0907,-4.0402,-3.9742,-3.8887,-3.7683,-3.6653,-3.5799,-3.5879,-3.5908,0.0,-3.8196,-3.8217,-3.8217,-3.8258,-3.8092,-3.7285,-3.7152,0.0,-3.6078,-3.5908,-3.5914,-3.5982,-3.666,-3.7225,-3.7273,-3.8698,-3.9797,0.0,0.0,0.0,0.0,0.0,0.0,0.0,0.0,0.0,0.0,0.0,0.0,0.0,0.0,0.0,-4.9843,-4.9745,-4.9707,-4.9707,-4.8114,-4.7279,-4.7201,-4.6385,-4.5997,-4.5997,0.0,0.0,0.0,0.0,0.0,0.0,-4.5997,-4.5997,-4.5977,-4.5938,-4.5899,-4.5899,-4.5841,-4.5862,-4.5927,-4.5986,-4.5475,-4.469,-4.3872,-4.2474,-4.1078,-4.1006,-4.0858,-4.0718,-4.0692,-4.0642,-4.0603,-4.0607,-4.0654,-4.07,-4.07,-4.0746,-4.0778,-4.07,-4.07,-4.0668,-4.0607,-4.0607,-4.0621,-4.0687,-4.07,-4.0713,-4.079,-4.079,-4.079,-4.079,-4.079,-4.079,-4.079,-4.079,-4.079,-4.079,-4.079,-4.079,-4.079,-4.0792,-4.0807,-4.0807,-4.0859,-4.0907,-4.0907,-4.0849,-4.0422,-3.9606,-3.7916,-3.6653,-3.5799,-3.5879,-3.5908,-3.6076,0.0,-3.6347,-3.6391,-3.691,-3.7175,0.0,-3.6644,-3.6897,-3.6066,-3.5903,-3.6103,-3.6771,-3.7058,-3.7425,-3.8092,-3.9105,-3.9771,0.0,0.0,0.0,0.0,0.0,0.0,0.0,0.0,0.0,0.0,0.0,0.0,0.0,0.0,0.0,-4.893,-4.8269,-4.792,-4.792,-4.7512,-4.6968,-4.6307,-4.6094,-4.5997,-4.5997,0.0,0.0,0.0,0.0,0.0,0.0,-4.5997,-4.5997,-4.5938,-4.5317,-4.5084,-4.5006,-4.4326,-4.4103,-4.4109,-4.4125,-4.4072,-4.3831,-4.2975,-4.1944,-4.1006,-4.089,-4.081,-4.0761,-4.0715,-4.0642,-4.0603,-4.0607,-4.0621,-4.0654,-4.0687,-4.0668,-4.0668,-4.07,-4.066,-4.0617,-4.0603,-4.0603,-4.0603,-4.0617,-4.066,-4.07,-4.0713,-4.0778,-4.079,-4.079,-4.079,-4.079,-4.079,-4.079,-4.079,-4.079,-4.079,-4.079,-4.079,-4.0808,-4.0804,-4.0807,-4.0858,-4.0908,-4.0907,-4.0305,-3.9567,-3.8693,-3.7625,-3.6653,-3.5799,-3.5872,-3.5905,-3.5457,-3.5534,-3.5626,-3.5728,-3.6105,-3.6345,-3.5893,-3.6202,-3.6437,-3.5982,-3.5897,-3.6156,-3.7008,-3.719,-3.7455,0.0,-3.9156,0.0,0.0,0.0,0.0,0.0,0.0,0.0,0.0,0.0,0.0,0.0,0.0,0.0,0.0,0.0,0.0,0.0,-4.755,-4.7298,-4.7298,-4.6909,-4.6463,-4.5997,-4.5997,-4.5975,-4.596,0.0,0.0,0.0,0.0,0.0,-4.5997,-4.5997,-4.5783,-4.5414,-4.4967,-4.4559,-4.4151,-4.3666,-4.351,-4.3499,-4.3497,-4.3325,-4.2954,-4.2056,-4.1412,-4.0974,-4.0801,-4.0759,-4.0738,-4.0636,-4.0593,-4.0554,-4.0549,-4.0579,-4.0612,-4.0646,-4.0626,-4.0607,-4.0646,-4.0636,-4.0588,-4.0573,-4.0539,-4.0573,-4.0588,-4.0617,-4.066,-4.0687,-4.0733,-4.0778,-4.079,-4.079,-4.079,-4.079,-4.079,-4.079,-4.079,-4.079,-4.079,-4.079,-4.0796,-4.0792,-4.0807,-4.0848,-4.0898,-4.0907,-4.048,-3.9645,-3.8402,-3.7935,-3.7042,-3.5799,-3.5864,-3.5892,-3.535,-3.5512,-3.5669,-3.5665,-3.5766,-3.5854,-3.5782,-3.59,-3.6047,-3.6054,-3.595,-3.6184,-3.728,-3.7316,0.0,0.0,0.0,0.0,0.0,0.0,0.0,0.0,0.0,0.0,0.0,0.0,0.0,0.0,0.0,0.0,0.0,0.0,0.0,0.0,-4.7104,-4.7104,-4.7104,-4.6366,-4.5997,-4.5997,-4.5997,-4.5953,-4.5906,-4.596,0.0,0.0,0.0,0.0,-4.5997,-4.5997,-4.553,-4.4773,-4.4626,-4.4044,-4.3277,-4.314,-4.3092,-4.3102,-4.3091,-4.2688,-4.205,-4.1221,-4.0974,-4.0953,-4.0746,-4.0694,-4.0668,-4.0534,-4.0489,-4.0489,-4.0489,-4.0539,-4.0573,-4.0607,-4.0598,-4.0593,-4.0588,-4.0588,-4.0573,-4.0504,-4.0489,-4.0523,-4.0573,-4.0588,-4.0622,-4.0673,-4.0687,-4.0733,-4.0778,-4.079,-4.079,-4.079,-4.079,-4.079,-4.079,-4.079,-4.079,-4.079,-4.0796,-4.0812,-4.0807,-4.0848,-4.0898,-4.0907,-4.0907,-4.0072,-3.8402,-3.8402,-3.7508,-3.5799,-3.5857,-3.5898,-3.5145,-3.5774,-3.6286,-3.5688,-3.6098,-3.6446,-3.5717,-3.6126,-3.6682,-3.6723,-3.6154,-3.6387,-3.8762,-3.8015,-3.7568,0.0,0.0,0.0,0.0,0.0,0.0,0.0,0.0,0.0,0.0,0.0,0.0,0.0,0.0,0.0,0.0,0.0,0.0,0.0,0.0,-4.6191,-4.6191,-4.6074,-4.5997,-4.5997,-4.5997,-4.5953,-4.5893,-4.5919,-4.5919,0.0,0.0,0.0,-4.5997,-4.5997,-4.553,-4.4724,-4.3862,-4.307,-4.2296,-4.1505,-4.1255,-4.1296,-4.1305,-4.1217,-4.1099,-4.0896,-4.0829,-4.081,-4.0723,-4.0694,-4.0668,-4.0534,-4.0489,-4.0489,-4.0489,-4.0523,-4.0523,-4.0592,-4.0554,-4.0519,-4.0588,-4.0558,-4.0504,-4.0504,-4.0489,-4.0504,-4.0504,-4.0573,-4.0588,-4.0603,-4.066,-4.07,-4.07,-4.0759,-4.079,-4.079,-4.079,-4.079,-4.079,-4.079,-4.079,-4.079,-4.0803,-4.0808,-4.0807,-4.0848,-4.0898,-4.0907,-4.0907,-4.0072,-3.8402,-3.8402,-3.7508,-3.5799,-3.5799,-3.5845,-3.5092,-3.5448,-3.5851,-3.6041,-3.6832,-3.7483,-3.7151,-3.7385,-3.7531,-3.7055,-3.6668,-3.691,-3.8529,0.0,-3.8277,-4.006,0.0,0.0,0.0,0.0,0.0,0.0,0.0,0.0,0.0,0.0,0.0,0.0,0.0,0.0,0.0,0.0,0.0,0.0,0.0,0.0,-4.5949,-4.5949,-4.5949,-4.5949,-4.5867,-4.5786,-4.57,-4.5761,-4.5791,0.0,0.0,-4.5937,-4.5958,-4.553,-4.4851,-4.4005,-4.2997,-4.2156,-4.1442,-4.097,-4.0823,-4.0837,-4.0768,-4.0749,-4.0779,-4.0707,-4.0726,-4.0734,-4.0629,-4.0588,-4.0593,-4.0519,-4.0489,-4.0489,-4.0489,-4.0489,-4.0523,-4.0539,-4.0523,-4.0523,-4.0539,-4.0523,-4.0489,-4.0489,-4.0489,-4.0489,-4.0489,-4.0523,-4.0558,-4.0588,-4.0636,-4.066,-4.0687,-4.0733,-4.0759,-4.079,-4.079,-4.079,-4.079,-4.079,-4.079,-4.079,-4.0803,-4.08,-4.0807,-4.0848,-4.0898,-4.0907,-4.0907,-4.0072,-3.8402,-3.8402,-3.7508,-3.5799,-3.5799,-3.5815,-3.5039,-3.5226,-3.5656,-3.6654,-3.7519,-3.8141,-3.8297,-3.8481,-3.8404,-3.7715,-3.7434,-3.7628,0.0,-3.8838,0.0,0.0,0.0,0.0,0.0,0.0,0.0,0.0,0.0,0.0,0.0,0.0,0.0,0.0,0.0,0.0,0.0,0.0,0.0,0.0,0.0,0.0,-4.5847,-4.5819,-4.5819,-4.5847,-4.5746,-4.5635,-4.5513,-4.5618,-4.5684,-4.5715,-4.5805,-4.5783,-4.5626,-4.5034,-4.4141,-4.3072,-4.2307,-4.1513,-4.0828,-4.0812,-4.0788,-4.0745,-4.0655,-4.0642,-4.0662,-4.0596,-4.0615,-4.0629,-4.0534,-4.0489,-4.0489,-4.0489,-4.0489,-4.0489,-4.0489,-4.0489,-4.0489,-4.0489,-4.0489,-4.0489,-4.0489,-4.0489,-4.0489,-4.0489,-4.0489,-4.0489,-4.0489,-4.0489,-4.0523,-4.0573,-4.0588,-4.0617,-4.0673,-4.0687,-4.0733,-4.079,-4.079,-4.079,-4.079,-4.079,-4.079,-4.079,-4.0796,-4.08,-4.0796,-4.0837,-4.0888,-4.0898,-4.0907,-4.0072,-3.8402,-3.8402,-3.7508,-3.5799,-3.5799,-3.5799,-3.4908,-3.5605,-3.6556,-3.757,-3.7824,-3.7867,-3.8093,-3.8698,-3.9239,-3.9238,-3.8581,-3.8535,0.0,-4.0579,0.0,0.0,0.0,0.0,0.0,0.0,0.0,0.0,0.0,0.0,0.0,0.0,0.0,0.0,0.0,0.0,0.0,0.0,0.0,0.0,0.0,0.0,-4.5715,-4.5601,-4.5601,-4.5715,-4.5696,-4.5635,-4.5495,-4.5513,-4.5584,-4.57,-4.5715,-4.5327,-4.4718,-4.476,-4.374,-4.209,-4.2032,-4.1429,-4.0648,-4.0764,-4.072,-4.0621,-4.0668,-4.066,-4.0588,-4.0531,-4.0511,-4.0504,-4.0504,-4.0489,-4.0489,-4.0489,-4.0489,-4.0489,-4.0489,-4.0489,-4.0489,-4.0489,-4.0489,-4.0489,-4.0489,-4.0489,-4.0489,-4.0489,-4.0489,-4.0489,-4.0489,-4.0489,-4.0504,-4.0523,-4.0573,-4.0603,-4.0607,-4.0654,-4.0733,-4.079,-4.079,-4.079,-4.079,-4.079,-4.079,-4.079,-4.0803,-4.0796,-4.08,-4.0796,-4.0837,-4.0907,-4.0898,-4.0072,-3.8402,-3.8402,-3.7508,-3.5799,-3.5799,-3.5842,-3.4889,-3.5609,-3.659,-3.7632,-3.831,-3.8945,-3.9658,-4.0089,-4.0156,-3.963,-3.9251,-3.9201,0.0,0.0,0.0,0.0,0.0,0.0,0.0,0.0,0.0,0.0,0.0,0.0,0.0,0.0,0.0,0.0,0.0,0.0,0.0,0.0,0.0,0.0,0.0,0.0,0.0,-4.5531,-4.5476,-4.5438,-4.5438,-4.5419,-4.538,-4.538,-4.5438,-4.5545,-4.5089,-4.4776,-4.4531,-4.3576,-4.2762,-4.2061,-4.1482,-4.0991,-4.0621,-4.0662,-4.0648,-4.0588,-4.0515,-4.0457,-4.0411,-4.0377,-4.0413,-4.0447,-4.0447,-4.0463,-4.0495,-4.0495,-4.0492,-4.0489,-4.0489,-4.0489,-4.0489,-4.0489,-4.0489,-4.0489,-4.0489,-4.0489,-4.0489,-4.0489,-4.0489,-4.0489,-4.0489,-4.0489,-4.0489,-4.0489,-4.0523,-4.0554,-4.0583,-4.0626,-4.0668,-4.0733,-4.0778,-4.079,-4.079,-4.079,-4.079,-4.079,-4.079,-4.0803,-4.08,-4.0812,-4.0834,-4.0897,-4.0898,-4.0073,-3.8402,-3.8402,-3.7508,-3.5799,-3.5799,-3.5807,-3.5247,-3.5761,-3.6633,-3.7951,-3.8565,-3.9162,-4.0502,-4.0849,-4.0723,-4.0131,-3.9994,-3.9962,-3.9855,0.0,0.0,0.0,0.0,0.0,0.0,0.0,0.0,0.0,0.0,0.0,0.0,0.0,0.0,0.0,0.0,0.0,0.0,0.0,0.0,0.0,0.0,0.0,0.0,-4.5151,-4.4997,-4.4895,-4.4628,-4.4781,-4.5277,-4.501,-4.4958,-4.5034,-4.4292,-4.3882,-4.3666,-4.2582,-4.2004,-4.1692,-4.0958,-4.0621,-4.053,-4.053,-4.0515,-4.0508,-4.0422,-4.0358,-4.0307,-4.0307,-4.0362,-4.0398,-4.0398,-4.0432,-4.0485,-4.0485,-4.0479,-4.0492,-4.0492,-4.0508,-4.0489,-4.0489,-4.0489,-4.0489,-4.0489,-4.0489,-4.0489,-4.0489,-4.0489,-4.0489,-4.0489,-4.0489,-4.0489,-4.0489,-4.0489,-4.0523,-4.0588,-4.0598,-4.0626,-4.0687,-4.0759,-4.079,-4.079,-4.079,-4.079,-4.079,-4.079,-4.0803,-4.0808,-4.0788,-4.0812,-4.0876,-4.0897,-4.0063,-3.8373,-3.8382,-3.7508,-3.5799,-3.5799,-3.5799,-3.5977,-3.6138,-3.6767,-3.8618,-3.8443,-3.8323,-4.0193,-4.0773,-4.0907,-4.0907,-4.0849,-4.0807,-4.0807,-4.0807,0.0,0.0,0.0,0.0,0.0,0.0,0.0,0.0,0.0,0.0,0.0,0.0,0.0,0.0,0.0,0.0,0.0,0.0,0.0,0.0,0.0,0.0,0.0,-4.4418,-4.3997,-4.3997,-4.3176,-4.3673,-4.5239,-4.438,-4.4058,-4.415,-4.3325,-4.2563,-4.1895,-4.1964,-4.1517,-4.0776,-4.05,-4.0406,-4.0406,-4.0406,-4.036,-4.031,-4.0375,-4.0358,-4.0307,-4.0307,-4.0342,-4.0398,-4.0398,-4.0398,-4.0398,-4.0398,-4.0449,-4.0502,-4.0502,-4.0495,-4.0489,-4.0489,-4.0489,-4.0489,-4.0489,-4.0489,-4.0489,-4.0489,-4.0489,-4.0489,-4.0489,-4.0489,-4.0489,-4.0489,-4.0489,-4.0523,-4.0588,-4.0607,-4.0636,-4.0687,-4.0759,-4.079,-4.079,-4.079,-4.079,-4.079,-4.079,-4.079,-4.079,-4.0796,-4.08,-4.08,-4.0856,-4.0034,-3.8307,-3.8354,-3.7508,-3.5799,-3.5799,-3.5799,-3.494,-3.5979,-3.7243,-3.7885,-3.8848,-3.9807,-4.0444,-4.0713,-4.0837,-4.0898,-4.0848,-4.0792,-4.0792,0.0,0.0,0.0,0.0,0.0,0.0,0.0,0.0,0.0,0.0,0.0,0.0,0.0,0.0,0.0,0.0,0.0,0.0,0.0,0.0,0.0,0.0,0.0,0.0,0.0,-4.3157,-4.3157,-4.2908,-4.3061,-4.352,-4.3271,-4.3177,-4.3178,-4.2408,-4.2008,-4.1861,-4.1351,-4.0958,-4.0648,-4.0469,-4.0406,-4.0406,-4.0406,-4.0392,-4.0375,-4.0389,-4.036,-4.031,-4.031,-4.031,-4.0328,-4.0328,-4.0327,-4.0325,-4.0325,-4.0379,-4.0432,-4.0432,-4.0466,-4.0495,-4.0508,-4.0489,-4.0489,-4.0489,-4.0489,-4.0489,-4.0489,-4.0489,-4.0489,-4.0489,-4.0489,-4.0489,-4.0489,-4.0489,-4.0523,-4.0588,-4.0607,-4.0636,-4.0687,-4.0733,-4.0746,-4.079,-4.079,-4.079,-4.079,-4.079,-4.079,-4.079,-4.0803,-4.0796,-4.08,-4.0211,-3.9372,-3.8307,-3.7753,-3.6889,-3.5799,-3.5799,-3.5799,-3.5908,-3.6982,-3.8099,-3.8555,-3.9238,-3.9936,-4.0408,0.0,0.0,0.0,-4.075,-4.072,-4.072,0.0,0.0,0.0,0.0,0.0,0.0,0.0,0.0,0.0,0.0,0.0,0.0,0.0,0.0,0.0,0.0,0.0,0.0,0.0,0.0,0.0,0.0,0.0,0.0,0.0,0.0,-4.2278,-4.1953,-4.182,-4.182,-4.2183,-4.2336,-4.2259,-4.1577,-4.1335,-4.1415,-4.092,-4.0662,-4.0574,-4.0425,-4.036,-4.036,-4.036,-4.036,-4.036,-4.036,-4.0326,-4.031,-4.031,-4.031,-4.031,-4.031,-4.031,-4.029,-4.029,-4.0326,-4.0362,-4.0362,-4.0415,-4.0466,-4.0495,-4.0508,-4.0489,-4.0489,-4.0489,-4.0489,-4.0489,-4.0489,-4.0489,-4.0489,-4.0489,-4.0489,-4.0489,-4.0489,-4.0504,-4.0558,-4.0573,-4.0617,-4.0654,-4.0668,-4.0733,-4.079,-4.079,-4.079,-4.079,-4.079,-4.079,-4.079,-4.079,-4.0803,-4.0796,-3.9937,-3.9099,-3.8307,-3.7492,-3.6647,-3.5799,-3.5799,-3.5799,-3.7807,-3.8401,-3.9032,-3.991,-3.9567,-3.926,-4.0183,-4.0504,-4.0593,-4.0607,0.0,-4.0593,0.0,0.0,0.0,0.0,0.0,0.0,0.0,0.0,0.0,0.0,0.0,0.0,0.0,0.0,0.0,0.0,0.0,0.0,0.0,0.0,0.0,0.0,0.0,0.0,0.0,0.0,0.0,0.0,-4.0654,-4.0291,-4.0348,-4.1182,-4.1527,-4.1379,-4.0862,-4.0694,-4.0788,-4.0648,-4.0588,-4.0593,-4.0381,-4.031,-4.031,-4.031,-4.031,-4.031,-4.031,-4.031,-4.031,-4.031,-4.031,-4.031,-4.031,-4.031,-4.031,-4.031,-4.0309,-4.0307,-4.0307,-4.0344,-4.0415,-4.0466,-4.0495,-4.0508,-4.0508,-4.0489,-4.0489,-4.0489,-4.0489,-4.0489,-4.0489,-4.0489,-4.0489,-4.0489,-4.0489,-4.0489,-4.0489,-4.0539,-4.0603,-4.0607,-4.0654,-4.0733,-4.079,-4.079,-4.079,-4.079,-4.079,-4.079,-4.079,-4.079,-4.079,-4.079,-3.9867,-3.903,-3.8287,-3.7395,-3.6569,-3.5791,-3.5791,-3.5799,-3.5806,-3.7005,-3.8295,-3.8712,-3.9409,-4.0062,-4.0271,-4.0345,-4.0413,-4.0579,-4.0515,0.0,0.0,0.0,0.0,0.0,0.0,0.0,0.0,0.0,0.0,0.0,0.0,0.0,0.0,0.0,0.0,0.0,0.0,0.0,0.0,0.0,0.0,0.0,0.0,0.0,-4.0845,-4.0654,-4.0559,0.0,-4.0387,-4.0327,-4.0394,-4.0581,-4.0707,-4.08,-4.0771,-4.0776,-4.0788,-4.0648,-4.0588,-4.0593,-4.0381,-4.031,-4.031,-4.031,-4.031,-4.031,-4.031,-4.031,-4.031,-4.031,-4.031,-4.031,-4.031,-4.031,-4.031,-4.031,-4.0291,-4.031,-4.031,-4.0308,-4.0325,-4.0342,-4.0413,-4.0499,-4.0499,-4.0511,-4.0489,-4.0489,-4.0489,-4.0489,-4.0489,-4.0489,-4.0489,-4.0489,-4.0489,-4.0489,-4.0489,-4.0504,-4.0539,-4.0603,-4.0612,-4.0654,-4.0733,-4.0778,-4.079,-4.079,-4.079,-4.079,-4.079,-4.079,-4.079,-4.079,-3.9274,-3.8396,-3.8225,-3.6726,-3.5921,-3.5812,-3.581,-3.5799,-3.6104,-3.7135,-3.8096,-3.8683,0.0,-4.0019,-4.0098,-4.0215,-4.0328,-4.0427,0.0,0.0,0.0,0.0,0.0,0.0,0.0,0.0,0.0,0.0,0.0,0.0,0.0,0.0,0.0,0.0,0.0,0.0,0.0,0.0,0.0,0.0,0.0,0.0,0.0,0.0,-4.031,-4.031,-4.031,-4.031,-4.031,-4.0362,-4.05,-4.05,-4.0588,-4.0761,-4.0781,-4.0823,-4.0837,-4.0745,-4.0662,-4.0574,-4.0411,-4.0327,-4.031,-4.031,-4.031,-4.031,-4.031,-4.031,-4.031,-4.031,-4.031,-4.031,-4.031,-4.031,-4.031,-4.031,-4.031,-4.031,-4.031,-4.031,-4.0309,-4.0309,-4.0381,-4.0449,-4.0502,-4.0499,-4.0511,-4.0489,-4.0489,-4.0489,-4.0489,-4.0489,-4.0489,-4.0489,-4.0489,-4.0489,-4.0489,-4.0489,-4.0523,-4.0588,-4.0603,-4.0626,-4.0687,-4.0733,-4.0778,-4.079,-4.079,-4.079,-4.079,-4.079,-4.079,-4.079,-3.9495,-3.8617,-3.8194,-3.6938,-3.6135,-3.5803,-3.5793,-3.5801,-3.6822,-3.7682,-3.8268,-3.901,-3.9408,0.0,-3.9766,-4.0017,-4.0234,0.0,0.0,0.0,0.0,0.0,0.0,0.0,0.0,0.0,0.0,0.0,0.0,0.0,0.0,0.0,0.0,0.0,0.0,0.0,0.0,0.0,0.0,0.0,0.0,0.0,0.0,-4.031,-4.031,-4.031,-4.031,-4.031,-4.031,-4.0394,-4.0559,-4.0602,-4.0718,-4.0907,-4.0837,-4.0848,-4.0878,-4.0834,-4.0732,-4.0621,-4.0469,-4.0377,-4.0328,-4.0291,-4.0291,-4.0253,-4.0291,-4.0272,-4.0253,-4.0291,-4.031,-4.031,-4.031,-4.031,-4.031,-4.031,-4.031,-4.031,-4.031,-4.031,-4.031,-4.031,-4.0346,-4.0398,-4.0449,-4.0466,-4.0499,-4.0492,-4.0508,-4.0489,-4.0489,-4.0489,-4.0489,-4.0489,-4.0489,-4.0489,-4.0489,-4.0489,-4.0523,-4.0573,-4.0588,-4.0617,-4.0673,-4.0687,-4.0713,-4.0778,-4.079,-4.079,-4.079,-4.079,-4.079,-4.079,-3.9804,-3.8926,-3.8214,-3.7246,-3.6425,-3.5785,-3.5794,-3.5784,-3.5793,0.0,-3.8776,0.0,-3.9117,-3.9358,0.0,0.0,-3.9956,0.0,0.0,0.0,0.0,0.0,0.0,0.0,0.0,0.0,0.0,0.0,0.0,0.0,0.0,0.0,0.0,0.0,0.0,0.0,0.0,0.0,0.0,0.0,-4.031,-4.031,-4.031,0.0,-4.031,-4.031,-4.031,-4.031,-4.036,-4.0389,-4.0438,-4.0681,-4.0815,-4.0907,-4.0898,-4.0898,-4.0878,-4.0834,-4.0788,-4.0745,-4.05,-4.0389,-4.0375,-4.0309,-4.0234,-4.0137,-4.0253,-4.0234,-4.0137,-4.0253,-4.031,-4.031,-4.031,-4.031,-4.031,-4.031,-4.031,-4.031,-4.031,-4.031,-4.031,-4.031,-4.031,-4.031,-4.0307,-4.0432,-4.0502,-4.0499,-4.0511,-4.0489,-4.0489,-4.0489,-4.0489,-4.0489,-4.0489,-4.0489,-4.0489,-4.0489,-4.0504,-4.0504,-4.0573,-4.0588,-4.0603,-4.066,-4.07,-4.07,-4.0778,-4.079,-4.079,-4.079,-4.079,-4.079,-3.9204,-3.8315,-3.8199,-3.6626,-3.5824,-3.5718,-3.5766,-3.5728,-3.5181,-3.7143,-3.8658,0.0,-3.8759,-3.9008,-3.9008,0.0,0.0,0.0,0.0,0.0,0.0,0.0,0.0,0.0,0.0,0.0,0.0,0.0,0.0,0.0,0.0,0.0,0.0,0.0,0.0,0.0,0.0,0.0,0.0,-4.031,-4.031,-4.031,-4.031,0.0,-4.031,-4.031,-4.031,-4.031,-4.0327,-4.036,-4.0406,-4.0515,-4.0675,-4.0837,-4.0888,-4.0907,-4.0907,-4.0868,-4.0826,-4.0788,-4.0593,-4.0469,-4.0372,-4.0234,-4.0157,-4.0096,-4.0077,-4.0036,-4.0015,-4.0137,-4.0195,-4.0215,-4.0291,-4.031,-4.031,-4.031,-4.031,-4.031,-4.031,-4.031,-4.031,-4.031,-4.031,-4.0291,-4.0291,-4.0363,-4.0396,-4.0485,-4.0495,-4.0489,-4.0489,-4.0489,-4.0489,-4.0489,-4.0489,-4.0489,-4.0489,-4.0489,-4.0489,-4.0489,-4.0523,-4.0573,-4.0607,-4.0626,-4.0654,-4.07,-4.0759,-4.079,-4.079,-4.079,-4.079,-4.079,-3.9572,-3.8682,-3.8199,-3.6972,-3.6132,-3.5707,-3.5728,-3.5698,-3.4597,0.0,-3.7785,-3.7893,-3.8136,-3.8431,0.0,0.0,0.0,0.0,0.0,0.0,0.0,0.0,0.0,0.0,0.0,0.0,0.0,0.0,0.0,0.0,0.0,0.0,0.0,0.0,0.0,0.0,0.0,0.0,-4.031,-4.031,-4.031,-4.031,-4.031,-4.031,-4.031,-4.031,-4.031,-4.031,-4.031,-4.0327,-4.0375,-4.0389,-4.053,-4.0745,-4.0837,-4.0888,-4.0907,-4.0898,-4.0848,-4.0788,-4.0615,-4.0515,-4.0372,-4.0215,-4.0117,-4.0036,-3.9954,-3.9911,-3.9889,-4.0036,-4.0117,-4.0137,-4.0253,-4.031,-4.031,-4.031,-4.031,-4.031,-4.031,-4.031,-4.031,-4.031,-4.031,-4.031,-4.031,-4.029,-4.0342,-4.0466,-4.0444,-4.0389,-4.0425,-4.0406,-4.0406,-4.0406,-4.0473,-4.0489,-4.0489,-4.0489,-4.0489,-4.0489,-4.0489,-4.0523,-4.0573,-4.0598,-4.0607,-4.0668,-4.0746,-4.079,-4.079,-4.079,-4.079,-4.079,-3.9727,-3.8825,-3.8112,-3.7049,-3.618,-3.555,-3.555,-3.555,-3.3844,-3.4771,0.0,-3.6666,-3.7029,0.0,0.0,0.0,0.0,0.0,0.0,0.0,0.0,0.0,0.0,0.0,0.0,0.0,0.0,0.0,0.0,0.0,0.0,0.0,0.0,0.0,0.0,0.0,0.0,0.0,-4.031,-4.031,-4.031,-4.031,-4.031,-4.031,-4.031,-4.031,-4.031,-4.031,-4.031,-4.031,-4.031,-4.0358,-4.0485,-4.0621,-4.0745,-4.0837,-4.0907,-4.0898,-4.0856,-4.0788,-4.0588,-4.0466,-4.0389,-4.0309,-4.0118,-3.9914,-4.0057,-3.9933,-3.9739,-4.0015,-4.0117,-4.0137,-4.0253,-4.031,-4.031,-4.031,-4.031,-4.031,-4.031,-4.031,-4.031,-4.031,-4.031,-4.0291,-4.0289,-4.0307,-4.0342,-4.0466,-4.0288,-4.0139,-4.0195,-4.0214,-4.0214,-4.0214,-4.0372,-4.0489,-4.0489,-4.0489,-4.0489,-4.0489,-4.0489,-4.0489,-4.0504,-4.0554,-4.0603,-4.0588,-4.0668,-4.0733,-4.079,-4.079,-4.079,-4.079,-3.9127,-3.8157,-3.7921,-3.6271,-3.5355,-3.513,-3.5197,-3.5262,-3.4429,0.0,0.0,-3.732,-3.7706,-3.7911,0.0,0.0,0.0,0.0,0.0,0.0,0.0,0.0,0.0,0.0,0.0,0.0,0.0,0.0,0.0,0.0,0.0,0.0,0.0,0.0,0.0,0.0,0.0,0.0,-4.031,-4.031,-4.031,-4.031,-4.031,-4.031,-4.031,-4.031,-4.031,-4.031,-4.031,-4.031,-4.031,-4.0327,-4.0394,-4.0485,-4.0621,-4.0761,-4.0878,-4.0754,-4.0694,-4.0636,-4.0351,-4.0232,-4.0177,-3.9998,-3.9848,-3.9762,-3.9773,-3.9703,-3.9679,-3.9804,-3.9848,-3.987,-4.0098,-4.0157,-4.0195,-4.0291,-4.031,-4.031,-4.031,-4.031,-4.031,-4.031,-4.031,-4.031,-4.031,-4.0308,-4.0325,-4.0415,-4.0252,-4.0101,-4.012,-4.0022,-4.0002,-4.012,-4.0213,-4.0356,-4.0489,-4.0489,-4.0489,-4.0489,-4.0489,-4.0489,-4.0489,-4.0573,-4.0588,-4.0603,-4.066,-4.07,-4.0733,-4.0778,-4.0539,-3.999,-3.8685,-3.7968,-3.7906,-3.6232,-3.5302,-3.5114,-3.5114,-3.5133,-3.4306,-3.5296,0.0,0.0,0.0,-3.7778,0.0,0.0,0.0,0.0,0.0,0.0,0.0,0.0,0.0,0.0,0.0,0.0,0.0,0.0,0.0,0.0,0.0,0.0,0.0,0.0,0.0,0.0,0.0,0.0,-4.031,-4.031,-4.031,-4.031,-4.031,-4.031,-4.031,-4.031,-4.031,-4.031,-4.031,-4.031,-4.031,-4.031,-4.0345,-4.0406,-4.05,-4.0655,-4.0858,-4.0642,-4.0544,-4.0501,-4.0175,-4.0081,-4.006,-3.9851,-3.9781,-3.9739,-3.9661,-3.9626,-3.9602,-3.9689,-3.9693,-3.9739,-3.9954,-4.0057,-4.0117,-4.0215,-4.0273,-4.031,-4.031,-4.031,-4.031,-4.031,-4.031,-4.031,-4.031,-4.0291,-4.0308,-4.0362,-4.0196,-4.008,-4.0081,-3.9963,-3.9943,-4.0081,-4.0213,-4.0339,-4.0489,-4.0489,-4.0489,-4.0489,-4.0489,-4.0489,-4.0489,-4.0539,-4.0573,-4.0607,-4.0631,-4.0673,-4.07,-4.0417,-3.9992,-3.9412,-3.808,-3.736,-3.7294,-3.5917,-3.5133,-3.4925,-3.4925,-3.4944,0.0,0.0,0.0,0.0,0.0,0.0,0.0,0.0,0.0,0.0,0.0,0.0,0.0,0.0,0.0,0.0,0.0,0.0,0.0,0.0,0.0,0.0,0.0,0.0,0.0,0.0,0.0,0.0,0.0,-4.031,-4.031,-4.031,-4.0291,-4.0291,-4.0291,-4.0291,-4.0291,-4.0291,-4.0291,-4.031,-4.0291,-4.0291,-4.031,-4.031,-4.0345,-4.0406,-4.0406,-4.053,-4.0776,-4.0557,-4.0453,-4.0361,-4.0101,-4.002,-4.0057,-3.9933,-3.9889,-3.9867,-3.9739,-3.9661,-3.9602,-3.9689,-3.9693,-3.9717,-3.9848,-3.9994,-4.0077,-4.0096,-4.0195,-4.031,-4.031,-4.031,-4.031,-4.031,-4.031,-4.031,-4.031,-4.031,-4.0291,-4.0289,-4.0138,-3.9998,-4.0002,-4.0042,-4.0081,-4.0101,-4.0321,-4.0489,-4.0489,-4.0489,-4.0489,-4.0489,-4.0489,-4.0489,-4.0489,-4.0489,-4.0523,-4.0588,-4.0607,-4.0617,-4.0648,-3.9726,-3.9165,-3.9119,-3.7332,-3.6287,-3.6064,-3.5268,-3.4811,-3.4602,-3.4602,-3.471,-3.3748,0.0,0.0,0.0,0.0,0.0,0.0,0.0,0.0,0.0,0.0,0.0,0.0,0.0,0.0,0.0,0.0,0.0,0.0,0.0,0.0,0.0,0.0,0.0,0.0,0.0,0.0,0.0,0.0,-4.031,-4.031,-4.031,-4.0196,-4.0017,-4.0098,-4.0098,-4.0017,-4.0015,-4.0117,-4.031,-4.0215,-4.0215,-4.031,-4.031,-4.031,-4.0327,-4.0325,-4.0375,-4.0425,-4.0266,-4.0157,-4.0023,-3.9807,-3.9727,-3.9727,-3.9698,-3.9679,-3.9674,-3.9631,-3.9626,-3.9602,-3.9607,-3.9631,-3.9656,-3.9735,-3.9848,-3.9994,-4.0057,-4.0195,-4.031,-4.031,-4.031,-4.031,-4.031,-4.031,-4.031,-4.031,-4.031,-4.0291,-4.0289,-4.0138,-3.9977,-3.9941,-3.9897,-3.9916,-4.0002,-4.0177,-4.0339,-4.0473,-4.0489,-4.0489,-4.0489,-4.0489,-4.0489,-4.0489,-4.0489,-4.0523,-4.0523,-4.0573,-4.0269,-3.9569,-3.9323,-3.8562,-3.7201,-3.6573,-3.5913,-3.523,-3.5003,-3.4811,-3.4602,-3.4602,-3.471,-3.4238,-3.5238,-3.6155,0.0,0.0,0.0,0.0,-3.7756,0.0,0.0,0.0,0.0,0.0,0.0,0.0,0.0,0.0,0.0,0.0,0.0,0.0,0.0,0.0,0.0,0.0,0.0,0.0,0.0,-4.0077,-4.0118,-4.0118,-4.0234,-4.0176,-3.9914,-3.9975,-3.9975,-3.9914,-3.9892,-4.0017,-4.031,-4.0215,-4.0195,-4.0215,-4.0215,-4.0195,-4.0137,-4.0138,-4.0099,-4.004,-3.996,-3.992,-3.9878,-3.9684,-3.9626,-3.9656,-3.9602,-3.9626,-3.9631,-3.9602,-3.9602,-3.9602,-3.9602,-3.9602,-3.9602,-3.9637,-3.9758,-3.9911,-3.9975,-4.0117,-4.0196,-4.0157,-4.0176,-4.0196,-4.0157,-4.0234,-4.031,-4.031,-4.031,-4.0291,-4.0309,-4.0215,-4.0118,-4.008,-4.002,-4.004,-4.0158,-4.0252,-4.0377,-4.0473,-4.0489,-4.0489,-4.0489,-4.0489,-4.0489,-4.0489,-4.0489,-4.0473,-4.0372,-4.0408,-3.9991,-3.8972,-3.8554,-3.7716,-3.6291,-3.5799,-3.5282,-3.4771,-3.4771,-3.471,-3.4602,-3.4602,-3.4689,-3.4702,-3.5589,-3.636,-3.6544,0.0,0.0,-3.7214,-3.7398,0.0,0.0,0.0,0.0,0.0,0.0,0.0,0.0,0.0,0.0,0.0,0.0,0.0,0.0,0.0,0.0,0.0,0.0,0.0,-3.9526,-3.9717,-3.987,-3.987,-4.0077,-4.0077,-3.9807,-3.9848,-3.9829,-3.987,-3.987,-3.9996,-4.031,-4.0253,-4.0215,-4.0117,-4.0077,-4.0015,-3.9889,-3.9889,-3.9804,-3.9693,-3.9693,-3.9743,-3.9857,-3.9661,-3.9631,-3.9689,-3.9607,-3.9631,-3.9689,-3.9607,-3.9602,-3.9602,-3.9602,-3.9602,-3.9602,-3.9602,-3.9731,-3.9892,-3.9911,-4.0015,-4.0057,-3.9914,-3.9975,-4.0057,-3.9935,-4.0077,-4.0253,-4.0291,-4.031,-4.031,-4.031,-4.031,-4.031,-4.031,-4.029,-4.0325,-4.0379,-4.0449,-4.0499,-4.0508,-4.0489,-4.0489,-4.0489,-4.0489,-4.0489,-4.0473,-4.0473,-4.0334,-4.0043,-4.0024,-3.9548,-3.8439,-3.7516,-3.6696,-3.5946,-3.5044,-3.4602,-3.4602,-3.4602,-3.4602,-3.4602,-3.4602,-3.4666,0.0,0.0,0.0,0.0,0.0,0.0,-3.6025,-3.6156,-3.6238,0.0,0.0,0.0,0.0,0.0,0.0,0.0,0.0,0.0,0.0,0.0,0.0,0.0,0.0,0.0,0.0,0.0,-3.9575,-3.9483,-3.9551,-3.9575,-3.9575,-3.9623,-3.9526,-3.9272,-3.9376,-3.9477,-3.9575,-3.9575,-3.9826,-4.031,-4.0077,-4.0015,-4.0096,-3.9994,-3.9911,-3.9889,-3.9781,-3.9717,-3.9693,-3.9637,-3.9631,-3.9656,-3.9626,-3.9602,-3.9626,-3.9602,-3.9602,-3.9626,-3.9602,-3.9602,-3.9602,-3.9602,-3.9602,-3.9602,-3.9602,-3.975,-3.9933,-4.0036,-4.0077,-4.0036,-3.9785,-3.9848,-3.9935,-3.9914,-3.9935,-4.0038,-4.0253,-4.031,-4.031,-4.031,-4.031,-4.031,-4.031,-4.029,-4.0325,-4.0379,-4.0449,-4.0499,-4.0508,-4.0489,-4.0489,-4.0489,-4.0489,-4.0422,-4.0269,-4.0269,-3.9871,-3.8972,-3.8895,-3.8169,-3.6507,-3.6257,-3.5722,-3.4827,-3.4677,-3.4602,-3.4602,-3.4602,-3.4602,-3.4602,-3.4602,-3.4666,0.0,0.0,0.0,-3.5899,0.0,0.0,0.0,-3.5513,-3.5311,0.0,0.0,0.0,0.0,0.0,0.0,0.0,0.0,0.0,0.0,0.0,0.0,0.0,0.0,0.0,0.0,0.0,-3.9298,-3.9298,-3.9298,-3.9298,-3.9298,-3.9427,-3.9376,-3.9101,-3.9183,-3.9219,-3.9298,-3.9234,-3.9464,-3.9996,-3.9826,-3.9804,-3.9911,-3.9826,-3.9777,-3.975,-3.9684,-3.9637,-3.9637,-3.9626,-3.9602,-3.9602,-3.9602,-3.9602,-3.9602,-3.9602,-3.9602,-3.9602,-3.9602,-3.9602,-3.9602,-3.9602,-3.9602,-3.9602,-3.9602,-3.9684,-3.9804,-3.9826,-3.9826,-3.9717,-3.9389,-3.9537,-3.9785,-3.9717,-3.9892,-4.0137,-4.0272,-4.031,-4.031,-4.031,-3.9947,-3.9794,-4.0234,-4.031,-4.0308,-4.0344,-4.0415,-4.0466,-4.0495,-4.0508,-4.0457,-4.0356,-4.0339,-4.025,-4.0022,-3.9642,-3.9143,-3.8493,-3.8037,-3.7156,-3.5768,-3.5712,-3.5338,-3.4469,-3.4517,-3.4539,-3.4539,-3.4583,-3.4602,-3.4602,-3.4602,-3.4645,0.0,0.0,0.0,0.0,0.0,-3.3956,0.0,0.0,0.0,0.0,0.0,0.0,0.0,0.0,0.0,0.0,0.0,0.0,0.0,0.0,0.0,0.0,0.0,0.0,0.0,0.0,-3.872,-3.8572,-3.8702,-3.872,-3.8572,-3.8902,-3.8976,-3.8748,-3.8896,-3.897,-3.9027,-3.8915,-3.9117,-3.9604,-3.9532,-3.9508,-3.9561,-3.9556,-3.9545,-3.9508,-3.9508,-3.9552,-3.9602,-3.9602,-3.9602,-3.9602,-3.9602,-3.9602,-3.9602,-3.9602,-3.9602,-3.9577,-3.9552,-3.9508,-3.9527,-3.9476,-3.9527,-3.9533,-3.9508,-3.9545,-3.9623,-3.9508,-3.9458,-3.9313,-3.8971,-3.9216,-3.9532,-3.9433,-3.9804,-4.0157,-4.0196,-4.012,-4.0062,-4.0062,-3.9355,-3.903,-3.9909,-3.9909,-3.9813,-3.9828,-3.9883,-3.9953,-4.0002,-3.998,-3.9893,-3.9755,-3.968,-3.9546,-3.9261,-3.8674,-3.8153,-3.7788,-3.7108,-3.6264,-3.5299,-3.5311,-3.5025,-3.4381,-3.445,-3.4473,-3.4473,-3.4539,-3.4602,-3.4602,-3.4602,-3.4583,0.0,0.0,0.0,0.0,-3.3912,0.0,0.0,0.0,0.0,0.0,0.0,-3.2582,-3.2721,0.0,0.0,0.0,0.0,0.0,0.0,0.0,0.0,0.0,0.0,0.0,0.0,0.0,0.0,-3.6673,-3.7279,-3.7353,-3.6654,-3.7213,-3.7539,-3.7509,-3.8144,-3.8585,-3.8818,-3.8818,-3.8952,-3.9275,-3.9144,-3.9063,-3.9063,-3.9027,-3.9073,-3.9256,-3.9256,-3.9362,-3.9602,-3.9602,-3.9602,-3.9602,-3.9602,-3.9602,-3.9602,-3.9602,-3.9602,-3.9577,-3.9335,-3.9256,-3.9229,-3.9036,-3.9183,-3.9376,-3.9154,-3.9234,-3.9401,-3.9136,-3.9063,-3.9027,-3.8844,-3.8894,-3.9027,-3.911,-3.9376,-3.9647,-3.9892,-3.9527,-3.9145,-3.9145,-3.8438,-3.8113,-3.9011,-3.8514,-3.8016,-3.8087,-3.8139,-3.8188,-3.8197,-3.8098,-3.8012,-3.7978,-3.7814,-3.7618,-3.7341,-3.7224,-3.6789,-3.587,-3.5715,-3.5268,-3.4383,-3.4418,-3.4386,-3.4316,-3.4381,-3.4427,-3.4427,-3.4473,-3.4539,-3.4602,-3.4602,-3.4561,0.0,0.0,0.0,0.0,0.0,0.0,-3.2479,0.0,-3.2049,0.0,0.0,0.0,0.0,0.0,0.0,0.0,0.0,0.0,0.0,0.0,0.0,0.0,0.0,0.0,0.0,0.0,0.0,0.0,0.0,-3.6652,-3.6321,-3.6567,-3.6893,-3.7272,-3.7619,-3.8034,-3.8566,-3.8523,-3.8628,-3.8857,-3.8759,-3.8807,-3.8942,-3.8921,-3.9007,-3.921,-3.921,-3.9362,-3.9602,-3.9602,-3.9527,-3.9362,-3.9362,-3.9362,-3.9362,-3.9362,-3.9283,-3.9193,-3.9064,-3.9036,-3.9007,-3.8921,-3.9007,-3.9101,-3.897,-3.9027,-3.9045,-3.8778,-3.873,-3.8748,-3.8603,-3.873,-3.8943,-3.9055,-3.9298,-3.9425,-3.9205,-3.895,-3.8651,-3.8306,-3.7578,-3.712,-3.7502,-3.7636,-3.771,-3.7747,-3.7731,-3.7731,-3.7729,-3.7603,-3.7471,-3.7294,-3.7211,-3.7077,-3.6833,-3.6403,-3.5962,-3.5541,-3.5014,-3.4569,-3.4216,-3.4221,-3.4245,-3.4245,-3.4293,-3.434,-3.434,-3.4427,-3.4473,-3.4495,-3.4561,-3.4561,-3.4607,0.0,0.0,0.0,0.0,0.0,0.0,0.0,0.0,0.0,0.0,0.0,0.0,0.0,-3.2179,0.0,0.0,0.0,0.0,0.0,0.0,0.0,0.0,0.0,0.0,0.0,0.0,0.0,0.0,0.0,-3.5624,-3.5797,-3.6153,-3.6644,-3.7022,-3.7502,-3.8054,-3.8212,-3.8354,-3.851,-3.8446,-3.8528,-3.8701,-3.8701,-3.8833,-3.8998,-3.8998,-3.9183,-3.9502,-3.9432,-3.9328,-3.9183,-3.9129,-3.9073,-3.9017,-3.9101,-3.9036,-3.891,-3.8803,-3.8743,-3.8701,-3.8701,-3.8773,-3.8815,-3.8743,-3.8773,-3.8785,-3.8478,-3.8446,-3.851,-3.8415,-3.8597,-3.8762,-3.8682,-3.8856,-3.8914,-3.8301,-3.8029,-3.7811,-3.7448,-3.6719,-3.6129,-3.6077,-3.6589,-3.7007,-3.6935,-3.6918,-3.6881,-3.6806,-3.6709,-3.6568,-3.6355,-3.6287,-3.6166,-3.6024,-3.5479,-3.5126,-3.5126,-3.455,-3.4197,-3.4197,-3.4197,-3.4197,-3.4197,-3.4245,-3.4269,-3.4269,-3.434,-3.4363,-3.4381,-3.4517,-3.4517,0.0,0.0,0.0,-3.2713,0.0,0.0,0.0,0.0,-3.0975,0.0,0.0,0.0,0.0,-3.1802,-3.1984,-3.2179,-3.2371,0.0,0.0,0.0,0.0,0.0,0.0,0.0,0.0,0.0,0.0,0.0,0.0,0.0,-3.3917,-3.4549,-3.496,-3.4968,-3.6364,-3.7171,-3.7252,-3.7893,-3.8241,-3.8307,-3.8241,-3.8225,-3.8225,-3.8225,-3.8322,-3.8523,-3.8523,-3.8796,-3.9183,-3.9007,-3.9036,-3.9183,-3.8979,-3.8755,-3.8554,-3.8803,-3.891,-3.8862,-3.8603,-3.8368,-3.8225,-3.8225,-3.8446,-3.8658,-3.8322,-3.8446,-3.8658,-3.8289,-3.8241,-3.8322,-3.8382,-3.8446,-3.8339,-3.7698,-3.7757,-3.7795,-3.7183,-3.6602,-3.6255,-3.6476,-3.584,-3.5179,-3.4983,-3.5129,-3.52,-3.5021,-3.5039,-3.5001,-3.4829,-3.4724,-3.4698,-3.4677,-3.4437,-3.4296,-3.4271,-3.4253,-3.4234,-3.4234,-3.4216,-3.4197,-3.4197,-3.4197,-3.4197,-3.4197,-3.4197,-3.4197,-3.4197,-3.4269,-3.4293,-3.4293,-3.445,-3.4431,0.0,0.0,-3.4106,-3.2883,0.0,0.0,0.0,0.0,0.0,0.0,0.0,0.0,0.0,-3.1579,-3.1691,-3.1765,-3.2091,-3.2284,0.0,0.0,0.0,0.0,0.0,0.0,0.0,0.0,0.0,0.0,0.0,0.0,0.0,-3.3917,-3.4262,-3.475,-3.5775,-3.6531,-3.7057,-3.7809,-3.8225,-3.8241,-3.8225,-3.8192,-3.8192,-3.8192,-3.8322,-3.851,-3.851,-3.8695,-3.9007,-3.8921,-3.8833,-3.8737,-3.8664,-3.8496,-3.8322,-3.8541,-3.8559,-3.8419,-3.8322,-3.8274,-3.8192,-3.8192,-3.8274,-3.8354,-3.8241,-3.8256,-3.8354,-3.8241,-3.8259,-3.818,-3.7713,-3.7661,-3.7522,-3.689,-3.6775,-3.6685,-3.6056,-3.5889,-3.569,-3.5263,-3.5097,-3.4926,-3.4674,-3.4675,-3.4695,-3.4653,-3.4569,-3.4545,-3.4502,-3.4363,-3.4293,-3.4316,-3.4245,-3.4197,-3.4197,-3.4197,-3.4197,-3.4197,-3.4197,-3.4197,-3.4197,-3.4197,-3.4197,-3.4197,-3.4197,-3.4197,-3.4197,-3.4221,-3.4148,-3.3972,-3.4074,-3.4173,-3.4908,-3.4814,0.0,0.0,-3.2343,0.0,-3.0742,0.0,0.0,0.0,0.0,0.0,0.0,0.0,-3.1351,-3.1466,-3.1765,-3.1965,0.0,-3.2161,0.0,0.0,0.0,0.0,0.0,0.0,0.0,0.0,0.0,0.0,0.0,0.0,-3.3814,-3.4284,-3.5072,-3.5841,-3.664,-3.7392,-3.7935,-3.8259,-3.8225,-3.8192,-3.8192,-3.8192,-3.8274,-3.8401,-3.8401,-3.8528,-3.8743,-3.8683,-3.859,-3.8491,-3.8415,-3.8322,-3.8225,-3.8354,-3.8322,-3.8192,-3.8192,-3.8192,-3.8192,-3.8192,-3.8192,-3.8192,-3.8192,-3.7993,-3.7812,-3.8101,-3.7856,-3.7444,-3.7239,-3.704,-3.668,-3.5952,-3.5797,-3.5643,-3.5062,-3.5062,-3.5034,-3.458,-3.4653,-3.4674,-3.4439,-3.4375,-3.4375,-3.4375,-3.4344,-3.4293,-3.4269,-3.4173,-3.4124,-3.4197,-3.4197,-3.4197,-3.4197,-3.4197,-3.4197,-3.4197,-3.4197,-3.4197,-3.4197,-3.4197,-3.4346,-3.4661,-3.4364,-3.4346,-3.4661,-3.4247,-3.3972,-3.3807,-3.3734,-3.377]},{"header":{"parameterUnit":"m.s-1","parameterCategory":1,"la1":30.6,"la2":29.2853,"lo1":-89.7004,"lo2":-87.6739,"dy":0.0162,"dx":0.0183,"nx":112,"ny":82,"refTime":"2023-05-16T00:00:00:Z","depth":0,"parameterNumber":3,"parameterNumberName":"V-component_of_WINDS"},"data":[0.0,0.0,0.0,0.0,0.0,0.0,0.0,0.0,0.0,0.0,0.0,0.0,0.0,0.0,0.0,0.0,0.0,0.0,0.0,0.0,0.0,0.0,0.0,0.0,0.0,0.0,0.0,0.0,0.0,0.0,0.0,0.0,0.0,0.0,0.0,0.0,0.0,0.0,0.0,0.0,0.0,0.0,0.0,0.0,0.0,0.0,0.0,0.0,0.0,0.0,0.0,0.0,0.0,0.0,0.0,0.0,0.0,0.0,0.0,0.0,0.0,0.0,0.0,0.0,0.0,0.0,0.0,0.0,0.0,0.0,0.0,0.0,0.0,0.0,0.0,0.0,0.0,0.0,0.0,0.0,0.0,0.0,0.0,0.0,0.0,0.0,0.0,0.0,0.0,0.0,-0.1897,-0.1911,-0.2214,-0.1957,-0.1097,-0.1411,-0.0998,0.0729,0.0,0.0,0.0,0.0,0.0,0.0,0.0,0.0,0.0,0.0,0.0,0.0,0.0,0.0,0.0,0.0,0.0,0.0,0.0,0.0,0.0,0.0,0.0,0.0,0.0,0.0,0.0,0.0,0.0,0.0,0.0,0.0,0.0,0.0,0.0,0.0,0.0,0.0,0.0,0.0,0.0,0.0,0.0,0.0,0.0,0.0,0.0,0.0,0.0,0.0,0.0,0.0,0.0,0.0,0.0,0.0,0.0,0.0,0.0,0.0,0.0,0.0,0.0,0.0,0.0,0.0,0.0,0.0,0.0,0.0,0.0,0.0,0.0,0.0,0.0,0.0,0.0,0.0,0.0,0.0,0.0,0.0,0.0,0.0,0.0,0.0,0.0,0.0,0.0,0.0,0.0,0.0,0.0,0.0,0.0,0.0,0.0,0.0,0.0,0.0,0.0,0.0,0.0,0.0,-0.2144,-0.3319,-0.3202,-0.2904,-0.2746,-0.2511,-0.1612,0.0146,0.0,0.0,0.0,0.0,0.0,0.0,0.0,0.0,0.0,0.0,0.0,0.0,0.0,0.0,0.0,0.0,0.0,0.0,0.0,0.0,0.0,0.0,0.0,0.0,0.0,0.0,0.0,0.0,0.0,0.0,0.0,0.0,0.0,0.0,0.0,0.0,0.0,0.0,0.0,0.0,0.0,0.0,0.0,0.0,0.0,0.0,0.0,0.0,0.0,0.0,0.0,0.0,0.0,0.0,0.0,0.0,0.0,0.0,0.0,0.0,0.0,0.0,0.0,0.0,0.0,0.0,0.0,0.0,0.0,0.0,0.0,0.0,0.0,0.0,0.0,0.0,0.0,0.0,0.0,0.0,0.0,0.0,0.0,0.0,0.0,0.0,0.0,0.0,0.0,0.0,0.0,0.0,0.0,0.0,0.0,0.0,0.0,0.0,0.0,0.0,0.0,0.0,0.0,-0.1755,-0.2562,-0.3671,-0.3608,-0.3452,-0.3452,-0.3294,-0.2378,-0.051,-0.0218,0.0,0.0,0.0,0.0,0.0,0.0,0.0,0.0,0.0,0.0,0.0,0.0,0.0,0.0,0.0,0.0,0.0,0.0,0.0,0.0,0.0,0.0,0.0,0.0,0.0,0.0,0.0,0.0,0.0,0.0,0.0,0.0,0.0,0.0,0.0,0.0,0.0,0.0,0.0,0.0,0.0,0.0,0.0,0.0,0.0,0.0,0.0,0.0,0.0,0.0,0.0,0.0,0.0,0.0,0.0,0.0,0.0,0.0,0.0,0.0,0.0,0.0,0.0,0.0,0.0,0.0,0.0,0.0,0.0,0.0,0.0,0.0,0.0,0.0,0.0,0.0,0.0,0.0,0.0,0.0,0.0,0.0,0.0,0.0,0.0,0.0,0.0,0.0,0.0,0.0,0.0,0.0,0.0,0.0,0.0,0.0,0.0,0.0,0.0,0.0,0.0,0.0,-0.2769,-0.3073,-0.3754,-0.3763,-0.3763,-0.3763,-0.3763,-0.2923,-0.0882,-0.0729,0.0,0.0,0.0,0.0,0.0,0.0,0.0,0.0,0.0,0.0,0.0,0.0,0.0,0.0,0.0,0.0,0.0,0.0,0.0,0.0,0.0,0.0,0.0,0.0,0.0,0.0,0.0,0.0,0.0,0.0,0.0,0.0,0.0,0.0,0.0,0.0,0.0,0.0,0.0,0.0,0.0,0.0,0.0,0.0,0.0,0.0,0.0,0.0,0.0,0.0,0.0,0.0,0.0,0.0,0.0,0.0,0.0,0.0,0.0,0.0,0.0,0.0,0.0,0.0,0.0,0.0,0.0,0.0,0.0,0.0,0.0,0.0,0.0,0.0,0.0,0.0,0.0,0.0,0.0,0.0,0.0,0.0,0.0,0.0,0.0,0.0,0.0,0.0,0.0,0.0,0.0,0.0,0.0,0.0,0.0,0.0,0.0,0.0,0.0,0.0,0.0,0.0,-0.319,-0.3756,-0.3763,-0.3763,-0.3763,-0.3763,-0.3763,-0.2944,-0.083,-0.0589,0.0,0.0,0.0,0.0,0.0,0.0,0.0,0.0,0.0,0.0,0.0,0.0,0.0,0.0,0.0,0.0,0.0,0.0,0.0,0.0,0.0,0.0,0.0,0.0,0.0,0.0,0.0,0.0,0.0,0.0,0.0,0.0,0.0,0.0,0.0,0.0,0.0,0.0,0.0,0.0,0.0,0.0,0.0,0.0,0.0,0.0,0.0,0.0,0.0,0.0,0.0,0.0,0.0,0.0,0.0,0.0,0.0,0.0,0.0,0.0,0.0,0.0,0.0,0.0,0.0,0.0,0.0,0.0,0.0,0.0,0.0,0.0,0.0,0.0,0.0,0.0,0.0,0.0,0.0,0.0,0.0,0.0,0.0,0.0,0.0,0.0,0.0,0.0,0.0,0.0,0.0,0.0,0.0,0.0,0.0,0.0,0.0,0.0,0.0,0.0,0.0,0.0,-0.2998,-0.3452,0.0,-0.3763,-0.3763,-0.3763,-0.3763,-0.3024,-0.121,0.0,0.0,0.0,0.0,0.0,0.0,0.0,0.0,0.0,0.0,0.0,0.0,0.0,0.0,0.0,0.0,0.0,0.0,0.0,0.0,0.0,0.0,0.0,0.0,0.0,0.0,0.0,0.0,0.0,0.0,0.0,0.0,0.0,0.0,0.0,0.0,0.0,0.0,0.0,0.0,0.0,0.0,0.0,0.0,0.0,0.0,0.0,0.0,0.0,0.0,0.0,0.0,0.0,0.0,0.0,0.0,0.0,0.0,0.0,0.0,0.0,0.0,0.0,0.0,0.0,0.0,0.0,0.0,0.0,0.0,0.0,0.0,0.0,0.0,0.0,0.0,0.0,0.0,0.0,0.0,0.0,0.0,0.0,0.0,0.0,0.0,0.0,0.0,0.0,0.0,0.0,0.0,0.0,0.0,0.0,0.0,0.0,0.0,0.0,0.0,0.0,0.0,-0.2487,-0.3014,-0.3452,0.0,-0.3763,-0.3763,-0.3763,-0.3763,-0.3112,-0.1377,0.0,0.0,0.0,0.0,0.0,0.0,0.0,0.0,0.0,0.0,0.0,0.0,0.0,0.0,0.0,0.0,0.0,0.0,0.0,0.0,0.0,0.0,0.0,0.0,0.0,0.0,0.0,0.0,0.0,0.0,0.0,0.0,0.0,0.0,0.0,0.0,0.0,0.0,0.0,0.0,0.0,0.0,0.0,0.0,0.0,0.0,0.0,0.0,0.0,0.0,0.0,0.0,0.0,0.0,0.0,0.0,0.0,0.0,0.0,0.0,0.0,0.0,0.0,0.0,0.0,0.0,0.0,0.0,0.0,0.0,0.0,0.0,0.0,0.0,0.0,0.0,0.0,0.0,0.0,0.0,0.0,0.0,0.0,0.0,0.0,0.0,0.0,0.0,0.0,0.0,0.0,0.0,0.0,0.0,0.0,0.0,0.0,0.0,0.0,0.0,0.0,0.0,-0.249,-0.3245,-0.3765,-0.3767,-0.3765,-0.3765,-0.3765,-0.3765,-0.3056,0.0,0.0,0.0,0.0,0.0,0.0,0.0,0.0,0.0,0.0,0.0,0.0,0.0,0.0,0.0,0.0,0.0,0.0,0.0,0.0,0.0,0.0,0.0,0.0,0.0,0.0,0.0,0.0,0.0,0.0,0.0,0.0,0.0,0.0,0.0,0.0,0.0,0.0,0.0,0.0,0.0,0.0,0.0,0.0,0.0,0.0,0.0,0.0,0.0,0.0,0.0,0.0,0.0,0.0,0.0,0.0,0.0,0.0,0.0,0.0,0.0,0.0,0.0,0.0,0.0,0.0,0.0,0.0,0.0,0.0,0.0,0.0,0.0,0.0,0.0,0.0,0.0,0.0,0.0,0.0,0.0,0.0,0.0,0.0,0.0,0.0,0.0,0.0,0.0,0.0,0.0,0.0,0.0,0.0,0.0,0.0,0.0,0.0,0.0,0.0,0.0,0.0,0.0,-0.2846,-0.3443,-0.3883,-0.3948,-0.3897,-0.3859,-0.3859,-0.3799,-0.3292,-0.2038,0.0,0.0,0.0,0.0,0.0,0.0,0.0,0.0,0.0,0.0,0.0,0.0,0.0,0.0,0.0,0.0,0.0,0.0,0.0,0.0,0.0,0.0,0.0,0.0,0.0,0.0,0.0,0.0,0.0,0.0,0.0,0.0,0.0,0.0,0.0,0.0,0.0,0.0,0.0,0.0,0.0,0.0,0.0,0.0,0.0,0.0,0.0,0.0,0.0,0.0,0.0,0.0,0.0,0.0,0.0,0.0,0.0,0.0,0.0,0.0,0.0,0.0,0.0,0.0,0.0,0.0,0.0,0.0,0.0,0.0,0.0,0.0,0.0,0.0,0.0,0.0,0.0,0.0,0.0,0.0,0.0,0.0,0.0,0.0,0.0,0.0,0.0,0.0,0.0,0.0,0.0,0.0,0.0,0.0,0.0,0.0,0.0,0.0,0.0,0.0,0.0,0.0,-0.2989,-0.3604,-0.4055,-0.403,-0.3987,-0.3955,-0.3955,-0.3871,-0.3499,-0.2544,0.0,0.0,0.0,0.0,0.0,0.0,0.0,0.0,0.0,0.0,0.0,0.0,0.0,0.0,0.0,0.0,0.0,0.0,0.0,0.0,0.0,0.0,0.0,0.0,0.0,0.0,0.0,0.0,0.0,0.0,0.0,0.0,0.0,0.0,0.0,0.0,0.0,0.0,0.0,0.0,0.0,0.0,0.0,0.0,0.0,0.0,0.0,0.0,0.0,0.0,0.0,0.0,0.0,0.0,0.0,0.0,0.0,0.0,0.0,0.0,0.0,0.0,0.0,0.0,0.0,0.0,0.0,0.0,0.0,0.0,0.0,0.0,0.0,0.0,0.0,0.0,0.0,0.0,0.0,0.0,0.0,0.0,0.0,0.0,0.0,0.0,0.0,0.0,0.0,0.0,0.0,0.0,0.0,0.0,0.0,0.0,0.0,0.0,0.0,0.0,0.0,0.0,-0.3089,-0.3824,-0.4298,-0.4059,-0.4053,-0.4048,-0.4048,-0.3965,-0.3666,-0.3092,0.0,0.0,0.0,0.0,0.0,0.0,0.0,0.0,0.0,0.0,0.0,0.0,0.0,0.0,0.0,0.0,0.0,0.0,0.0,0.0,0.0,0.0,0.0,0.0,0.0,0.0,0.0,0.0,0.0,0.0,0.0,0.0,0.0,0.0,0.0,0.0,0.0,0.0,0.0,0.0,0.0,0.0,0.0,0.0,0.0,0.0,0.0,0.0,0.0,0.0,0.0,0.0,0.0,0.0,0.0,0.0,0.0,0.0,0.0,0.0,0.1729,0.0,0.0,0.0,0.0,0.0,0.0,0.0,0.0,0.0,0.0,0.0,0.0,0.0,0.0,0.0,0.0,0.0,0.0,0.0,0.0,0.0,0.0,0.0,0.0,0.0,0.0,0.0,0.0,0.0,0.0,0.0,0.0,0.0,0.0,0.0,0.0,0.0,0.0,0.0,0.0,0.0,-0.3569,-0.4081,-0.4424,-0.4234,-0.4183,-0.4142,-0.4142,-0.4059,-0.3754,-0.3335,-0.2692,0.0,0.0,0.0,0.0,0.0,0.0,0.0,0.0,0.0,0.0,0.0,0.0,0.0,0.0,0.0,0.0,0.0,0.0,0.0,0.0,0.0,0.0,0.0,0.0,0.0,0.0,0.0,0.0,0.0,0.0,0.0,0.0,0.0,0.0,0.0,0.0,0.0,0.0,0.0,0.0,0.0,0.0,0.0,0.0,0.0,0.0,0.0,0.0,0.0,0.0,0.0,0.0,0.0,0.0,0.0,0.0,0.0,0.0,0.0,0.0,0.0906,0.0,0.0,0.0,0.0,0.0,0.0,0.0,0.0,0.0,0.0,0.0,0.0,0.0,0.0,0.0,0.0,0.0,0.0,0.0,0.0,0.0,0.0,0.0,0.0,0.0,0.0,0.0,0.0,0.0,0.0,0.0,0.0,0.0,0.0,0.0,0.0,0.0,0.0,0.0,0.0,-0.3855,-0.4493,-0.4777,-0.4563,-0.444,-0.4412,-0.4234,-0.4153,-0.4014,-0.3757,-0.326,0.0,0.0,0.0,0.0,0.0,0.0,0.0,0.0,0.0,0.0,0.0,0.0,0.0,0.0,0.0,0.0,0.0,0.0,0.0,0.0,0.0,0.0,0.0,0.0,0.0,0.0,0.0,0.0,0.0,0.0,0.0,0.0,0.0,0.0,0.0,0.0,0.0,0.0,0.0,0.0,0.0,0.0,0.0,0.0,0.0,0.0,0.0,0.0,0.0,0.0,0.0,0.0,0.0,0.0,0.0,-0.0725,0.0082,0.0,-0.0662,-0.0406,-0.0323,-0.0487,0.0,0.0,0.0,0.0,0.0,0.0,0.0,0.0,0.0,0.0,0.0,0.0,0.0,0.0,0.0,0.0,0.0,0.0,0.0,0.0,0.0,0.0,0.0,0.0,0.0,-0.5041,-0.5015,0.0,0.0,0.0,0.0,0.0,0.0,0.0,0.0,0.0,0.0,0.0,0.0,-0.4225,-0.4899,-0.5193,-0.4837,-0.4748,-0.4569,-0.4389,-0.4234,-0.4195,-0.4195,-0.3765,-0.3487,0.0,0.0,0.0,0.0,0.0,0.0,0.0,0.0,0.0,0.0,0.0,0.0,0.0,0.0,0.0,0.0,0.0,0.0,0.0,0.0,0.0,0.0,0.0,0.0,0.0,0.0,0.0,0.0,0.0,0.0,0.0,0.0,0.3429,0.3131,0.0,0.0,0.0,0.0,0.0,0.0,0.0,0.0,0.0,0.0,0.0,0.0,0.0,0.0,-0.0407,-0.0828,-0.1012,-0.1031,-0.1225,-0.1235,-0.1059,-0.1061,-0.0974,-0.0709,-0.0883,0.0,-0.0651,-0.0727,0.0,0.0,0.0,0.0,0.0,0.0,0.0,0.0,0.0,0.0,0.0,0.0,0.0,0.0,0.0,0.0,0.0,0.0,0.0,0.0,0.0,0.0,-0.548,-0.548,-0.5486,-0.5571,0.0,-0.4976,-0.4719,-0.5589,0.0,0.0,0.0,0.0,0.0,0.0,0.0,0.0,-0.4744,-0.5119,-0.528,-0.501,-0.4837,-0.4661,-0.4661,-0.4467,-0.4281,-0.4281,-0.4202,-0.385,-0.3418,-0.3209,0.0,0.0,0.0,0.0,0.0,0.0,0.0,0.0,0.0,0.0,0.0,0.0,0.0,0.0,0.0,0.0,0.0,0.0,0.0,0.0,0.0,0.0,0.0,0.0,0.0,0.0,0.0,0.0,0.0,0.2673,0.2643,0.2409,0.2223,0.1833,0.0,0.0,0.0,0.0,0.0,0.0,0.0,0.0,0.0,-0.0653,-0.0745,-0.0842,-0.0946,-0.1129,-0.1228,-0.124,-0.134,-0.1345,-0.1256,-0.1345,-0.1256,-0.1076,-0.1256,-0.1236,-0.1118,-0.1019,-0.1176,-0.133,0.0,0.0,0.0,0.0,0.0,-0.1554,-0.1987,0.0,0.0,0.0,0.0,0.0,0.0,0.0,0.0,0.0,0.0,0.0,0.0,0.0,0.0,-0.581,-0.578,-0.5733,-0.5733,-0.5391,-0.5241,0.0,-0.5661,-0.5589,-0.5439,0.0,0.0,0.0,0.0,0.0,-0.5023,-0.5303,-0.528,-0.501,-0.4837,-0.4661,-0.448,-0.4389,-0.43,-0.43,-0.4265,-0.4094,-0.3787,-0.3502,-0.2974,0.0,0.0,0.0,0.0,0.0,0.0,0.0,0.0,0.0,0.0,0.0,0.0,0.0,0.0,0.0,0.0,0.0,0.0,0.0,0.0,0.0,0.0,0.0,0.0,0.0,0.0,0.0,0.0,0.2219,0.2343,0.2401,0.2087,0.169,0.0,0.0,0.0,0.0,0.0,0.0,-0.0807,-0.0577,-0.0673,-0.1198,-0.1218,-0.1241,-0.1446,-0.1446,-0.1451,-0.1459,-0.1459,-0.1459,-0.1459,-0.1459,-0.1459,-0.1458,-0.1451,-0.1446,-0.1444,-0.1325,-0.1401,-0.1574,-0.1721,-0.171,0.0,-0.171,-0.1796,-0.18,-0.2263,-0.2625,-0.28,-0.2712,0.0,-0.4409,-0.4502,0.0,0.0,0.0,0.0,-0.645,-0.643,0.0,-0.6225,-0.6148,-0.5908,-0.5822,-0.5733,-0.5708,-0.5667,0.0,-0.5863,-0.5759,-0.5468,0.0,0.0,0.0,0.0,-0.5211,-0.5328,-0.5409,-0.5371,-0.5191,-0.4924,-0.4656,-0.4476,-0.4387,-0.43,-0.43,-0.43,-0.422,-0.4042,-0.3722,-0.3278,-0.2802,0.0,0.0,0.0,0.0,0.0,0.0,0.0,0.0,0.0,0.0,0.0,0.0,0.0,0.0,0.0,0.0,0.0,0.0,0.0,0.0,0.0,0.0,0.0,0.0,0.0,0.0,0.0,0.0,0.0,0.3912,0.2623,0.0,0.0,0.0,0.0,-0.0669,0.0171,0.0086,-0.1039,-0.0176,-0.0178,-0.1341,-0.1343,-0.1448,-0.1478,-0.1478,-0.1493,-0.1521,-0.1521,-0.1521,-0.1521,-0.1521,-0.1521,-0.152,-0.1491,-0.1478,-0.1476,-0.1445,-0.1254,-0.1164,-0.1163,-0.0983,-0.0805,-0.1073,-0.1162,-0.1163,-0.1432,-0.2058,-0.2773,-0.1791,-0.2647,-0.442,-0.6227,-0.6729,0.0,0.0,-0.6741,-0.6602,-0.6747,-0.6602,-0.6334,-0.6169,-0.6083,-0.5994,-0.5733,-0.5643,-0.5849,0.0,-0.7034,-0.6984,-0.6919,0.0,-0.6297,-0.5532,-0.5282,-0.5328,-0.562,-0.5641,-0.5644,-0.5644,-0.528,-0.501,-0.501,-0.4565,-0.43,-0.43,-0.43,-0.422,-0.4042,-0.3948,-0.3741,-0.3336,-0.2871,0.0,0.0,0.0,0.0,0.0,0.0,0.0,0.0,0.0,0.0,0.0,0.0,0.0,0.0,0.0,0.0,0.0,0.0,0.0,0.0,0.0,0.0,0.0,0.0,0.0,0.0,0.0,0.0,0.2012,0.1772,0.0,0.0,-0.0425,-0.0938,-0.0944,-0.0789,-0.0798,-0.1242,-0.0995,-0.1006,-0.1465,-0.1483,-0.1499,-0.151,-0.151,-0.1515,-0.1526,-0.1526,-0.1526,-0.1526,-0.1526,-0.1526,-0.1525,-0.1515,-0.151,-0.1509,-0.1498,-0.1378,-0.1256,-0.1256,-0.1256,-0.1166,-0.1256,-0.1256,-0.1345,-0.1345,-0.1614,-0.2061,-0.2953,-0.3735,-0.4594,-0.6446,-0.7027,-0.6993,-0.7048,-0.6974,-0.69,-0.6953,-0.6789,-0.6615,-0.6526,-0.6349,-0.6083,-0.5997,-0.5786,-0.5769,-0.6166,-0.6104,-0.6031,-0.5895,-0.5956,-0.5897,-0.5386,-0.5441,-0.5596,-0.5727,-0.5552,-0.5463,-0.5463,-0.5104,-0.4835,-0.4835,-0.4478,-0.43,-0.43,-0.43,-0.422,-0.4042,-0.4036,-0.3854,-0.3645,-0.3484,-0.3135,0.0,0.0,0.0,0.0,0.0,0.0,0.0,0.0,0.0,0.0,0.0,0.0,0.0,0.0,0.0,0.0,0.0,0.0,0.0,0.0,0.0,0.0,0.0,0.0,0.0,0.0,0.1952,0.1189,0.1038,0.0698,-0.0258,-0.0872,-0.1235,-0.1242,-0.1349,-0.1455,-0.1466,-0.1485,-0.1496,-0.1496,-0.1515,-0.1531,-0.1541,-0.1541,-0.1547,-0.1557,-0.1557,-0.1557,-0.1557,-0.1557,-0.1557,-0.1556,-0.1546,-0.1541,-0.154,-0.153,-0.1502,-0.1465,-0.1455,-0.1444,-0.1436,-0.1436,-0.1436,-0.1436,-0.1436,-0.1436,-0.1704,-0.3666,-0.4289,-0.4643,-0.6514,-0.7139,-0.7139,-0.7139,-0.7139,-0.7139,-0.7139,-0.6966,-0.6881,-0.6792,-0.6526,-0.6169,-0.6083,-0.5908,-0.5733,-0.5733,-0.5667,-0.5523,-0.5434,-0.559,-0.5601,-0.5305,-0.5566,-0.5719,-0.5678,-0.5528,-0.5463,-0.5463,-0.5104,-0.4837,-0.4837,-0.445,-0.4269,-0.4297,-0.4273,-0.4191,-0.4042,-0.4036,-0.395,-0.3767,-0.3763,-0.3486,-0.2799,0.0,0.0,0.0,0.0,0.0,0.0,0.0,0.0,0.0,0.0,0.0,0.0,0.0,0.0,0.0,0.0,0.0,0.0,0.0,0.0,0.0,0.0,0.0,0.1468,0.1268,0.1304,0.165,0.0443,-0.0179,0.0269,-0.0718,-0.1451,-0.148,-0.1482,-0.1495,-0.1524,-0.1527,-0.1528,-0.1528,-0.1528,-0.1543,-0.1573,-0.1573,-0.1588,-0.1617,-0.1617,-0.1617,-0.1617,-0.1617,-0.1617,-0.1615,-0.1585,-0.1573,-0.157,-0.1541,-0.1528,-0.1524,-0.1494,-0.1463,-0.1437,-0.1437,-0.1436,-0.1436,-0.1436,-0.1436,-0.1704,-0.3666,-0.4289,-0.4643,-0.6514,-0.7139,-0.7139,-0.7139,-0.7139,-0.7139,-0.7139,-0.7139,-0.7054,-0.6881,-0.6612,-0.6343,-0.6171,-0.5908,-0.5733,-0.5733,-0.5733,-0.5733,-0.5733,-0.5733,-0.5692,-0.5489,-0.5657,0.0,-0.5486,-0.5571,-0.5733,-0.5733,-0.528,-0.501,-0.501,-0.4487,-0.4212,-0.4293,-0.422,-0.4132,-0.404,-0.4032,-0.3946,-0.3767,-0.3763,-0.3488,-0.2802,0.0,0.0,0.0,0.0,0.0,0.0,0.0,0.0,0.0,0.0,0.0,0.0,0.0,0.0,0.0,0.0,0.0,0.0,0.0,0.0,0.0,0.0,0.1709,0.1086,0.1298,0.1252,0.0272,-0.0183,-0.0553,-0.0936,-0.1313,-0.1504,-0.1513,-0.1513,-0.1517,-0.1525,-0.1547,-0.1559,-0.1559,-0.1581,-0.1596,-0.1605,-0.1605,-0.1609,-0.1617,-0.1617,-0.1617,-0.1617,-0.1617,-0.1617,-0.1616,-0.1608,-0.1605,-0.1604,-0.1595,-0.1579,-0.1556,-0.1525,-0.1495,-0.1468,-0.1468,-0.1454,-0.1436,-0.1436,-0.1436,-0.1704,-0.3666,-0.4289,-0.4643,-0.6514,-0.7139,-0.7139,-0.7139,-0.7139,-0.7139,-0.7139,-0.7139,-0.7054,-0.6881,-0.6612,-0.6343,-0.6171,-0.5908,-0.5733,-0.5733,-0.5733,-0.5733,-0.5733,-0.5733,-0.5722,-0.5689,0.0,0.0,-0.5687,-0.5534,-0.5552,-0.5644,-0.5107,-0.4835,-0.501,-0.4543,-0.4273,0.0,-0.422,-0.4132,-0.404,-0.3971,-0.3881,-0.3765,-0.3682,-0.3361,0.0,0.0,0.0,0.0,0.0,0.0,0.0,0.0,0.0,0.0,0.0,0.0,0.0,0.0,0.0,0.0,0.0,0.0,0.0,0.0,0.0,0.0,0.1388,0.1422,0.0439,0.0895,0.0913,-0.0277,-0.0653,-0.1035,-0.1429,-0.1526,-0.1531,-0.1544,-0.1545,-0.1551,-0.1564,-0.1581,-0.159,-0.159,-0.1608,-0.1617,-0.1617,-0.1617,-0.1617,-0.1617,-0.1617,-0.1617,-0.1617,-0.1617,-0.1617,0.0,-0.1617,-0.1617,-0.1617,-0.1617,-0.1607,0.0,0.0,0.0,0.0,0.0,-0.147,-0.1453,-0.144,-0.1436,-0.1614,-0.3221,-0.4022,-0.4556,-0.6071,-0.6786,-0.7139,-0.7139,-0.7139,-0.7139,-0.7139,-0.7139,-0.7051,-0.6966,-0.67,-0.6523,-0.6257,-0.5994,-0.5822,-0.5733,0.0,0.0,-0.5733,-0.5733,-0.5716,-0.5665,-0.57,-0.5716,0.0,-0.5523,-0.5552,-0.5552,-0.5104,-0.4835,-0.4835,-0.4532,0.0,0.0,0.0,-0.4073,-0.3983,-0.3891,0.0,0.0,0.0,-0.3528,0.0,0.0,0.0,0.0,-0.157,-0.119,0.0,0.0,0.0,0.0,0.0,0.0,0.0,0.0,0.0,0.0,0.0,0.0,0.0,0.0,0.0,0.0,0.1263,0.1204,-0.0186,0.0186,0.0279,-0.0466,-0.1136,-0.1532,-0.1536,-0.1536,-0.1547,-0.1575,-0.158,-0.1594,-0.1621,0.0,0.0,0.0,0.0,-0.1626,-0.1626,-0.1626,-0.1626,-0.1626,-0.1626,-0.1626,-0.1626,-0.1626,-0.1626,-0.1626,-0.1624,-0.1622,-0.1622,-0.1618,-0.1617,-0.1613,-0.1583,-0.1555,-0.1528,-0.1497,-0.1486,0.0,0.0,0.0,0.0,-0.2601,-0.3491,-0.4378,-0.5361,-0.6251,-0.6962,-0.7051,-0.7139,-0.7139,-0.7139,-0.7139,-0.7051,-0.7051,-0.6881,-0.6704,-0.6432,-0.6169,-0.5997,-0.5733,-0.5733,-0.5733,-0.5733,-0.5733,-0.5697,-0.5499,-0.5662,0.0,-0.5499,-0.5577,-0.5552,-0.5371,0.0,0.0,-0.4748,-0.4408,-0.4216,-0.4281,-0.4118,-0.3979,-0.3887,-0.3805,-0.3763,-0.3763,-0.3763,-0.3763,-0.3763,-0.3763,-0.3372,-0.2507,-0.2102,-0.1564,0.0,0.0,0.0,0.0,0.0,0.0,0.0,0.0,0.0,0.0,0.0,0.0,0.0,0.0,0.0,0.0797,0.1275,0.121,-0.0189,-0.0288,-0.0583,-0.1262,-0.1461,-0.1572,-0.1597,-0.1599,-0.1602,-0.1608,-0.1631,-0.1647,-0.1653,-0.1675,0.0,-0.1687,-0.1687,-0.1687,-0.1687,-0.1687,-0.1687,-0.1687,0.0,0.0,-0.1687,-0.1687,-0.1687,-0.1686,-0.1663,-0.1654,-0.1652,-0.1627,-0.1617,-0.1613,-0.1583,-0.1568,-0.1559,-0.1528,-0.1517,-0.1513,-0.1483,-0.1472,-0.1651,-0.2613,-0.3045,-0.3491,-0.5184,-0.5808,0.0,-0.6874,-0.7139,-0.7139,-0.7139,-0.7139,-0.7051,-0.6881,-0.67,-0.6432,-0.6169,-0.5997,-0.5733,-0.5733,-0.5733,-0.5733,-0.5733,-0.5733,-0.5725,-0.57,-0.5719,-0.5725,-0.57,-0.5359,-0.5191,-0.5371,-0.4835,-0.4478,-0.4661,-0.4463,-0.4253,-0.42,-0.4026,-0.3885,-0.3793,-0.3773,-0.3763,-0.3763,-0.3763,-0.3763,-0.3763,-0.3763,-0.3372,-0.251,-0.2409,-0.194,0.0,0.0,0.0,0.0,0.0,0.0,0.0,0.0,0.0,0.0,0.0,0.1207,0.0,0.0,0.1142,0.0725,0.0654,0.0191,-0.087,-0.1092,-0.1204,-0.1575,-0.1598,-0.1623,-0.1638,-0.1652,-0.166,-0.166,-0.1675,-0.1683,-0.1683,-0.1697,-0.1704,-0.1704,-0.1704,-0.1704,-0.1704,-0.1704,-0.1704,-0.1704,-0.1704,-0.1704,-0.1704,-0.1704,-0.1704,-0.1703,-0.169,-0.1683,-0.1681,-0.1652,-0.1639,-0.1637,-0.1606,-0.1594,-0.159,-0.156,-0.1549,-0.1545,-0.1514,-0.1493,-0.157,-0.201,-0.2531,-0.3135,-0.4559,-0.5361,-0.5897,-0.6874,-0.7139,-0.7139,-0.7139,-0.7139,-0.7054,-0.6881,-0.6704,-0.6523,-0.6171,-0.5997,-0.5819,-0.5733,-0.5733,-0.5733,-0.5733,-0.5733,-0.5733,-0.5733,-0.5733,-0.5733,-0.5733,-0.5463,-0.5282,-0.5191,-0.4832,-0.4565,-0.448,-0.4349,-0.4197,-0.411,-0.3975,-0.3859,-0.3767,-0.3763,-0.3763,-0.3763,-0.3763,-0.3763,-0.3763,-0.3763,-0.345,-0.2826,-0.2589,-0.2041,0.0,0.0,0.0,0.0,0.0,0.0,0.0,0.0,0.205,0.1616,0.1309,0.1168,0.1536,0.1146,0.0637,0.0466,-0.0096,-0.0787,-0.1488,-0.1631,-0.1646,-0.1603,-0.1641,-0.167,-0.167,-0.1691,-0.1704,-0.1704,-0.171,-0.1713,-0.1713,-0.1718,-0.1722,-0.1722,-0.1722,-0.1722,-0.1722,-0.1722,-0.1722,-0.1722,-0.1722,-0.1722,-0.1722,-0.1722,-0.1722,-0.1722,-0.1716,-0.171,-0.1703,-0.168,-0.1667,-0.166,-0.1635,-0.1622,-0.1613,-0.159,-0.158,-0.1576,-0.1545,-0.1519,-0.1496,-0.1485,-0.2012,-0.2882,-0.3939,-0.4825,-0.5628,-0.6786,-0.7139,-0.7139,-0.7139,-0.7139,-0.7054,-0.6881,-0.6792,-0.6615,-0.6171,-0.6083,-0.5997,-0.5733,-0.5733,-0.5733,-0.5733,-0.5733,-0.5733,-0.5733,-0.5733,-0.5733,-0.5733,-0.5644,-0.5463,-0.501,-0.4921,-0.4743,-0.43,-0.4222,-0.4134,-0.4042,-0.395,-0.3859,-0.3767,-0.3763,-0.3763,-0.3763,-0.3763,-0.3763,-0.3763,-0.3763,-0.353,-0.3062,-0.2824,-0.2276,0.3158,0.2,0.2377,0.342,0.2768,0.2206,0.0,0.0,0.2254,0.2647,0.2128,0.1697,0.1734,0.1103,0.0467,-0.0291,-0.0489,-0.0795,-0.1541,-0.1658,-0.1669,-0.1687,-0.1695,-0.1699,-0.1699,-0.1703,-0.1704,-0.1704,-0.1729,-0.1744,-0.1744,-0.177,-0.1785,-0.1785,-0.1785,-0.1785,-0.1785,-0.1785,-0.1785,-0.1785,-0.1785,-0.1785,-0.1785,-0.1785,-0.1785,-0.1783,-0.1756,-0.1729,-0.1704,-0.1701,-0.1684,-0.1662,-0.1658,-0.1641,-0.1616,-0.1613,-0.1611,-0.1607,-0.1577,-0.1564,-0.1552,-0.1498,-0.1571,-0.202,-0.3776,-0.4376,-0.4823,-0.6602,-0.7139,-0.7139,-0.7139,-0.7139,-0.7054,-0.6881,-0.6612,-0.6343,-0.6171,-0.5908,-0.5733,-0.5733,-0.5733,-0.5733,-0.5733,-0.5733,-0.5733,-0.5733,-0.5733,-0.5733,-0.5733,-0.5552,-0.5282,-0.501,-0.4835,-0.4659,-0.43,-0.4222,-0.4134,-0.4042,-0.395,-0.3859,-0.3767,-0.3763,-0.3763,-0.3763,-0.3763,-0.3763,-0.3763,-0.3763,-0.353,-0.3141,-0.3452,-0.2979,0.4804,0.3069,0.2424,0.0,0.3921,0.3069,0.419,0.3735,0.3018,0.2959,0.2266,0.1741,0.1663,0.0755,-0.0096,0.0,-0.0892,-0.131,-0.1656,-0.1676,-0.1697,-0.1727,-0.1746,-0.175,-0.1733,-0.1747,-0.1757,-0.1757,-0.1769,-0.1776,-0.1776,-0.1788,-0.1795,-0.1795,-0.1795,-0.1795,-0.1795,-0.1795,-0.1795,-0.1795,-0.1795,-0.1795,-0.1795,-0.1795,-0.1795,-0.1794,-0.1781,-0.1769,-0.1755,-0.1738,-0.1713,-0.1685,-0.1669,-0.1643,-0.1617,-0.1617,-0.1617,-0.1615,-0.1602,-0.1586,-0.1567,-0.1542,-0.151,-0.1755,-0.3108,-0.3882,-0.4554,-0.5802,-0.652,-0.6969,-0.6969,-0.6969,-0.6881,-0.6792,-0.6612,-0.6343,-0.6171,-0.5908,-0.5733,-0.5733,-0.5733,-0.5733,-0.5733,-0.5733,-0.5733,-0.5733,-0.5733,-0.5733,-0.5733,-0.5644,-0.546,-0.501,-0.4656,-0.4389,-0.43,-0.4222,-0.4134,-0.4042,-0.395,-0.3859,-0.3767,-0.3763,-0.3763,-0.3763,-0.3763,-0.3763,-0.3763,-0.3763,-0.3684,-0.353,-0.3452,-0.3137,0.4814,0.3564,0.0,0.466,0.4279,0.3497,0.4028,0.3764,0.332,0.2963,0.2098,0.1391,0.1398,0.0192,-0.0787,-0.0791,-0.1302,-0.163,-0.1669,-0.1691,-0.1718,-0.1758,-0.1782,-0.1787,-0.1764,-0.1782,-0.1795,-0.1795,-0.1795,-0.1795,-0.1795,-0.1795,-0.1795,-0.1795,-0.1795,-0.1795,-0.1795,-0.1795,-0.1795,-0.1795,-0.1795,-0.1795,-0.1795,-0.1795,-0.1795,-0.1795,-0.1795,-0.1795,-0.1793,-0.1771,-0.1739,-0.1702,-0.1682,-0.165,-0.1617,-0.1617,-0.1617,-0.1617,-0.1617,-0.1603,-0.1583,-0.1575,-0.1536,-0.1678,-0.2592,-0.3549,-0.4467,-0.5181,-0.6074,-0.6795,-0.6704,-0.6704,-0.6704,-0.6615,-0.6435,-0.6257,-0.5994,-0.5822,-0.5733,-0.5733,-0.5733,-0.5733,-0.5733,-0.5733,-0.5733,-0.5733,-0.5733,-0.5733,-0.5733,-0.5552,-0.5371,-0.501,-0.4565,-0.43,-0.43,-0.4242,-0.4169,-0.4079,-0.3987,-0.3895,-0.3803,-0.3777,-0.3763,-0.3763,-0.3763,-0.3763,-0.3763,-0.3763,-0.3763,-0.3763,-0.3452,-0.3217,0.1956,0.2439,0.3036,0.2695,0.2741,0.2964,0.2963,0.2963,0.2875,0.2875,0.1734,0.0744,0.0664,-0.0581,-0.1581,-0.1611,-0.1616,-0.1637,-0.1695,-0.1703,-0.1727,-0.1787,-0.1794,-0.1795,0.0,-0.1794,-0.1795,-0.1795,-0.1795,-0.1795,-0.1795,-0.1795,-0.1795,-0.1795,-0.1795,-0.1795,-0.1795,-0.1795,-0.1795,-0.1795,-0.1795,-0.1795,-0.1795,-0.1795,-0.1795,-0.1795,-0.1795,-0.1795,-0.1795,-0.1794,-0.1758,-0.1704,-0.1703,-0.1667,-0.1617,-0.1617,-0.1617,-0.1617,-0.1617,-0.1616,-0.1611,-0.1581,-0.155,-0.1708,-0.2604,-0.3549,-0.4467,-0.5181,-0.6074,-0.6704,-0.652,-0.6428,-0.6343,-0.6171,-0.6083,-0.5997,-0.5733,-0.5733,-0.5733,-0.5733,-0.5733,-0.5733,-0.5733,-0.5733,-0.5733,-0.5733,-0.5733,-0.5733,-0.5733,-0.5282,-0.501,-0.501,-0.4565,-0.43,-0.43,-0.4297,-0.4259,-0.4173,-0.4081,-0.3991,-0.3899,-0.381,-0.3763,-0.3763,-0.3763,-0.3763,-0.3763,-0.3763,-0.3763,-0.3763,-0.3763,-0.353,0.2529,0.2749,0.2703,0.2744,0.2858,0.2875,0.2875,0.2875,0.2875,0.2875,0.1624,0.0456,0.0372,-0.076,-0.1745,-0.178,-0.1704,-0.1637,-0.1696,-0.1704,-0.1727,-0.1788,-0.1795,0.0,0.0,0.0,0.0,-0.1795,-0.1795,-0.1795,-0.1795,-0.1795,-0.1795,-0.1795,-0.1795,-0.1795,-0.1795,-0.1795,-0.1795,-0.1795,-0.1795,-0.1795,-0.1795,-0.1795,-0.1795,-0.1795,-0.1795,-0.1795,-0.1793,-0.1774,-0.1741,-0.1703,-0.1684,-0.1652,-0.1617,-0.1617,-0.1617,-0.1617,-0.1617,-0.1617,-0.1615,-0.1605,-0.1567,-0.1524,-0.1891,-0.267,-0.3491,-0.4024,-0.4917,-0.5722,-0.608,-0.6169,-0.6257,-0.6254,-0.6169,-0.6083,-0.5997,-0.5822,-0.5733,-0.5733,-0.5733,-0.5733,-0.5733,-0.5733,-0.5733,-0.5733,-0.5733,-0.5733,-0.5733,-0.528,-0.501,-0.501,-0.4565,-0.43,-0.43,-0.43,-0.4263,-0.4179,-0.4144,-0.4059,-0.3906,-0.3871,-0.3826,-0.3765,-0.3763,-0.3763,-0.3763,-0.3763,-0.3763,-0.3763,-0.3763,-0.3684,0.2844,0.2883,0.2911,0.2864,0.2875,0.2875,0.2875,0.2875,0.2875,0.2875,0.1615,0.045,0.0365,-0.0749,-0.1628,-0.1455,-0.1292,-0.1228,-0.1272,-0.1278,-0.1403,-0.1787,-0.1795,-0.1795,0.0,0.0,0.0,-0.1795,-0.1795,-0.1795,-0.1795,-0.1795,-0.1795,-0.1795,-0.1795,-0.1795,-0.1795,-0.1795,-0.1795,-0.1795,-0.1795,-0.1795,-0.1795,-0.1795,-0.1795,-0.1795,-0.1795,-0.1789,-0.1777,-0.1758,-0.1726,-0.1688,-0.1669,-0.1643,-0.1617,-0.1617,-0.1617,-0.1617,-0.1617,-0.1617,-0.1617,-0.1617,-0.1576,-0.1526,-0.1526,-0.2132,-0.2956,-0.3491,-0.4293,-0.5188,-0.5816,-0.5997,-0.5994,-0.608,-0.6083,-0.5997,-0.5997,-0.5822,-0.5733,-0.5733,-0.5733,-0.5733,-0.5733,-0.5733,-0.5733,-0.5733,-0.5733,-0.5733,-0.5733,-0.5371,-0.5099,-0.501,-0.4656,-0.4389,-0.43,-0.43,-0.4275,-0.4222,-0.4189,-0.4106,-0.3955,-0.3918,-0.3857,-0.3765,-0.3763,-0.3763,-0.3763,-0.3763,-0.3763,-0.3763,-0.3763,-0.3763,0.2785,0.3095,0.3502,0.3053,0.2876,0.2877,0.2875,0.2875,0.2875,0.2875,0.1702,0.0626,0.0,0.0,-0.133,-0.0667,-0.0492,-0.0511,-0.053,-0.0532,-0.0863,0.0,0.0,0.0,0.0,0.0,0.0,-0.1795,0.0,-0.1795,-0.1795,-0.1795,-0.1795,-0.1795,-0.1795,-0.1795,-0.1795,-0.1795,-0.1795,-0.1795,-0.1795,-0.1795,-0.1795,-0.1795,-0.1795,-0.1795,-0.1795,-0.1778,-0.175,-0.1748,-0.1714,-0.1662,-0.166,-0.1642,-0.1617,-0.1617,-0.1617,-0.1617,-0.1617,-0.1617,-0.1617,-0.1617,-0.1576,-0.1526,-0.1526,-0.2132,-0.2956,-0.3491,-0.4204,-0.501,-0.5552,-0.5733,-0.5733,-0.5733,-0.5733,-0.5733,-0.5733,-0.5733,-0.5733,-0.5733,-0.5733,-0.5733,-0.5733,-0.5733,-0.5733,-0.5733,-0.5733,-0.5733,-0.5733,-0.5552,-0.5282,-0.501,-0.4837,-0.4569,-0.43,-0.43,-0.43,-0.43,-0.4224,-0.4138,-0.4046,-0.3955,-0.3865,-0.3771,-0.3765,-0.3763,-0.3763,-0.3763,-0.3763,-0.3763,-0.3763,-0.3763,0.3189,0.3252,0.3109,0.2974,0.2906,0.2926,0.2884,0.2875,0.2875,0.2875,0.1662,0.0691,0.0,0.0,0.0,-0.0852,-0.1071,0.0,-0.1375,-0.1385,0.0,-0.1787,0.0,-0.1795,-0.1795,-0.1795,0.0,0.0,-0.1795,-0.1795,-0.1795,-0.1795,-0.1795,-0.1795,-0.1795,-0.1795,-0.1795,-0.1795,-0.1795,-0.1795,-0.1795,-0.1795,-0.1795,-0.1795,-0.1795,-0.1795,-0.1795,-0.1778,-0.1748,-0.1725,-0.1695,-0.166,-0.1637,-0.1624,-0.1617,-0.1617,-0.1617,-0.1617,-0.1617,-0.1617,-0.1617,-0.1617,-0.1576,-0.1526,-0.1526,-0.1669,-0.2061,-0.3221,-0.3757,-0.4204,-0.5374,-0.5733,-0.5733,-0.5733,-0.5733,-0.5733,-0.5733,-0.5733,-0.5733,-0.5733,-0.5733,-0.5733,-0.5733,-0.5733,-0.5733,-0.5733,-0.5733,-0.5733,-0.5733,-0.5552,-0.5371,-0.5282,-0.4926,-0.4661,-0.4569,-0.4389,-0.43,-0.43,-0.4279,-0.4228,-0.414,-0.405,-0.3959,-0.3867,-0.3797,-0.3763,-0.3763,-0.3763,-0.3763,-0.3763,-0.3763,-0.3763,0.3253,0.3208,0.2951,0.2918,0.2935,0.2844,0.2407,0.2301,0.2207,0.1923,0.0933,0.0251,0.0867,-0.0435,0.0,0.0,0.0,0.0,-0.115,-0.1166,-0.1291,0.0,-0.1787,0.0,-0.1795,-0.1795,-0.1795,0.0,-0.1795,-0.1795,-0.1795,-0.1795,-0.1795,-0.1795,-0.202,-0.2356,-0.2579,-0.2579,-0.2579,-0.2579,-0.2579,-0.2579,-0.2579,-0.2356,-0.2244,-0.2131,0.0,-0.1758,-0.1727,-0.1698,-0.1669,-0.1641,-0.1624,-0.1617,-0.1617,-0.1617,-0.1617,-0.1617,-0.1617,-0.1617,-0.1615,-0.1601,-0.1565,-0.1523,-0.151,-0.1473,-0.1704,-0.3221,-0.3578,-0.3937,-0.5374,-0.5733,-0.5733,-0.5733,-0.5733,-0.5733,-0.5733,-0.5733,-0.5733,-0.5733,-0.5733,-0.5733,-0.5733,-0.5733,-0.5733,-0.5733,-0.5733,-0.5733,-0.5733,-0.5644,-0.5463,-0.5371,-0.5193,-0.4928,-0.475,-0.4569,-0.4389,-0.43,-0.43,-0.4261,-0.4177,-0.4085,-0.3993,-0.3901,-0.381,-0.3763,-0.3763,-0.3763,-0.3763,-0.3763,-0.3763,-0.3763,0.3126,0.2958,0.2958,0.2958,0.2958,0.2744,0.1754,0.1477,0.1295,0.0675,0.0,-0.0245,0.0504,-0.0428,-0.0878,0.0367,0.0,-0.0396,-0.0514,-0.0631,-0.0964,-0.1855,-0.1887,-0.1795,-0.1908,-0.1795,-0.1795,-0.1795,-0.1795,-0.1795,-0.1795,-0.1907,-0.1908,-0.2019,-0.258,-0.3029,-0.3587,-0.3587,-0.3587,-0.3587,-0.3587,-0.3587,-0.3587,-0.3029,-0.2802,-0.2794,0.0,0.0,-0.1908,-0.1881,-0.1747,-0.1718,-0.1718,-0.1617,-0.1617,-0.1617,-0.1617,-0.1617,-0.1617,-0.1617,-0.1612,-0.1581,-0.1551,-0.1521,-0.149,-0.1459,-0.1704,-0.3223,-0.3578,-0.3937,-0.5374,-0.5733,-0.5733,-0.5733,-0.5733,-0.5733,-0.5733,-0.5733,-0.5733,-0.5733,-0.5733,-0.5733,-0.5733,-0.5733,-0.5733,-0.5733,-0.5733,-0.5733,-0.5733,-0.5733,-0.5644,-0.5463,-0.5371,-0.5193,-0.4748,-0.4659,-0.4569,-0.43,-0.43,-0.4267,-0.4193,-0.4102,-0.401,-0.392,-0.3828,-0.3775,-0.3763,-0.3763,-0.3763,-0.3763,-0.3763,-0.3763,0.3035,0.2958,0.2958,0.2958,0.2958,0.2744,0.193,0.165,0.0,0.0675,0.0,-0.0164,0.1114,0.0341,-0.0259,0.055,0.0094,-0.068,-0.1312,-0.1461,-0.1716,0.0,-0.211,-0.202,-0.2469,-0.2132,0.0,0.0,0.0,0.0,-0.1795,-0.2244,-0.2805,-0.3251,-0.3363,-0.3475,-0.3587,-0.3587,-0.3587,-0.3587,-0.3587,-0.3587,-0.3587,-0.3475,-0.3449,-0.3293,0.0,0.0,-0.3018,-0.2596,-0.236,-0.222,-0.222,-0.2019,-0.1617,-0.1617,-0.1617,-0.1617,-0.1617,-0.1617,-0.1612,-0.1581,-0.1551,-0.1521,-0.149,-0.1459,-0.1704,-0.3401,-0.3758,-0.3935,-0.5636,-0.5908,-0.5733,-0.5733,-0.5733,-0.5733,-0.5733,-0.5733,-0.5733,-0.5733,-0.5733,-0.5733,-0.5733,-0.5733,-0.5733,-0.5733,-0.5733,-0.5733,-0.5733,-0.5733,-0.5644,-0.5644,-0.5282,-0.501,-0.4921,-0.4567,-0.4389,-0.43,-0.43,-0.4293,-0.4277,-0.4195,-0.4106,-0.4014,-0.3922,-0.3838,-0.3763,-0.3763,-0.3763,-0.3763,-0.3763,-0.3763,0.2943,0.2958,0.2958,0.2958,0.2958,0.2644,0.1297,0.0,0.0,-0.0653,-0.1125,-0.0967,0.025,-0.0333,0.0,0.0,-0.0459,-0.1035,-0.1582,-0.1834,-0.2198,-0.2582,-0.2411,-0.2334,0.0,0.0,0.0,0.0,0.0,0.0,-0.2244,-0.2805,-0.3475,-0.4033,-0.4033,-0.4258,-0.4484,-0.4484,-0.4484,-0.4484,-0.4484,-0.4484,-0.4482,-0.4109,-0.3961,-0.3928,0.0,0.0,-0.3312,-0.2976,-0.2645,-0.2422,-0.2422,-0.212,-0.1617,-0.1617,-0.1617,-0.1617,-0.1617,-0.1617,-0.1609,-0.1563,-0.1538,-0.1517,-0.1471,-0.1446,-0.1614,-0.2686,-0.331,-0.3848,-0.4921,-0.546,-0.5733,-0.5733,-0.5733,-0.5733,-0.5733,-0.5733,-0.5733,-0.5733,-0.5733,-0.5733,-0.5733,-0.5733,-0.5733,-0.5733,-0.5733,-0.5733,-0.5733,-0.5733,-0.5733,-0.5733,-0.5463,-0.528,-0.501,-0.4832,-0.4565,-0.43,-0.43,-0.43,-0.43,-0.4218,-0.413,-0.4038,-0.3946,-0.3854,-0.3763,-0.3763,-0.3763,-0.3763,-0.3763,-0.3763,0.2939,0.295,0.2943,0.2955,0.295,0.2534,0.0681,0.0252,-0.0249,-0.19,-0.2196,-0.1895,-0.0808,-0.0975,-0.1163,0.0,-0.0801,-0.1275,-0.1549,-0.2082,-0.2542,0.0,-0.27,0.0,-0.3008,0.0,0.0,0.0,0.0,0.0,0.0,-0.3587,-0.4033,-0.4704,-0.4704,-0.4931,-0.5382,-0.5382,-0.5382,-0.5382,-0.5382,-0.5371,-0.5349,-0.4724,-0.4458,-0.4419,0.0,0.0,0.0,-0.3451,-0.3128,-0.2724,-0.2623,-0.2221,-0.1717,-0.1617,-0.1617,-0.1617,-0.1617,-0.1617,-0.1607,-0.1546,-0.1526,-0.1515,-0.1454,-0.1436,-0.1524,-0.2329,-0.3042,-0.3757,-0.4476,-0.5193,-0.5733,-0.5733,-0.5733,-0.5733,-0.5733,-0.5733,-0.5733,-0.5733,-0.5733,-0.5733,-0.5733,-0.5733,-0.5733,-0.5733,-0.5733,-0.5733,-0.5733,-0.5733,-0.5733,-0.5733,-0.5644,-0.5463,-0.5099,-0.501,-0.4743,-0.4389,-0.43,-0.43,-0.43,-0.4234,-0.4157,-0.4067,-0.3975,-0.3883,-0.3793,-0.3773,-0.3763,-0.3763,-0.3763,-0.3763,0.2743,0.2921,0.2894,0.2946,0.292,0.2491,0.0849,0.0,-0.0249,-0.19,-0.2196,-0.1896,-0.1051,-0.0731,-0.0577,-0.0346,-0.0348,-0.0624,-0.1423,-0.204,-0.2592,-0.3206,0.0,0.0,-0.4047,0.0,0.0,0.0,0.0,0.0,0.0,-0.4369,-0.4706,-0.5268,-0.527,-0.5382,-0.5382,-0.5382,-0.5382,-0.5382,-0.5382,-0.5339,-0.5257,-0.5138,-0.5046,-0.489,0.0,0.0,0.0,-0.4135,-0.3932,-0.3831,-0.3331,-0.2826,-0.222,-0.1818,-0.1617,-0.1617,-0.1617,-0.1617,-0.1607,-0.1546,-0.1526,-0.1515,-0.1454,-0.1436,-0.1704,-0.3312,-0.3669,-0.3935,-0.5547,-0.5819,-0.5733,-0.5733,-0.5733,-0.5733,-0.5733,-0.5733,-0.5733,-0.5733,-0.5733,-0.5733,-0.5733,-0.5733,-0.5733,-0.5733,-0.5733,-0.5733,-0.5733,-0.5733,-0.5733,-0.5733,-0.5552,-0.5371,-0.5371,-0.5015,-0.4748,-0.4661,-0.4478,-0.43,-0.43,-0.4291,-0.4246,-0.4163,-0.4069,-0.3977,-0.3887,-0.3803,-0.3763,-0.3763,-0.3763,-0.3608,0.2613,0.2891,0.288,0.2902,0.2891,0.2486,0.0679,0.0,-0.0332,-0.2058,-0.2353,-0.2203,-0.159,-0.1433,-0.1213,-0.0931,-0.0927,-0.0859,-0.0834,-0.1319,-0.1928,-0.2632,-0.2525,0.0,0.0,0.0,0.0,0.0,0.0,0.0,0.0,-0.5043,-0.5156,-0.5382,-0.5382,-0.5382,-0.5382,-0.5382,-0.5382,-0.538,-0.5326,-0.5279,-0.5241,-0.513,-0.5041,-0.4969,0.0,0.0,0.0,-0.4533,-0.4332,-0.3932,-0.3732,-0.3127,-0.2422,-0.2523,-0.2122,-0.1617,-0.2019,-0.1919,-0.1607,-0.1546,-0.1526,-0.1515,-0.1454,-0.1436,-0.1614,-0.2776,-0.331,-0.3846,-0.4917,-0.5458,-0.5733,-0.5733,-0.5733,-0.5733,-0.5733,-0.5733,-0.5733,-0.5733,-0.5733,-0.5733,-0.5733,-0.5733,-0.5733,-0.5733,-0.5733,-0.5733,-0.5733,-0.5733,-0.5733,-0.5733,-0.5644,-0.5552,-0.5371,-0.5193,-0.5015,-0.4924,-0.4659,-0.4569,-0.4569,-0.4389,-0.4259,-0.4175,-0.4081,-0.3991,-0.3899,-0.3808,-0.3763,-0.3763,-0.3763,-0.353,0.2493,0.2875,0.2875,0.2875,0.2603,0.1951,0.0,0.0,-0.0746,-0.2218,-0.2511,-0.2354,-0.1964,-0.1976,-0.1851,-0.1339,-0.1163,-0.1015,-0.0732,-0.0919,-0.1494,0.0,0.0,0.0,0.0,0.0,0.0,0.0,0.0,0.0,0.0,0.0,-0.5382,-0.5382,-0.5382,-0.5382,-0.5382,-0.5355,-0.5341,-0.5341,-0.5247,-0.519,-0.5159,-0.503,-0.4957,0.0,0.0,0.0,0.0,-0.4834,-0.4533,-0.4234,-0.4033,-0.353,-0.2925,-0.3128,-0.2625,-0.1918,-0.222,-0.2019,-0.1607,-0.1546,-0.1526,-0.1515,-0.1454,-0.1436,-0.1614,-0.2597,-0.358,-0.4472,-0.483,-0.5282,-0.5733,-0.5733,-0.5733,-0.5733,-0.5733,-0.5733,-0.5733,-0.5733,-0.5733,-0.5733,-0.5733,-0.5733,-0.5733,-0.5733,-0.5733,-0.5733,-0.5733,-0.5733,-0.5733,-0.5733,-0.5733,-0.5644,-0.5463,-0.546,-0.5282,-0.5099,-0.4837,-0.4661,-0.4661,-0.4478,-0.4271,-0.4212,-0.4122,-0.4032,-0.3938,-0.3848,-0.3789,-0.3763,-0.3763,-0.3452,0.2306,0.2875,0.2875,0.2875,0.1972,0.0973,0.0,0.0,-0.1742,-0.2376,-0.2511,-0.2354,-0.1964,-0.2082,-0.2047,-0.1427,-0.0925,-0.0774,-0.1376,-0.1364,0.0,0.0,0.0,0.0,0.0,0.0,0.0,0.0,0.0,0.0,0.0,0.0,-0.5382,-0.5382,-0.5382,-0.5382,-0.5382,-0.529,-0.5245,-0.5245,-0.5153,-0.5061,-0.4975,-0.4973,0.0,0.0,0.0,0.0,0.0,-0.4834,-0.4834,-0.4734,-0.4234,-0.4033,-0.3932,-0.3432,-0.2826,-0.2422,-0.2422,-0.2019,-0.1607,-0.1546,-0.1526,-0.1515,-0.1454,-0.1436,-0.1704,-0.3401,-0.4919,-0.5994,-0.5733,-0.5733,-0.5733,-0.5733,-0.5733,-0.5733,-0.5733,-0.5733,-0.5733,-0.5733,-0.5733,-0.5733,-0.5733,-0.5733,-0.5733,-0.5733,-0.5733,-0.5733,-0.5733,-0.5733,-0.5733,-0.5733,-0.5733,-0.5733,-0.5733,-0.5552,-0.5371,-0.5371,-0.4926,-0.4661,-0.4661,-0.4478,-0.43,-0.4297,-0.4216,-0.4126,-0.4034,-0.3942,-0.385,-0.3763,-0.3763,-0.3372,0.017,0.0685,0.0685,0.0685,0.026,-0.026,-0.0829,0.0,-0.1742,-0.2376,-0.2511,-0.2433,-0.2119,-0.2211,-0.1929,-0.1003,-0.0663,-0.042,0.0,0.0,0.0,0.0,0.0,0.0,0.0,0.0,0.0,0.0,0.0,0.0,0.0,0.0,-0.5382,-0.5382,-0.5382,-0.5351,-0.5288,-0.5259,-0.5212,-0.5151,-0.5059,-0.5,-0.4969,-0.4906,0.0,0.0,0.0,0.0,0.0,-0.4834,-0.4834,-0.4734,-0.4634,-0.4334,-0.4033,-0.4234,-0.3528,-0.2422,-0.2826,-0.2323,-0.1607,-0.1546,-0.1526,-0.1609,-0.2269,-0.1973,-0.1704,-0.3223,-0.4917,-0.6169,-0.5819,-0.5733,-0.5733,-0.5733,-0.5733,-0.5733,-0.5733,-0.5819,-0.5997,-0.5997,-0.5997,-0.5997,-0.5997,-0.5822,-0.5733,-0.5733,-0.5733,-0.5733,-0.5733,-0.5733,-0.5733,-0.5733,-0.5733,-0.5733,-0.5733,-0.5644,-0.5644,-0.5644,-0.5193,-0.4924,-0.4924,-0.4478,-0.43,-0.43,-0.4216,-0.4128,-0.4036,-0.3944,-0.3852,-0.3763,-0.3215,-0.2744,-0.0914,-0.0419,-0.0419,-0.0419,-0.0762,0.0,0.0,-0.1807,-0.2218,-0.2451,-0.2511,-0.2431,-0.2275,-0.2292,-0.2087,-0.1238,-0.0749,-0.0507,0.0,0.0,0.0,0.0,0.0,0.0,0.0,0.0,0.0,0.0,0.0,0.0,0.0,0.0,-0.5365,-0.5331,-0.5331,-0.5302,-0.5245,-0.5175,-0.5114,-0.5055,-0.4965,-0.492,-0.4918,0.0,0.0,0.0,0.0,0.0,0.0,-0.4834,-0.4834,-0.4834,-0.4834,-0.4634,-0.4334,-0.4634,-0.4031,-0.3026,-0.3128,-0.2613,-0.1889,-0.1542,-0.151,-0.167,-0.2619,-0.2956,-0.3221,-0.4024,-0.5361,-0.6435,-0.6083,-0.5908,-0.5819,-0.5819,-0.5733,-0.5733,-0.5822,-0.5997,-0.6083,-0.6169,-0.6257,-0.6169,-0.6083,-0.5997,-0.5822,-0.5733,-0.5733,-0.5733,-0.5733,-0.5733,-0.5733,-0.5733,-0.5733,-0.5733,-0.5733,-0.5733,-0.5733,-0.5733,-0.528,-0.501,-0.501,-0.4565,-0.43,-0.43,-0.4246,-0.4177,-0.4087,-0.3961,-0.3852,-0.3763,-0.2902,-0.2511,0.0,-0.075,-0.0667,-0.0667,-0.1336,-0.1996,-0.1709,-0.2354,0.0,-0.2602,-0.2511,-0.2433,-0.228,-0.2403,-0.244,-0.1953,-0.1013,-0.0782,0.0,0.0,0.0,0.0,0.0,0.0,0.0,0.0,0.0,0.0,0.0,0.0,0.0,0.0,0.0,-0.5239,-0.5228,-0.5224,-0.5224,-0.5057,-0.4969,-0.4961,-0.4875,-0.4834,-0.4834,0.0,0.0,0.0,0.0,0.0,0.0,-0.4834,-0.4834,-0.4832,-0.4828,-0.4824,-0.4824,-0.4818,-0.4416,-0.3917,-0.3417,-0.2881,-0.2244,-0.1724,-0.1483,-0.1704,-0.2688,-0.4204,-0.5542,-0.5447,-0.6074,-0.6704,-0.6432,-0.6257,-0.6083,-0.6083,-0.5908,-0.5822,-0.6083,-0.6083,-0.6169,-0.6432,-0.6432,-0.6343,-0.6171,-0.6083,-0.5994,-0.5733,-0.5733,-0.5733,-0.5733,-0.5733,-0.5733,-0.5733,-0.5733,-0.5733,-0.5733,-0.5733,-0.5733,-0.5733,-0.528,-0.501,-0.501,-0.4565,-0.43,-0.43,-0.4293,-0.4249,-0.4163,-0.3985,-0.3852,-0.3763,-0.2902,-0.2511,-0.4589,0.0,-0.358,-0.3104,-0.3229,-0.3334,0.0,-0.3125,-0.3147,-0.2759,-0.2589,-0.2525,-0.2491,-0.2591,-0.2371,-0.158,-0.1109,-0.1041,0.0,0.0,0.0,0.0,0.0,0.0,0.0,0.0,0.0,0.0,0.0,0.0,0.0,0.0,0.0,-0.5143,-0.5073,-0.5037,-0.5037,-0.4994,-0.4937,-0.4867,-0.4845,-0.4834,-0.4834,0.0,0.0,0.0,0.0,0.0,0.0,-0.4834,-0.4834,-0.4828,-0.4763,-0.4738,-0.473,-0.4659,-0.4344,-0.3859,-0.3667,-0.3082,-0.2201,-0.1688,-0.2015,-0.2688,-0.3667,-0.4289,-0.4734,-0.527,-0.6074,-0.6704,-0.6432,-0.6343,-0.6257,-0.6171,-0.6169,-0.6169,-0.6083,-0.6349,-0.6615,-0.6704,-0.6704,-0.6704,-0.6615,-0.6349,-0.6083,-0.5994,-0.5822,-0.5733,-0.5733,-0.5733,-0.5733,-0.5733,-0.5733,-0.5733,-0.5733,-0.5733,-0.5733,-0.5733,-0.5463,-0.5191,-0.501,-0.4746,-0.448,-0.43,-0.4236,-0.4159,-0.4067,-0.3955,-0.3852,-0.3763,-0.3217,-0.2826,-0.6093,-0.5628,-0.5007,-0.4387,-0.4193,-0.398,-0.3614,-0.3247,-0.3028,-0.2832,-0.2668,-0.2608,-0.2994,-0.2927,-0.2783,0.0,-0.2223,0.0,0.0,0.0,0.0,0.0,0.0,0.0,0.0,0.0,0.0,0.0,0.0,0.0,0.0,0.0,0.0,0.0,-0.4998,-0.4971,-0.4971,-0.493,-0.4883,-0.4834,-0.4834,-0.5035,-0.5338,0.0,0.0,0.0,0.0,0.0,-0.4834,-0.4834,-0.4812,-0.4773,-0.4726,-0.4683,-0.464,-0.4589,-0.4381,-0.4093,-0.3901,-0.3125,-0.2157,-0.2112,-0.2442,-0.3135,-0.4559,-0.4914,-0.5092,-0.5983,-0.652,-0.6877,-0.6786,-0.6609,-0.6523,-0.6438,-0.6435,-0.6432,-0.6438,-0.6618,-0.6792,-0.6881,-0.6966,-0.6881,-0.6792,-0.6615,-0.6349,-0.6171,-0.5997,-0.5822,-0.5733,-0.5733,-0.5733,-0.5733,-0.5733,-0.5733,-0.5733,-0.5733,-0.5733,-0.5733,-0.5552,-0.528,-0.501,-0.4835,-0.4569,-0.43,-0.4255,-0.4167,-0.4036,-0.3987,-0.3893,-0.3763,-0.3295,-0.2982,-0.6791,-0.6342,-0.5649,-0.5012,-0.4709,-0.4482,-0.3919,-0.3536,-0.3233,-0.3154,-0.2987,-0.3007,-0.3672,-0.3511,0.0,0.0,0.0,0.0,0.0,0.0,0.0,0.0,0.0,0.0,0.0,0.0,0.0,0.0,0.0,0.0,0.0,0.0,0.0,0.0,-0.4951,-0.4951,-0.4951,-0.4873,-0.4834,-0.4834,-0.4834,-0.5236,-0.5942,-0.5338,0.0,0.0,0.0,0.0,-0.4834,-0.4834,-0.4785,-0.4706,-0.4789,-0.4726,-0.4549,-0.4725,-0.4624,-0.453,-0.4054,-0.3266,-0.2572,-0.2973,-0.3135,-0.3403,-0.5184,-0.5719,-0.5897,-0.6874,-0.7139,-0.7139,-0.7139,-0.6966,-0.6881,-0.6795,-0.6612,-0.652,-0.6792,-0.6792,-0.6881,-0.7051,-0.7139,-0.7054,-0.6881,-0.6792,-0.6707,-0.626,-0.6171,-0.5997,-0.5822,-0.5733,-0.5733,-0.5733,-0.5733,-0.5733,-0.5733,-0.5733,-0.5733,-0.5733,-0.5552,-0.5282,-0.501,-0.4835,-0.4569,-0.43,-0.43,-0.4212,-0.4036,-0.4036,-0.3942,-0.3763,-0.3374,-0.3141,-0.7872,-0.736,-0.6562,-0.5652,-0.5556,-0.561,-0.5338,-0.5238,-0.5074,-0.4916,-0.4599,-0.4307,-0.416,-0.4163,-0.4114,0.0,0.0,0.0,0.0,0.0,0.0,0.0,0.0,0.0,0.0,0.0,0.0,0.0,0.0,0.0,0.0,0.0,0.0,0.0,0.0,-0.4855,-0.4855,-0.4843,-0.4834,-0.4834,-0.4834,-0.5236,-0.6042,-0.5842,-0.5842,0.0,0.0,0.0,-0.4834,-0.4834,-0.4785,-0.4799,-0.5288,-0.5002,-0.4539,-0.5096,-0.4883,-0.434,-0.425,-0.415,-0.3957,-0.4028,-0.4111,-0.4289,-0.5361,-0.5719,-0.5897,-0.6874,-0.7139,-0.7139,-0.7139,-0.7054,-0.7054,-0.6884,-0.6877,-0.6962,-0.6792,-0.6969,-0.7051,-0.7051,-0.7139,-0.7051,-0.7051,-0.6881,-0.6792,-0.6704,-0.6349,-0.6083,-0.6083,-0.5819,-0.5733,-0.5733,-0.5733,-0.5733,-0.5733,-0.5733,-0.5733,-0.5733,-0.5644,-0.5463,-0.501,-0.4835,-0.4569,-0.43,-0.43,-0.4212,-0.4036,-0.4036,-0.3942,-0.3763,-0.3763,-0.3294,-0.8102,-0.7859,-0.7375,-0.6599,-0.5916,-0.5268,-0.4809,-0.4673,-0.4608,-0.4632,-0.4421,-0.4369,-0.4646,0.0,-0.4277,-0.3946,0.0,0.0,0.0,0.0,0.0,0.0,0.0,0.0,0.0,0.0,0.0,0.0,0.0,0.0,0.0,0.0,0.0,0.0,0.0,0.0,-0.5438,-0.5438,-0.5438,-0.5438,-0.5937,-0.6537,-0.7238,-0.6839,-0.6639,0.0,0.0,-0.5539,-0.483,-0.4785,-0.4714,-0.4722,-0.5279,-0.5083,-0.4447,-0.5121,-0.5193,-0.4924,-0.5006,-0.5003,-0.4917,-0.5179,-0.5181,-0.5272,-0.6163,-0.6428,-0.652,-0.6962,-0.7139,-0.7139,-0.7139,-0.7139,-0.7054,-0.6966,-0.7054,-0.7054,-0.6966,-0.7054,-0.7139,-0.7139,-0.7139,-0.7139,-0.7139,-0.7054,-0.6969,-0.6792,-0.6618,-0.6349,-0.6171,-0.5997,-0.5819,-0.5733,-0.5733,-0.5733,-0.5733,-0.5733,-0.5733,-0.5733,-0.5644,-0.5371,-0.501,-0.4835,-0.4569,-0.43,-0.43,-0.4212,-0.4036,-0.4036,-0.3942,-0.3763,-0.3763,-0.3606,-0.8331,-0.8132,-0.7823,-0.7042,-0.6194,-0.536,-0.4617,-0.4384,-0.4376,-0.4547,-0.4431,-0.4454,0.0,-0.4855,0.0,0.0,0.0,0.0,0.0,0.0,0.0,0.0,0.0,0.0,0.0,0.0,0.0,0.0,0.0,0.0,0.0,0.0,0.0,0.0,0.0,0.0,-0.6239,-0.6439,-0.6439,-0.6239,-0.6939,-0.7637,-0.8333,-0.7736,-0.7338,-0.7138,-0.6539,-0.5824,-0.4997,-0.4833,-0.4737,-0.4812,-0.5288,-0.5189,-0.4832,-0.5282,-0.546,-0.5636,-0.5714,-0.5802,-0.5805,-0.6248,-0.6251,-0.6163,-0.6874,-0.7139,-0.7139,-0.7139,-0.7139,-0.7139,-0.7139,-0.7139,-0.7139,-0.7139,-0.7139,-0.7139,-0.7139,-0.7139,-0.7139,-0.7139,-0.7139,-0.7139,-0.7139,-0.7139,-0.7054,-0.6881,-0.6792,-0.6615,-0.626,-0.6171,-0.5997,-0.5733,-0.5733,-0.5733,-0.5733,-0.5733,-0.5733,-0.5733,-0.5552,-0.5371,-0.5099,-0.4924,-0.4659,-0.4389,-0.43,-0.4212,-0.4036,-0.4036,-0.3942,-0.3763,-0.3763,-0.3763,-0.8703,-0.8138,-0.7437,-0.6709,-0.684,-0.6933,-0.5948,-0.587,-0.5952,-0.5689,-0.5594,-0.5501,0.0,-0.5252,0.0,0.0,0.0,0.0,0.0,0.0,0.0,0.0,0.0,0.0,0.0,0.0,0.0,0.0,0.0,0.0,0.0,0.0,0.0,0.0,0.0,0.0,-0.7138,-0.7836,-0.7836,-0.7138,-0.7135,-0.7637,-0.8432,-0.8333,-0.7935,-0.7238,-0.7138,-0.6572,-0.5689,-0.5001,-0.4984,-0.5448,-0.544,-0.5822,-0.6166,-0.5638,-0.5813,-0.6343,-0.6169,-0.6349,-0.6792,-0.7238,-0.7234,-0.7051,-0.7051,-0.7139,-0.7139,-0.7139,-0.7139,-0.7139,-0.7139,-0.7139,-0.7139,-0.7139,-0.7139,-0.7139,-0.7139,-0.7139,-0.7139,-0.7139,-0.7139,-0.7139,-0.7139,-0.7139,-0.7051,-0.7054,-0.6881,-0.6704,-0.6432,-0.6257,-0.5997,-0.5733,-0.5733,-0.5733,-0.5733,-0.5733,-0.5733,-0.5733,-0.5644,-0.5552,-0.5371,-0.5099,-0.4924,-0.4661,-0.4389,-0.4212,-0.4036,-0.4036,-0.3942,-0.3763,-0.3763,-0.353,-0.878,-0.8467,-0.8028,-0.6805,-0.6669,-0.643,-0.5221,-0.4922,-0.502,-0.5129,-0.5167,-0.5248,0.0,0.0,0.0,0.0,0.0,0.0,0.0,0.0,0.0,0.0,0.0,0.0,0.0,0.0,0.0,0.0,0.0,0.0,0.0,0.0,0.0,0.0,0.0,0.0,0.0,-0.8233,-0.8531,-0.873,-0.873,-0.8829,-0.913,-0.913,-0.873,-0.7928,-0.7343,-0.6692,-0.5764,-0.4869,-0.4589,-0.4885,-0.5277,-0.5852,-0.6343,-0.6077,-0.6166,-0.6428,-0.6871,-0.7316,-0.7672,-0.7848,-0.7764,-0.7588,-0.7588,-0.7499,-0.7323,-0.7323,-0.7231,-0.7139,-0.7139,-0.7139,-0.7139,-0.7139,-0.7139,-0.7139,-0.7139,-0.7139,-0.7139,-0.7139,-0.7139,-0.7139,-0.7139,-0.7139,-0.7139,-0.7139,-0.7054,-0.6877,-0.67,-0.6435,-0.6169,-0.5997,-0.5822,-0.5733,-0.5733,-0.5733,-0.5733,-0.5733,-0.5733,-0.5644,-0.5371,-0.5282,-0.5104,-0.475,-0.4569,-0.4389,-0.4036,-0.4036,-0.3942,-0.3763,-0.3763,-0.3684,-0.9034,-0.8833,-0.8373,-0.712,-0.68,-0.6554,-0.5242,-0.4654,-0.437,-0.4572,-0.4734,-0.4995,-0.5513,0.0,0.0,0.0,0.0,0.0,0.0,0.0,0.0,0.0,0.0,0.0,0.0,0.0,0.0,0.0,0.0,0.0,0.0,0.0,0.0,0.0,0.0,0.0,0.0,-0.8776,-0.8951,-0.9543,-0.9486,-0.9518,-0.9624,-0.9567,-0.9147,-0.8347,-0.7611,-0.6852,-0.604,-0.5134,-0.4693,-0.4842,-0.5665,-0.6343,-0.6782,-0.6782,-0.6871,-0.7143,-0.7401,-0.7845,-0.8201,-0.8201,-0.8028,-0.7944,-0.7944,-0.7768,-0.7595,-0.7595,-0.7411,-0.7231,-0.7231,-0.7143,-0.7139,-0.7139,-0.7139,-0.7139,-0.7139,-0.7139,-0.7139,-0.7139,-0.7139,-0.7139,-0.7139,-0.7139,-0.7139,-0.7139,-0.7139,-0.7054,-0.6792,-0.6612,-0.6435,-0.6171,-0.5819,-0.5733,-0.5733,-0.5733,-0.5733,-0.5733,-0.5733,-0.5644,-0.5463,-0.546,-0.5282,-0.4928,-0.475,-0.4476,-0.4118,-0.4034,-0.3942,-0.3763,-0.3763,-0.3763,-0.964,-0.9178,-0.8488,-0.7682,-0.756,-0.7362,-0.6546,-0.5277,-0.43,-0.43,-0.4654,-0.501,-0.501,-0.501,0.0,0.0,0.0,0.0,0.0,0.0,0.0,0.0,0.0,0.0,0.0,0.0,0.0,0.0,0.0,0.0,0.0,0.0,0.0,0.0,0.0,0.0,0.0,-0.9441,-0.9352,-0.9352,-0.9177,-0.9283,-0.9616,-0.9433,-0.8964,-0.8183,-0.803,-0.7409,-0.6542,-0.5804,-0.5466,-0.5549,-0.6959,-0.7489,-0.7489,-0.7489,-0.7937,-0.8476,-0.7757,-0.7845,-0.8201,-0.8201,-0.8025,-0.7944,-0.7944,-0.7944,-0.7944,-0.7944,-0.768,-0.7507,-0.7507,-0.7323,-0.7139,-0.7139,-0.7139,-0.7139,-0.7139,-0.7139,-0.7139,-0.7139,-0.7139,-0.7139,-0.7139,-0.7139,-0.7139,-0.7139,-0.7139,-0.7054,-0.6792,-0.6795,-0.6618,-0.6171,-0.5819,-0.5733,-0.5733,-0.5733,-0.5733,-0.5733,-0.5733,-0.5733,-0.5733,-0.5552,-0.5371,-0.5371,-0.4926,-0.4561,-0.4365,-0.4116,-0.3942,-0.3763,-0.3763,-0.3763,-1.0019,-0.9556,-0.8855,-0.8139,-0.7727,-0.7288,-0.6587,-0.5722,-0.4924,-0.4389,-0.4835,-0.528,-0.528,0.0,0.0,0.0,0.0,0.0,0.0,0.0,0.0,0.0,0.0,0.0,0.0,0.0,0.0,0.0,0.0,0.0,0.0,0.0,0.0,0.0,0.0,0.0,0.0,0.0,-0.9173,-0.9173,-0.912,-0.9153,-0.925,-0.9198,-0.9079,-0.8785,-0.8147,-0.7407,-0.663,-0.5812,-0.5665,-0.6166,-0.7136,-0.7489,-0.7489,-0.7489,-0.7669,-0.7757,-0.7577,-0.7937,-0.8476,-0.8476,-0.8476,-0.8388,-0.8388,-0.8296,-0.8113,-0.8113,-0.794,-0.7768,-0.7768,-0.7591,-0.7323,-0.7143,-0.7139,-0.7139,-0.7139,-0.7139,-0.7139,-0.7139,-0.7139,-0.7139,-0.7139,-0.7139,-0.7139,-0.7139,-0.7139,-0.7054,-0.6792,-0.6795,-0.6618,-0.6171,-0.5997,-0.5908,-0.5733,-0.5733,-0.5733,-0.5733,-0.5733,-0.5733,-0.5733,-0.5644,-0.5552,-0.5371,-0.5205,-0.4834,-0.4365,-0.4218,-0.404,-0.3763,-0.3763,-0.3763,-1.0466,-0.9737,-0.8883,-0.8459,-0.8162,-0.7763,-0.7034,0.0,0.0,0.0,-0.5455,-0.5813,-0.5813,0.0,0.0,0.0,0.0,0.0,0.0,0.0,0.0,0.0,0.0,0.0,0.0,0.0,0.0,0.0,0.0,0.0,0.0,0.0,0.0,0.0,0.0,0.0,0.0,0.0,0.0,-0.8986,-0.8917,-0.8889,-0.8889,-0.8678,-0.871,-0.8886,-0.7706,-0.6824,-0.619,-0.5933,-0.6077,-0.6517,-0.7492,-0.7937,-0.7937,-0.7937,-0.7937,-0.7937,-0.7937,-0.8204,-0.8568,-0.8568,-0.8568,-0.8568,-0.8568,-0.8476,-0.838,-0.838,-0.8204,-0.8028,-0.8028,-0.7856,-0.7591,-0.7323,-0.7143,-0.7139,-0.7139,-0.7139,-0.7139,-0.7139,-0.7139,-0.7139,-0.7139,-0.7139,-0.7139,-0.7139,-0.7139,-0.7051,-0.6969,-0.6881,-0.6615,-0.6257,-0.6169,-0.5997,-0.5733,-0.5733,-0.5733,-0.5733,-0.5733,-0.5733,-0.5733,-0.5733,-0.5644,-0.5552,-0.5346,-0.4974,-0.4534,-0.4272,-0.4094,-0.3763,-0.3763,-0.3763,-1.093,-1.0021,-0.8922,-0.8848,-0.8681,-0.8435,-0.772,-0.7051,-0.652,-0.6432,0.0,-0.652,0.0,0.0,0.0,0.0,0.0,0.0,0.0,0.0,0.0,0.0,0.0,0.0,0.0,0.0,0.0,0.0,0.0,0.0,0.0,0.0,0.0,0.0,0.0,0.0,0.0,0.0,0.0,0.0,-0.8641,-0.8564,-0.8484,-0.8005,-0.8072,-0.8513,-0.693,-0.5991,-0.546,-0.6166,-0.6428,-0.652,-0.8032,-0.8568,-0.8568,-0.8568,-0.8568,-0.8568,-0.8568,-0.8568,-0.8568,-0.8568,-0.8568,-0.8568,-0.8568,-0.8568,-0.8568,-0.8568,-0.8384,-0.8201,-0.8201,-0.8116,-0.7856,-0.7591,-0.7323,-0.7143,-0.7143,-0.7139,-0.7139,-0.7139,-0.7139,-0.7139,-0.7139,-0.7139,-0.7139,-0.7139,-0.7139,-0.7139,-0.7139,-0.6966,-0.6704,-0.6432,-0.6257,-0.5997,-0.5733,-0.5733,-0.5733,-0.5733,-0.5733,-0.5733,-0.5733,-0.5733,-0.5733,-0.5733,-0.5426,-0.5052,-0.4701,-0.4426,-0.4086,-0.3841,-0.3841,-0.3763,-1.2154,-1.1757,-1.1071,-1.0373,-0.937,-0.8515,-0.8376,-0.8208,-0.7764,-0.6609,-0.6871,0.0,0.0,0.0,0.0,0.0,0.0,0.0,0.0,0.0,0.0,0.0,0.0,0.0,0.0,0.0,0.0,0.0,0.0,0.0,0.0,0.0,0.0,0.0,0.0,0.0,-0.8682,-0.8641,-0.8621,0.0,-0.8584,-0.8296,-0.776,-0.7613,-0.7361,-0.6828,-0.6002,-0.5549,-0.546,-0.6166,-0.6428,-0.652,-0.8032,-0.8568,-0.8568,-0.8568,-0.8568,-0.8568,-0.8568,-0.8568,-0.8568,-0.8568,-0.8568,-0.8568,-0.8568,-0.8568,-0.8568,-0.8568,-0.8564,-0.8476,-0.8476,-0.8292,-0.8113,-0.8025,-0.7764,-0.7415,-0.7415,-0.7234,-0.7139,-0.7139,-0.7139,-0.7139,-0.7139,-0.7139,-0.7139,-0.7139,-0.7139,-0.7139,-0.7139,-0.7051,-0.6966,-0.6704,-0.6523,-0.6257,-0.5997,-0.5822,-0.5733,-0.5733,-0.5733,-0.5733,-0.5733,-0.5733,-0.5733,-0.5733,-0.5432,-0.5225,-0.5032,-0.4591,-0.4252,-0.4001,-0.3843,-0.3763,-1.2608,-1.2245,-1.1738,-1.1275,0.0,-0.9423,-0.9257,-0.8915,-0.8388,-0.7584,0.0,0.0,0.0,0.0,0.0,0.0,0.0,0.0,0.0,0.0,0.0,0.0,0.0,0.0,0.0,0.0,0.0,0.0,0.0,0.0,0.0,0.0,0.0,0.0,0.0,0.0,-0.8568,-0.8568,-0.8568,-0.8568,-0.8568,-0.8028,-0.6959,-0.6959,-0.6428,-0.5366,-0.5369,-0.5193,-0.4924,-0.5636,-0.6077,-0.6517,-0.7672,-0.8296,-0.8568,-0.8568,-0.8568,-0.8568,-0.8568,-0.8568,-0.8568,-0.8568,-0.8568,-0.8568,-0.8568,-0.8568,-0.8568,-0.8568,-0.8568,-0.8568,-0.8568,-0.8476,-0.8384,-0.8384,-0.8032,-0.768,-0.7507,-0.7415,-0.7234,-0.7139,-0.7139,-0.7139,-0.7139,-0.7139,-0.7139,-0.7139,-0.7139,-0.7139,-0.7139,-0.7139,-0.7054,-0.6792,-0.6704,-0.6435,-0.6171,-0.5997,-0.5822,-0.5733,-0.5733,-0.5733,-0.5733,-0.5733,-0.5733,-0.5733,-0.5551,-0.5341,-0.5113,-0.4781,-0.4437,-0.4079,-0.3999,-0.3921,-1.3039,-1.2517,-1.1974,-1.202,-1.13,0.0,-1.0284,-0.9515,-0.8828,0.0,0.0,0.0,0.0,0.0,0.0,0.0,0.0,0.0,0.0,0.0,0.0,0.0,0.0,0.0,0.0,0.0,0.0,0.0,0.0,0.0,0.0,0.0,0.0,0.0,0.0,-0.8568,-0.8568,-0.8568,-0.8568,-0.8568,-0.8476,-0.776,-0.6605,-0.634,-0.5542,-0.43,-0.4924,-0.4835,-0.4387,-0.5104,-0.5725,-0.6343,-0.7136,-0.7848,-0.8388,-0.8564,-0.8656,-0.874,-0.8656,-0.8652,-0.874,-0.8656,-0.8568,-0.8568,-0.8568,-0.8568,-0.8568,-0.8568,-0.8568,-0.8568,-0.8568,-0.8568,-0.8568,-0.8568,-0.83,-0.7944,-0.768,-0.7591,-0.7415,-0.7231,-0.7143,-0.7139,-0.7139,-0.7139,-0.7139,-0.7139,-0.7139,-0.7139,-0.7139,-0.7139,-0.7054,-0.6881,-0.6792,-0.6615,-0.626,-0.6171,-0.5994,-0.5822,-0.5733,-0.5733,-0.5733,-0.5733,-0.5733,-0.5733,-0.5594,-0.5384,-0.5116,-0.4986,-0.4634,-0.4235,-0.4157,-0.4077,-1.4009,0.0,-1.288,0.0,-1.2334,-1.1472,0.0,0.0,-0.9685,0.0,0.0,0.0,0.0,0.0,0.0,0.0,0.0,0.0,0.0,0.0,0.0,0.0,0.0,0.0,0.0,0.0,0.0,0.0,0.0,0.0,0.0,0.0,-0.8568,-0.8568,-0.8568,0.0,-0.8568,-0.8568,-0.8568,-0.8568,-0.7937,-0.7577,-0.7312,-0.608,-0.5102,-0.43,-0.4389,-0.4389,-0.4387,-0.5104,-0.546,-0.5636,-0.6959,-0.7577,-0.7757,-0.8384,-0.8828,-0.9174,-0.874,-0.8828,-0.9174,-0.874,-0.8568,-0.8568,-0.8568,-0.8568,-0.8568,-0.8568,-0.8568,-0.8568,-0.8568,-0.8568,-0.8568,-0.8568,-0.8568,-0.8476,-0.8201,-0.7768,-0.7507,-0.7415,-0.7234,-0.7139,-0.7139,-0.7139,-0.7139,-0.7139,-0.7139,-0.7139,-0.7139,-0.7139,-0.7051,-0.7051,-0.6881,-0.6792,-0.6704,-0.6349,-0.6083,-0.6083,-0.5822,-0.5733,-0.5733,-0.5733,-0.5733,-0.5733,-0.551,-0.5385,-0.5368,-0.4903,-0.4716,-0.4623,-0.4233,-0.4387,-1.4843,-1.4258,-1.388,0.0,-1.3535,-1.2674,-1.2674,0.0,0.0,0.0,0.0,0.0,0.0,0.0,0.0,0.0,0.0,0.0,0.0,0.0,0.0,0.0,0.0,0.0,0.0,0.0,0.0,0.0,0.0,0.0,0.0,-0.8568,-0.8568,-0.8568,-0.8568,0.0,-0.8568,-0.8568,-0.8568,-0.8568,-0.8296,-0.7937,-0.7489,-0.6871,-0.5988,-0.4924,-0.4478,-0.43,-0.43,-0.4656,-0.5013,-0.546,-0.652,-0.7136,-0.7665,-0.8644,-0.9087,-0.9349,-0.9345,-0.9519,-0.9607,-0.9174,-0.9003,-0.8915,-0.8656,-0.8568,-0.8568,-0.8568,-0.8568,-0.8568,-0.8568,-0.8568,-0.8568,-0.8568,-0.8568,-0.8564,-0.8472,-0.812,-0.7852,-0.7595,-0.7323,-0.7139,-0.7139,-0.7139,-0.7139,-0.7139,-0.7139,-0.7139,-0.7139,-0.7139,-0.7139,-0.7139,-0.7054,-0.6881,-0.6795,-0.6435,-0.6257,-0.6083,-0.5819,-0.5733,-0.5733,-0.5733,-0.5733,-0.5733,-0.5561,-0.5436,-0.5368,-0.5114,-0.4917,-0.4701,-0.4545,-0.4621,-1.5404,0.0,-1.4599,-1.5022,-1.4448,-1.3703,0.0,0.0,0.0,0.0,0.0,0.0,0.0,0.0,0.0,0.0,0.0,0.0,0.0,0.0,0.0,0.0,0.0,0.0,0.0,0.0,0.0,0.0,0.0,0.0,-0.8568,-0.8568,-0.8568,-0.8568,-0.8568,-0.8568,-0.8568,-0.8568,-0.8568,-0.8568,-0.8568,-0.8296,-0.7757,-0.7577,-0.6782,-0.5636,-0.4924,-0.4478,-0.43,-0.4389,-0.4835,-0.546,-0.6251,-0.6871,-0.7665,-0.8732,-0.9262,-0.9519,-0.9777,-0.9951,-1.0038,-0.9519,-0.9262,-0.9174,-0.874,-0.8568,-0.8568,-0.8568,-0.8568,-0.8568,-0.8568,-0.8568,-0.8568,-0.8568,-0.8568,-0.8568,-0.8476,-0.838,-0.8025,-0.7591,-0.7496,-0.7577,-0.7492,-0.7489,-0.7489,-0.7489,-0.7228,-0.7139,-0.7139,-0.7139,-0.7139,-0.7139,-0.7139,-0.7054,-0.6881,-0.6612,-0.6432,-0.6169,-0.5908,-0.5733,-0.5733,-0.5733,-0.5733,-0.5733,-0.5583,-0.5543,-0.5696,-0.5537,-0.5407,-0.5392,-0.5392,-0.5392,-1.5692,-1.53,0.0,-1.5188,-1.4867,0.0,0.0,0.0,0.0,0.0,0.0,0.0,0.0,0.0,0.0,0.0,0.0,0.0,0.0,0.0,0.0,0.0,0.0,0.0,0.0,0.0,0.0,0.0,0.0,0.0,-0.8568,-0.8568,-0.8568,-0.8568,-0.8568,-0.8568,-0.8568,-0.8568,-0.8568,-0.8568,-0.8568,-0.8568,-0.8476,-0.7845,-0.7048,-0.6343,-0.5636,-0.4924,-0.43,-0.4569,-0.4926,-0.546,-0.6428,-0.7044,-0.7577,-0.8384,-0.917,-0.9859,-0.9432,-0.9864,-1.0463,-0.9607,-0.9262,-0.9174,-0.874,-0.8568,-0.8568,-0.8568,-0.8568,-0.8568,-0.8568,-0.8568,-0.8568,-0.8568,-0.8568,-0.8564,-0.8288,-0.8201,-0.8025,-0.7591,-0.8197,-0.8715,-0.8452,-0.8456,-0.8456,-0.8456,-0.7665,-0.7139,-0.7139,-0.7139,-0.7139,-0.7139,-0.7139,-0.7139,-0.7051,-0.6877,-0.6704,-0.6428,-0.6169,-0.5997,-0.5733,-0.5733,-0.5733,-0.5733,-0.5499,-0.5788,-0.6516,-0.6314,-0.6553,-0.7387,-0.7161,-0.6934,-1.5963,0.0,0.0,-1.565,-1.533,-1.5029,0.0,0.0,0.0,0.0,0.0,0.0,0.0,0.0,0.0,0.0,0.0,0.0,0.0,0.0,0.0,0.0,0.0,0.0,0.0,0.0,0.0,0.0,0.0,0.0,-0.8568,-0.8568,-0.8568,-0.8568,-0.8568,-0.8568,-0.8568,-0.8568,-0.8568,-0.8568,-0.8568,-0.8568,-0.8568,-0.8296,-0.776,-0.7048,-0.6343,-0.5366,-0.4387,-0.5275,-0.5719,-0.5983,-0.757,-0.8277,-0.854,-0.951,-1.012,-1.0376,-1.0564,-1.0824,-1.0911,-1.0294,-1.012,-1.0033,-0.9257,-0.9087,-0.9003,-0.8656,-0.8568,-0.8568,-0.8568,-0.8568,-0.8568,-0.8568,-0.8568,-0.8568,-0.8476,-0.8292,-0.8113,-0.7856,-0.8372,-0.889,-0.8803,-0.9148,-0.9235,-0.8803,-0.8364,-0.7753,-0.7139,-0.7139,-0.7139,-0.7139,-0.7139,-0.7139,-0.7139,-0.6881,-0.6792,-0.6704,-0.6349,-0.6083,-0.5997,-0.5822,-0.5697,-0.5531,-0.5954,-0.6354,-0.6599,-0.6307,-0.6623,-0.7464,-0.7464,-0.7468,-1.6271,-1.5992,0.0,0.0,0.0,-1.5359,0.0,0.0,0.0,0.0,0.0,0.0,0.0,0.0,0.0,0.0,0.0,0.0,0.0,0.0,0.0,0.0,0.0,0.0,0.0,0.0,0.0,0.0,0.0,0.0,-0.8568,-0.8568,-0.8568,-0.8568,-0.8568,-0.8568,-0.8568,-0.8568,-0.8568,-0.8568,-0.8568,-0.8568,-0.8568,-0.8568,-0.8208,-0.7489,-0.6959,-0.5985,-0.4746,-0.5802,-0.6331,-0.6596,-0.8356,-0.8978,-0.9157,-1.0028,-1.0381,-1.0463,-1.0906,-1.1176,-1.1262,-1.0727,-1.0636,-1.0463,-0.9777,-0.9432,-0.9262,-0.8915,-0.8744,-0.8568,-0.8568,-0.8568,-0.8568,-0.8568,-0.8568,-0.8568,-0.8568,-0.8472,-0.8292,-0.8028,-0.8636,-0.9069,-0.8978,-0.9318,-0.9405,-0.8978,-0.8364,-0.7841,-0.7139,-0.7139,-0.7139,-0.7139,-0.7139,-0.7139,-0.7139,-0.6966,-0.6881,-0.6795,-0.6526,-0.626,-0.6083,-0.613,-0.6066,-0.5978,-0.6629,-0.7093,-0.7334,-0.7144,-0.7468,-0.8304,-0.8304,-0.8309,0.0,0.0,0.0,0.0,0.0,0.0,0.0,0.0,0.0,0.0,0.0,0.0,0.0,0.0,0.0,0.0,0.0,0.0,0.0,0.0,0.0,0.0,0.0,0.0,0.0,0.0,0.0,0.0,0.0,-0.8568,-0.8568,-0.8568,-0.8656,-0.8656,-0.8656,-0.8656,-0.8656,-0.8656,-0.8656,-0.8568,-0.8656,-0.8656,-0.8568,-0.8568,-0.8208,-0.7489,-0.7489,-0.6782,-0.5549,-0.6242,-0.677,-0.7298,-0.8707,-0.9331,-0.9432,-0.9864,-1.0038,-1.0125,-1.0463,-1.0906,-1.1262,-1.0727,-1.0636,-1.0549,-1.012,-0.9694,-0.9345,-0.9349,-0.9003,-0.8568,-0.8568,-0.8568,-0.8568,-0.8568,-0.8568,-0.8568,-0.8568,-0.8568,-0.8564,-0.8288,-0.899,-0.951,-0.9235,-0.9061,-0.8978,-0.889,-0.7929,-0.7139,-0.7139,-0.7139,-0.7139,-0.7139,-0.7139,-0.7139,-0.7139,-0.7139,-0.7054,-0.6792,-0.6795,-0.6615,-0.6166,-0.6737,-0.6994,-0.681,-0.7341,-0.8045,-0.8908,-0.8793,-0.9084,-0.9922,-0.9922,-0.9463,-1.7568,0.0,0.0,0.0,0.0,0.0,0.0,0.0,0.0,0.0,0.0,0.0,0.0,0.0,0.0,0.0,0.0,0.0,0.0,0.0,0.0,0.0,0.0,0.0,0.0,0.0,0.0,0.0,0.0,-0.8568,-0.8568,-0.8568,-0.8911,-0.9515,-0.9257,-0.9257,-0.9515,-0.9607,-0.9262,-0.8568,-0.8915,-0.8915,-0.8568,-0.8568,-0.8476,-0.8296,-0.8113,-0.7757,-0.7492,-0.8009,-0.8444,-0.9056,-1.0202,-1.0738,-1.0738,-1.0916,-1.0911,-1.1003,-1.1084,-1.1176,-1.1262,-1.117,-1.1084,-1.0997,-1.0554,-1.012,-0.9694,-0.9432,-0.9003,-0.8568,-0.8568,-0.8568,-0.8568,-0.8568,-0.8568,-0.8568,-0.8568,-0.8568,-0.8564,-0.8288,-0.899,-0.9598,-0.9497,-0.9763,-0.9767,-0.9235,-0.854,-0.7841,-0.7228,-0.7139,-0.7139,-0.7139,-0.7139,-0.7139,-0.7139,-0.7139,-0.7054,-0.7054,-0.6881,-0.6919,-0.7066,-0.7111,-0.7147,-0.74,-0.8108,-0.8622,-0.8784,-0.8727,-0.9084,-0.9922,-0.9922,-0.9463,-1.8397,-1.8344,-1.8224,0.0,0.0,0.0,0.0,-1.6221,0.0,0.0,0.0,0.0,0.0,0.0,0.0,0.0,0.0,0.0,0.0,0.0,0.0,0.0,0.0,0.0,0.0,0.0,0.0,0.0,-0.9345,-0.917,-0.917,-0.8828,-0.8999,-0.9859,-0.9689,-0.9689,-0.9859,-0.9946,-0.9515,-0.8568,-0.8915,-0.9003,-0.8915,-0.8915,-0.9003,-0.9174,-0.899,-0.9074,-0.9244,-0.9501,-0.9584,-0.9758,-1.0819,-1.1176,-1.0997,-1.1262,-1.1176,-1.1084,-1.1262,-1.1262,-1.1262,-1.1262,-1.1262,-1.1262,-1.0992,-1.0467,-0.9951,-0.9689,-0.9262,-0.8911,-0.9087,-0.8999,-0.8911,-0.9087,-0.8828,-0.8568,-0.8568,-0.8568,-0.8564,-0.8384,-0.8823,-0.917,-0.9161,-0.9331,-0.9244,-0.8719,-0.8372,-0.7848,-0.7228,-0.7139,-0.7139,-0.7139,-0.7139,-0.7139,-0.7139,-0.7139,-0.7228,-0.7665,-0.758,-0.7683,-0.8195,-0.8283,-0.8275,-0.8295,-0.8926,-0.9289,-0.9236,-0.9236,-0.9463,-0.9922,-0.9922,-0.9539,-1.9137,-1.9223,-1.9231,-1.8922,0.0,0.0,-1.7058,-1.6651,0.0,0.0,0.0,0.0,0.0,0.0,0.0,0.0,0.0,0.0,0.0,0.0,0.0,0.0,0.0,0.0,0.0,0.0,0.0,-1.1241,-1.0549,-1.0033,-1.0033,-0.9345,-0.9345,-1.0202,-1.012,-1.0115,-1.0033,-1.0033,-0.9602,-0.8568,-0.874,-0.8915,-0.9262,-0.9345,-0.9607,-1.0038,-1.0038,-1.0294,-1.0636,-1.0636,-1.0371,-0.9845,-1.0906,-1.1084,-1.0727,-1.117,-1.1084,-1.0727,-1.117,-1.1262,-1.1262,-1.1262,-1.1262,-1.1262,-1.1262,-1.0646,-0.9946,-0.9951,-0.9607,-0.9432,-0.9859,-0.9689,-0.9432,-0.9772,-0.9345,-0.874,-0.8656,-0.8568,-0.8568,-0.8568,-0.8568,-0.8568,-0.8568,-0.838,-0.8113,-0.794,-0.768,-0.7415,-0.7143,-0.7139,-0.7139,-0.7139,-0.7139,-0.7139,-0.7228,-0.7228,-0.7658,-0.8511,-0.8599,-0.8767,-0.9228,-0.9702,-0.9747,-0.9296,-0.9719,-0.9922,-0.9922,-0.9922,-0.9922,-0.9922,-0.9922,-0.9695,0.0,0.0,0.0,0.0,0.0,0.0,-1.7961,-1.7246,-1.661,0.0,0.0,0.0,0.0,0.0,0.0,0.0,0.0,0.0,0.0,0.0,0.0,0.0,0.0,0.0,0.0,0.0,-1.1068,-1.1322,-1.1154,-1.1068,-1.1068,-1.0895,-1.1241,-1.21,-1.1757,-1.1413,-1.1068,-1.1068,-1.0207,-0.8568,-0.9345,-0.9607,-0.9349,-0.9694,-0.9951,-1.0038,-1.0381,-1.0549,-1.0636,-1.0992,-1.1084,-1.0997,-1.1176,-1.1262,-1.1176,-1.1262,-1.1262,-1.1176,-1.1262,-1.1262,-1.1262,-1.1262,-1.1262,-1.1262,-1.1262,-1.0651,-0.9864,-0.9519,-0.9345,-0.9519,-1.0289,-1.012,-0.9772,-0.9859,-0.9772,-0.9428,-0.874,-0.8568,-0.8568,-0.8568,-0.8568,-0.8568,-0.8568,-0.838,-0.8113,-0.794,-0.768,-0.7415,-0.7143,-0.7139,-0.7139,-0.7139,-0.7139,-0.7401,-0.8193,-0.8193,-0.8566,-0.9266,-0.9338,-0.9428,-0.9697,-0.98,-0.9907,-0.9986,-0.9943,-0.9922,-0.9922,-0.9922,-0.9922,-0.9922,-0.9922,-0.9695,0.0,0.0,0.0,-1.9797,0.0,0.0,0.0,-1.7321,-1.6748,0.0,0.0,0.0,0.0,0.0,0.0,0.0,0.0,0.0,0.0,0.0,0.0,0.0,0.0,0.0,0.0,0.0,-1.2015,-1.2015,-1.2015,-1.2015,-1.2015,-1.1585,-1.1757,-1.2705,-1.2448,-1.2272,-1.2015,-1.2089,-1.1316,-0.9602,-1.0207,-1.0294,-0.9951,-1.0207,-1.0472,-1.0651,-1.0819,-1.0992,-1.0992,-1.1176,-1.1262,-1.1262,-1.1262,-1.1262,-1.1262,-1.1262,-1.1262,-1.1262,-1.1262,-1.1262,-1.1262,-1.1262,-1.1262,-1.1262,-1.1262,-1.0819,-1.0294,-1.0207,-1.0207,-1.0549,-1.1574,-1.1058,-1.0289,-1.0549,-0.9946,-0.9174,-0.8652,-0.8568,-0.8568,-0.8568,-0.8491,-0.8459,-0.8552,-0.8476,-0.8292,-0.8116,-0.7856,-0.7591,-0.7323,-0.7143,-0.7316,-0.7753,-0.7841,-0.8189,-0.9148,-0.9061,-0.9307,-1.0134,-1.0103,-1.0217,-1.0595,-1.0578,-1.0467,-1.0374,-1.0143,-1.0067,-1.0067,-0.9916,-0.9922,-0.9922,-0.9922,-0.9771,0.0,0.0,0.0,0.0,0.0,-1.8629,0.0,0.0,0.0,0.0,0.0,0.0,0.0,0.0,0.0,0.0,0.0,0.0,0.0,0.0,0.0,0.0,0.0,0.0,0.0,0.0,-1.2862,-1.2813,-1.2856,-1.2862,-1.2813,-1.2172,-1.2196,-1.2965,-1.3014,-1.3039,-1.2869,-1.3021,-1.2334,-1.089,-1.1149,-1.1235,-1.0971,-1.1063,-1.1246,-1.1516,-1.1516,-1.1435,-1.1262,-1.1262,-1.1262,-1.1262,-1.1262,-1.1262,-1.1262,-1.1262,-1.1262,-1.1348,-1.1435,-1.1516,-1.1521,-1.1693,-1.1521,-1.1429,-1.1516,-1.1246,-1.0895,-1.1235,-1.1408,-1.1832,-1.2851,-1.2083,-1.1149,-1.1494,-1.0294,-0.9087,-0.8911,-0.8711,-0.8515,-0.8515,-0.8365,-0.8296,-0.8483,-0.8483,-0.8372,-0.8103,-0.7933,-0.7676,-0.7414,-0.732,-0.7574,-0.8269,-0.8525,-0.9039,-0.9971,-0.9822,-1.0045,-1.0925,-1.0816,-1.0914,-1.1384,-1.1218,-1.0959,-1.0594,-1.0368,-1.0293,-1.0293,-1.0067,-0.9922,-0.9922,-0.9922,-0.9916,0.0,0.0,0.0,0.0,-1.9777,0.0,0.0,0.0,0.0,0.0,0.0,-1.5979,-1.5783,0.0,0.0,0.0,0.0,0.0,0.0,0.0,0.0,0.0,0.0,0.0,0.0,0.0,0.0,-1.3167,-1.3385,-1.3411,-1.316,-1.3453,-1.3756,-1.3838,-1.4261,-1.4139,-1.3366,-1.3366,-1.2845,-1.1821,-1.2248,-1.2504,-1.2504,-1.2869,-1.279,-1.2283,-1.2283,-1.194,-1.1262,-1.1262,-1.1262,-1.1262,-1.1262,-1.1262,-1.1262,-1.1262,-1.1262,-1.1348,-1.2026,-1.2283,-1.2369,-1.2966,-1.2448,-1.1757,-1.2345,-1.2089,-1.1671,-1.2339,-1.2504,-1.2681,-1.347,-1.3203,-1.2681,-1.2613,-1.1757,-1.0809,-0.9946,-0.9035,-0.8321,-0.8321,-0.817,-0.8101,-0.8292,-0.8187,-0.7994,-0.7749,-0.7586,-0.7337,-0.7079,-0.7492,-0.782,-0.7986,-0.8643,-0.9379,-1.0355,-1.0411,-1.0723,-1.1396,-1.1432,-1.1289,-1.1172,-1.0935,-1.0842,-1.0738,-1.0594,-1.0443,-1.0443,-1.0293,-1.0067,-0.9922,-0.9922,-0.9992,0.0,0.0,0.0,0.0,0.0,0.0,-1.8469,0.0,-1.7311,0.0,0.0,0.0,0.0,0.0,0.0,0.0,0.0,0.0,0.0,0.0,0.0,0.0,0.0,0.0,0.0,0.0,0.0,0.0,0.0,-1.334,-1.322,-1.34,-1.3702,-1.4028,-1.4159,-1.422,-1.4132,-1.4307,-1.3964,-1.319,-1.3535,-1.3457,-1.3124,-1.3307,-1.3052,-1.2363,-1.2363,-1.194,-1.1262,-1.1262,-1.1521,-1.194,-1.194,-1.194,-1.194,-1.194,-1.2198,-1.2546,-1.2881,-1.2966,-1.3052,-1.3307,-1.3052,-1.2705,-1.3039,-1.2869,-1.2875,-1.3542,-1.362,-1.3626,-1.4146,-1.362,-1.2936,-1.2784,-1.2015,-1.1026,-0.9957,-0.9441,-0.8923,-0.8229,-0.7988,-0.789,-0.7971,-0.8,-0.793,-0.7851,-0.802,-0.802,-0.7934,-0.8336,-0.8823,-0.9385,-0.971,-1.0282,-1.1261,-1.113,-1.1167,-1.1462,-1.1377,-1.1232,-1.1117,-1.1037,-1.0962,-1.0962,-1.0812,-1.0663,-1.0663,-1.0443,-1.0293,-1.0218,-0.9992,-0.9992,-2.1941,0.0,0.0,0.0,0.0,0.0,0.0,0.0,0.0,0.0,0.0,0.0,0.0,0.0,-1.6132,0.0,0.0,0.0,0.0,0.0,0.0,0.0,0.0,0.0,0.0,0.0,0.0,0.0,0.0,0.0,-1.2966,-1.3118,-1.3338,-1.37,-1.4026,-1.4302,-1.4608,-1.4956,-1.4915,-1.4398,-1.4566,-1.4405,-1.399,-1.399,-1.3561,-1.2954,-1.2954,-1.2448,-1.1607,-1.1774,-1.2118,-1.2448,-1.2619,-1.279,-1.296,-1.2705,-1.2966,-1.3398,-1.3646,-1.3815,-1.399,-1.399,-1.373,-1.3555,-1.3815,-1.373,-1.3639,-1.4482,-1.4566,-1.4398,-1.465,-1.4048,-1.3347,-1.3037,-1.2251,-1.125,-1.0173,-0.9746,-0.9165,-0.8131,-0.7805,-0.7762,-0.7998,-0.7944,-0.7951,-0.8188,-0.8354,-0.8515,-0.8751,-0.9068,-0.9542,-1.0253,-1.0491,-1.0971,-1.1618,-1.1528,-1.1413,-1.1413,-1.1226,-1.1111,-1.1111,-1.1111,-1.1111,-1.1111,-1.0962,-1.0887,-1.0887,-1.0663,-1.0588,-1.0594,-1.0143,-1.0143,0.0,0.0,0.0,-2.0441,0.0,0.0,0.0,0.0,-1.8337,0.0,0.0,0.0,0.0,-1.6821,-1.6473,-1.6132,-1.5788,0.0,0.0,0.0,0.0,0.0,0.0,0.0,0.0,0.0,0.0,0.0,0.0,0.0,-1.2345,-1.2832,-1.3071,-1.3161,-1.405,-1.4455,-1.43,-1.5022,-1.5257,-1.509,-1.5257,-1.5347,-1.5347,-1.5347,-1.4999,-1.4307,-1.4307,-1.3548,-1.2448,-1.3052,-1.2966,-1.2448,-1.3137,-1.3724,-1.4223,-1.3646,-1.3398,-1.3476,-1.4146,-1.4824,-1.5347,-1.5347,-1.4566,-1.388,-1.4999,-1.4566,-1.388,-1.5082,-1.5257,-1.4999,-1.4734,-1.4566,-1.4239,-1.3721,-1.2909,-1.1917,-1.0838,-0.9722,-0.8788,-0.8003,-0.7618,-0.7718,-0.856,-0.803,-0.7804,-0.857,-0.8331,-0.8403,-0.917,-0.963,-0.9868,-0.9943,-1.0611,-1.1061,-1.1135,-1.1129,-1.1123,-1.1123,-1.1117,-1.1111,-1.1111,-1.1111,-1.1111,-1.1111,-1.1111,-1.1111,-1.1111,-1.0887,-1.0812,-1.0812,-1.0368,-1.0363,0.0,0.0,-2.09,-2.0648,0.0,0.0,0.0,0.0,0.0,0.0,0.0,0.0,0.0,-1.7235,-1.7028,-1.689,-1.6263,-1.5921,0.0,0.0,0.0,0.0,0.0,0.0,0.0,0.0,0.0,0.0,0.0,0.0,0.0,-1.285,-1.3152,-1.3514,-1.4002,-1.4482,-1.4691,-1.518,-1.5347,-1.5257,-1.5347,-1.5431,-1.5431,-1.5431,-1.4999,-1.4398,-1.4398,-1.3893,-1.3052,-1.3307,-1.3561,-1.3717,-1.3977,-1.4489,-1.4999,-1.4314,-1.4321,-1.4748,-1.4999,-1.5173,-1.5431,-1.5431,-1.5173,-1.4915,-1.5257,-1.5166,-1.4915,-1.5257,-1.5264,-1.5039,-1.4571,-1.4268,-1.4029,-1.3427,-1.3113,-1.2542,-1.1455,-1.0461,-0.973,-0.9284,-0.8669,-0.8546,-0.9372,-0.9291,-0.9216,-0.9448,-0.975,-0.9906,-1.0056,-1.0588,-1.0812,-1.0738,-1.0962,-1.1111,-1.1111,-1.1111,-1.1111,-1.1111,-1.1111,-1.1111,-1.1111,-1.1111,-1.1111,-1.1111,-1.1111,-1.1111,-1.1111,-1.1037,-1.126,-1.1781,-1.1484,-1.1186,-2.1497,-2.1126,0.0,0.0,-2.0112,0.0,-1.921,0.0,0.0,0.0,0.0,0.0,0.0,0.0,-1.7647,-1.7442,-1.689,-1.6551,0.0,-1.6123,0.0,0.0,0.0,0.0,0.0,0.0,0.0,0.0,0.0,0.0,0.0,0.0,-1.3065,-1.3418,-1.3815,-1.4209,-1.4525,-1.5012,-1.5231,-1.5264,-1.5347,-1.5431,-1.5431,-1.5431,-1.5173,-1.4741,-1.4741,-1.4405,-1.3815,-1.3984,-1.4237,-1.4391,-1.465,-1.4999,-1.5347,-1.4915,-1.4999,-1.5431,-1.5431,-1.5431,-1.5431,-1.5431,-1.5431,-1.5431,-1.5431,-1.535,-1.5277,-1.5394,-1.5007,-1.4561,-1.4388,-1.4033,-1.3714,-1.3263,-1.3118,-1.2797,-1.1732,-1.0971,-1.0461,-0.9997,-0.9448,-0.9372,-1.0201,-1.0346,-1.0346,-1.0346,-1.0582,-1.0812,-1.0887,-1.1186,-1.1335,-1.1111,-1.1111,-1.1111,-1.1111,-1.1111,-1.1111,-1.1111,-1.1111,-1.1111,-1.1111,-1.1111,-1.116,-1.1262,-1.1166,-1.116,-1.1262,-1.1459,-1.1781,-1.2305,-1.2445,-1.2291]}]]